[[{"header":{"parameterUnit":"m.s-1","parameterCategory":1,"la1":30.6,"la2":28.766,"lo1":-90.7593,"lo2":-88.6598,"dy":0.0162,"dx":0.0183,"nx":116,"ny":114,"refTime":"2024-03-16T18:00:00:Z","depth":0,"parameterNumber":2,"parameterNumberName":"U-component_of_WINDS"},"data":[0.0,0.0,0.0,0.0,0.0,0.0,0.0,0.0,0.0,0.0,0.0,0.0,0.0,0.0,0.0,0.0,0.0,0.0,0.0,0.0,0.0,0.0,0.0,0.0,0.0,0.0,0.0,0.0,0.0,0.0,0.0,0.0,0.0,0.0,0.0,0.0,0.0,0.0,0.0,0.0,0.0,0.0,0.0,0.0,0.0,0.0,0.0,0.0,0.0,0.0,0.0,0.0,0.0,0.0,0.0,0.0,0.0,0.0,0.0,0.0,0.0,0.0,0.0,0.0,0.0,0.0,0.0,0.0,0.0,0.0,0.0,0.0,0.0,0.0,0.0,0.0,0.0,0.0,0.0,0.0,0.0,0.0,0.0,0.0,0.0,0.0,0.0,0.0,0.0,0.0,0.0,0.0,0.0,0.0,0.0,0.0,0.0,0.0,0.0,0.0,0.0,0.0,0.0,0.0,0.0,0.0,0.0,0.0,0.0,0.0,0.0,0.0,0.0,0.0,0.0,0.0,0.0,0.0,0.0,0.0,0.0,0.0,0.0,0.0,0.0,0.0,0.0,0.0,0.0,0.0,0.0,0.0,0.0,0.0,0.0,0.0,0.0,0.0,0.0,0.0,0.0,0.0,0.0,0.0,0.0,0.0,0.0,0.0,0.0,0.0,0.0,0.0,0.0,0.0,0.0,0.0,0.0,0.0,0.0,0.0,0.0,0.0,0.0,0.0,0.0,0.0,0.0,0.0,0.0,0.0,0.0,0.0,0.0,0.0,0.0,0.0,0.0,0.0,0.0,0.0,0.0,0.0,0.0,0.0,0.0,0.0,0.0,0.0,0.0,0.0,0.0,0.0,0.0,0.0,0.0,0.0,0.0,0.0,0.0,0.0,0.0,0.0,0.0,0.0,0.0,0.0,0.0,0.0,0.0,0.0,0.0,0.0,0.0,0.0,0.0,0.0,0.0,0.0,0.0,0.0,0.0,0.0,0.0,0.0,0.0,0.0,0.0,0.0,0.0,0.0,0.0,0.0,0.0,0.0,0.0,0.0,0.0,0.0,0.0,0.0,0.0,0.0,0.0,0.0,0.0,0.0,0.0,0.0,0.0,0.0,0.0,0.0,0.0,0.0,0.0,0.0,0.0,0.0,0.0,0.0,0.0,0.0,0.0,0.0,0.0,0.0,0.0,0.0,0.0,0.0,0.0,0.0,0.0,0.0,0.0,0.0,0.0,0.0,0.0,0.0,0.0,0.0,0.0,0.0,0.0,0.0,0.0,0.0,0.0,0.0,0.0,0.0,0.0,0.0,0.0,0.0,0.0,0.0,0.0,0.0,0.0,0.0,0.0,0.0,0.0,0.0,0.0,0.0,0.0,0.0,0.0,0.0,0.0,0.0,0.0,0.0,0.0,0.0,0.0,0.0,0.0,0.0,0.0,0.0,0.0,0.0,0.0,0.0,0.0,0.0,0.0,0.0,0.0,0.0,0.0,0.0,0.0,0.0,0.0,0.0,0.0,0.0,0.0,0.0,0.0,0.0,0.0,0.0,0.0,0.0,0.0,0.0,0.0,0.0,0.0,0.0,0.0,0.0,0.0,0.0,0.0,0.0,0.0,0.0,0.0,0.0,0.0,0.0,0.0,0.0,0.0,0.0,0.0,0.0,0.0,0.0,0.0,0.0,0.0,0.0,0.0,0.0,0.0,0.0,0.0,0.0,0.0,0.0,0.0,0.0,0.0,0.0,0.0,0.0,0.0,0.0,0.0,0.0,0.0,0.0,0.0,0.0,0.0,0.0,0.0,0.0,0.0,0.0,0.0,0.0,0.0,0.0,0.0,0.0,0.0,0.0,0.0,0.0,0.0,0.0,0.0,0.0,0.0,0.0,0.0,0.0,0.0,0.0,0.0,0.0,0.0,0.0,0.0,0.0,0.0,0.0,0.0,0.0,0.0,0.0,0.0,0.0,0.0,0.0,0.0,0.0,0.0,0.0,0.0,0.0,0.0,0.0,0.0,0.0,0.0,0.0,0.0,0.0,0.0,0.0,0.0,0.0,0.0,0.0,0.0,0.0,0.0,0.0,0.0,0.0,0.0,0.0,0.0,0.0,0.0,0.0,0.0,0.0,0.0,0.0,0.0,0.0,0.0,0.0,0.0,0.0,0.0,0.0,0.0,0.0,0.0,0.0,0.0,0.0,0.0,0.0,0.0,0.0,0.0,0.0,0.0,0.0,0.0,0.0,0.0,0.0,0.0,0.0,0.0,0.0,0.0,0.0,0.0,0.0,0.0,0.0,0.0,0.0,0.0,0.0,0.0,0.0,0.0,0.0,0.0,0.0,0.0,0.0,0.0,0.0,0.0,0.0,0.0,0.0,0.0,0.0,0.0,0.0,0.0,0.0,0.0,0.0,0.0,0.0,0.0,0.0,0.0,0.0,0.0,0.0,0.0,0.0,0.0,0.0,0.0,0.0,0.0,0.0,0.0,0.0,0.0,0.0,0.0,0.0,0.0,0.0,0.0,0.0,0.0,0.0,0.0,0.0,0.0,0.0,0.0,0.0,0.0,0.0,0.0,0.0,0.0,0.0,0.0,0.0,0.0,0.0,0.0,0.0,0.0,0.0,0.0,0.0,0.0,0.0,0.0,0.0,0.0,0.0,0.0,0.0,0.0,0.0,0.0,0.0,0.0,0.0,0.0,0.0,0.0,0.0,0.0,0.0,0.0,0.0,0.0,0.0,0.0,0.0,0.0,0.0,0.0,0.0,0.0,0.0,0.0,0.0,0.0,0.0,0.0,0.0,0.0,0.0,0.0,0.0,0.0,0.0,0.0,0.0,0.0,0.0,0.0,0.0,0.0,0.0,0.0,0.0,0.0,0.0,0.0,0.0,0.0,0.0,0.0,0.0,0.0,0.0,0.0,0.0,0.0,0.0,0.0,0.0,0.0,0.0,0.0,0.0,0.0,0.0,0.0,0.0,0.0,0.0,0.0,0.0,0.0,0.0,0.0,0.0,0.0,0.0,0.0,0.0,0.0,0.0,0.0,0.0,0.0,0.0,0.0,0.0,0.0,0.0,0.0,0.0,0.0,0.0,0.0,0.0,0.0,0.0,0.0,0.0,0.0,0.0,0.0,0.0,0.0,0.0,0.0,0.0,0.0,0.0,0.0,0.0,0.0,0.0,0.0,0.0,0.0,0.0,0.0,0.0,0.0,0.0,0.0,0.0,0.0,0.0,0.0,0.0,0.0,0.0,0.0,0.0,0.0,0.0,0.0,0.0,0.0,0.0,0.0,0.0,0.0,0.0,0.0,0.0,0.0,0.0,0.0,0.0,0.0,0.0,0.0,0.0,0.0,0.0,0.0,0.0,0.0,0.0,0.0,0.0,0.0,0.0,0.0,0.0,0.0,0.0,0.0,0.0,0.0,0.0,0.0,0.0,0.0,0.0,0.0,0.0,0.0,0.0,0.0,0.0,0.0,0.0,0.0,0.0,0.0,0.0,0.0,0.0,0.0,0.0,0.0,0.0,0.0,0.0,0.0,0.0,0.0,0.0,0.0,0.0,0.0,0.0,0.0,0.0,0.0,0.0,0.0,0.0,0.0,0.0,0.0,0.0,0.0,0.0,0.0,0.0,0.0,0.0,0.0,0.0,0.0,0.0,0.0,0.0,0.0,0.0,0.0,0.0,0.0,0.0,0.0,0.0,0.0,0.0,0.0,0.0,0.0,0.0,0.0,0.0,0.0,0.0,0.0,0.0,0.0,0.0,0.0,0.0,0.0,0.0,0.0,0.0,0.0,0.0,0.0,0.0,0.0,0.0,0.0,0.0,0.0,0.0,0.0,0.0,0.0,0.0,0.0,0.0,0.0,0.0,0.0,0.0,0.0,0.0,0.0,0.0,0.0,0.0,0.0,0.0,0.0,0.0,0.0,0.0,0.0,0.0,0.0,0.0,0.0,0.0,0.0,0.0,0.0,0.0,0.0,0.0,0.0,0.0,0.0,0.0,0.0,0.0,0.0,0.0,0.0,0.0,0.0,0.0,0.0,0.0,0.0,0.0,0.0,0.0,0.0,0.0,0.0,0.0,0.0,0.0,0.0,0.0,0.0,0.0,0.0,0.0,0.0,0.0,0.0,0.0,0.0,0.0,0.0,0.0,0.0,0.0,0.0,0.0,0.0,0.0,0.0,0.0,0.0,0.0,0.0,0.0,0.0,0.0,0.0,0.0,0.0,0.0,0.0,0.0,0.0,0.0,0.0,0.0,0.0,0.0,0.0,0.0,0.0,0.0,0.0,0.0,0.0,0.0,0.0,0.0,0.0,0.0,0.0,0.0,0.0,0.0,0.0,0.0,0.0,0.0,0.0,0.0,0.0,0.0,0.0,0.0,0.0,0.0,0.0,0.0,0.0,0.0,0.0,0.0,0.0,0.0,0.0,0.0,0.0,0.0,0.0,0.0,0.0,0.0,0.0,0.0,0.0,0.0,0.0,0.0,0.0,0.0,0.0,0.0,0.0,0.0,0.0,0.0,0.0,0.0,0.0,0.0,0.0,0.0,0.0,0.0,0.0,0.0,0.0,0.0,0.0,0.0,0.0,0.0,0.0,0.0,0.0,0.0,0.0,0.0,0.0,0.0,0.0,0.0,0.0,0.0,0.0,0.0,0.0,0.0,0.0,0.0,0.0,0.0,0.0,0.0,0.0,0.0,0.0,0.0,0.0,0.0,0.0,0.0,0.0,0.0,0.0,0.0,0.0,0.0,0.0,0.0,0.0,0.0,0.0,0.0,0.0,0.0,0.0,0.0,0.0,0.0,0.0,0.0,0.0,0.0,0.0,0.0,0.0,0.0,0.0,0.0,0.0,0.0,0.0,0.0,0.0,0.0,0.0,0.0,0.0,0.0,0.0,0.0,0.0,0.0,0.0,0.0,0.0,0.0,0.0,0.0,0.0,0.0,0.0,0.0,0.0,0.0,0.0,0.0,0.0,0.0,0.0,0.0,0.0,0.0,0.0,0.0,0.0,0.0,0.0,0.0,0.0,0.0,0.0,0.0,0.0,0.0,0.0,0.0,0.0,0.0,0.0,0.0,0.0,0.0,0.0,0.0,0.0,0.0,0.0,0.0,0.0,0.0,0.0,0.0,0.0,0.0,0.0,0.0,0.0,0.0,0.0,0.0,0.0,0.0,0.0,0.0,0.0,0.0,0.0,0.0,0.0,0.0,0.0,0.0,0.0,0.0,0.0,0.0,0.0,0.0,0.0,0.0,0.0,0.0,0.0,0.0,0.0,0.0,0.0,0.0,0.0,0.0,0.0,0.0,0.0,0.0,0.0,0.0,0.0,0.0,0.0,0.0,0.0,0.0,0.0,0.0,0.0,0.0,0.0,0.0,0.0,0.0,0.0,0.0,0.0,0.0,0.0,0.0,0.0,0.0,0.0,0.0,0.0,0.0,0.0,0.0,0.0,0.0,0.0,0.0,0.0,0.0,0.0,0.0,0.0,0.0,0.0,0.0,0.0,0.0,0.0,0.0,0.0,0.0,0.0,0.0,0.0,0.0,0.0,0.0,0.0,0.0,0.0,0.0,0.0,0.0,0.0,0.0,0.0,0.0,0.0,0.0,0.0,0.0,0.0,0.0,0.0,0.0,0.0,0.0,0.0,0.0,0.0,0.0,0.0,0.0,0.0,0.0,0.0,0.0,0.0,0.0,0.0,0.0,0.0,0.0,0.0,0.0,0.0,0.0,0.0,0.0,0.0,0.0,0.0,0.0,0.0,0.0,0.0,0.0,0.0,0.0,0.0,0.0,0.0,0.0,0.0,0.0,0.0,0.0,0.0,0.0,0.0,0.0,0.0,0.0,0.0,0.0,0.0,0.0,0.0,0.0,0.0,0.0,0.0,0.0,0.0,0.0,0.0,0.0,0.0,0.0,0.0,0.0,0.0,0.0,0.0,0.0,0.0,0.0,0.0,0.0,0.0,0.0,0.0,0.0,0.0,0.0,0.0,0.0,0.0,0.0,0.0,0.0,0.0,0.0,0.0,0.0,0.0,0.0,0.0,0.0,0.0,0.0,0.0,0.0,0.0,0.0,0.0,0.0,0.0,0.0,0.0,0.0,0.0,0.0,4.427,0.0,0.0,0.0,0.0,0.0,0.0,0.0,0.0,0.0,0.0,0.0,0.0,0.0,0.0,0.0,0.0,0.0,0.0,0.0,0.0,0.0,0.0,0.0,0.0,0.0,0.0,0.0,0.0,0.0,0.0,0.0,0.0,0.0,0.0,0.0,3.1209,3.1554,3.2287,3.3443,3.464,3.6303,3.8361,3.7917,3.6942,3.5645,0.0,0.0,0.0,0.0,0.0,0.0,0.0,0.0,0.0,0.0,0.0,0.0,0.0,0.0,0.0,0.0,0.0,0.0,0.0,0.0,0.0,0.0,0.0,0.0,0.0,0.0,0.0,0.0,0.0,0.0,0.0,0.0,0.0,0.0,0.0,0.0,0.0,0.0,0.0,0.0,0.0,0.0,0.0,0.0,0.0,0.0,0.0,0.0,0.0,0.0,0.0,0.0,0.0,0.0,0.0,0.0,0.0,0.0,0.0,0.0,0.0,0.0,0.0,0.0,0.0,0.0,0.0,0.0,0.0,0.0,0.0,4.7905,0.0,0.0,0.0,0.0,0.0,0.0,0.0,0.0,0.0,0.0,0.0,0.0,0.0,0.0,0.0,0.0,0.0,0.0,0.0,0.0,0.0,0.0,0.0,2.8704,2.9531,3.0245,3.0859,3.1008,0.0,0.0,0.0,0.0,0.0,3.0928,3.1885,3.2629,3.3964,3.5963,3.8215,4.0796,4.3597,4.4718,4.406,4.1883,3.9611,0.0,0.0,0.0,0.0,0.0,0.0,0.0,0.0,0.0,0.0,0.0,0.0,0.0,0.0,0.0,0.0,0.0,0.0,0.0,0.0,0.0,0.0,0.0,0.0,0.0,0.0,0.0,0.0,0.0,0.0,0.0,0.0,0.0,0.0,0.0,0.0,0.0,0.0,0.0,0.0,0.0,0.0,0.0,0.0,0.0,0.0,0.0,0.0,0.0,0.0,0.0,0.0,0.0,0.0,0.0,0.0,0.0,0.0,0.0,0.0,0.0,0.0,0.0,0.0,0.0,6.141,6.1561,6.2092,6.2585,5.7759,5.4537,5.2642,0.0,0.0,0.0,0.0,0.0,0.0,0.0,0.0,0.0,0.0,0.0,0.0,0.0,0.0,0.0,0.0,0.0,0.0,0.0,0.0,0.0,0.0,3.0832,3.177,3.1886,3.1988,3.2016,3.2016,0.0,3.0979,3.1161,3.1126,3.1882,3.3559,3.4328,3.6076,3.8919,4.4376,4.8034,4.9934,5.191,5.2756,5.2255,4.4806,4.2167,4.3088,0.0,0.0,0.0,0.0,0.0,0.0,0.0,0.0,0.0,0.0,0.0,0.0,0.0,0.0,0.0,0.0,0.0,0.0,0.0,0.0,0.0,0.0,0.0,0.0,0.0,0.0,0.0,0.0,0.0,0.0,0.0,0.0,0.0,0.0,0.0,0.0,0.0,0.0,0.0,0.0,0.0,4.425,4.5293,0.0,0.0,0.0,0.0,0.0,0.0,0.0,0.0,0.0,0.0,0.0,0.0,0.0,0.0,5.9776,6.3642,6.4964,6.3785,6.766,6.8759,6.7466,6.8228,6.9024,6.9745,6.8986,0.0,5.8567,5.6326,0.0,0.0,0.0,0.0,0.0,0.0,0.0,0.0,0.0,0.0,0.0,0.0,0.0,0.0,0.0,0.0,0.0,0.0,0.0,0.0,0.0,3.3617,3.5016,3.5319,3.7925,3.8208,3.4966,3.5724,3.5314,3.315,3.298,3.3766,3.5502,3.7108,4.0515,4.5796,5.1155,5.4315,5.5421,5.7336,5.8232,5.8058,5.345,4.9911,4.7244,4.3953,0.0,0.0,0.0,0.0,0.0,0.0,0.0,0.0,0.0,0.0,0.0,0.0,0.0,0.0,0.0,0.0,0.0,0.0,0.0,0.0,0.0,0.0,0.0,0.0,0.0,0.0,0.0,0.0,0.0,0.0,0.0,0.0,0.0,0.0,0.0,0.0,0.0,0.0,0.0,4.4874,4.7085,4.7528,4.7584,4.7288,0.0,0.0,0.0,0.0,0.0,0.0,0.0,0.0,0.0,5.9919,6.277,6.5044,6.6717,6.9967,7.1711,7.1933,7.4212,7.5203,7.497,7.5354,7.5696,7.6037,7.6037,7.3383,6.8641,6.3751,5.9734,5.6398,0.0,0.0,0.0,0.0,0.0,0.0,0.0,0.0,0.0,0.0,0.0,0.0,0.0,0.0,0.0,0.0,0.0,0.0,3.4458,3.7145,3.9111,3.9871,4.3194,4.3531,3.9423,3.9513,3.8512,3.5752,3.4983,3.547,3.7329,4.0989,4.6054,5.2489,5.7328,6.0168,6.115,6.2886,6.363,6.3448,6.1873,5.8048,5.251,4.8579,4.5546,4.31,0.0,0.0,0.0,0.0,0.0,0.0,0.0,0.0,0.0,0.0,0.0,0.0,0.0,0.0,0.0,0.0,0.0,0.0,0.0,0.0,0.0,0.0,0.0,0.0,0.0,0.0,0.0,0.0,0.0,0.0,0.0,0.0,0.0,0.0,0.0,0.0,0.0,4.8116,5.0038,4.9431,5.1175,5.1364,0.0,0.0,0.0,0.0,0.0,0.0,5.9468,6.1974,6.4627,6.7385,6.9854,7.1943,7.3649,7.5956,7.7737,7.8988,7.9822,8.0542,8.1186,8.1186,8.1186,8.1186,8.1186,7.986,7.7207,7.0683,6.5836,6.2282,6.061,5.9203,0.0,5.9241,5.9885,6.0572,0.0,0.0,0.0,0.0,0.0,0.0,0.0,0.0,0.0,0.0,0.0,3.5379,3.8563,4.1741,4.419,4.5561,4.5343,4.5317,4.5786,4.0866,3.8236,3.8944,3.6691,3.6524,3.8825,4.6299,5.2531,5.7348,6.2173,6.5585,6.7668,6.9397,7.0175,6.9987,6.853,6.5176,6.0095,5.318,5.0719,5.0777,4.3228,0.0,0.0,0.0,0.0,0.0,0.0,0.0,0.0,0.0,0.0,0.0,0.0,0.0,0.0,0.0,0.0,0.0,0.0,0.0,0.0,0.0,0.0,0.0,0.0,0.0,0.0,0.0,0.0,0.0,0.0,0.0,0.0,0.0,0.0,0.0,0.0,0.0,0.0,5.135,5.5985,0.0,0.0,0.0,0.0,5.7009,6.0033,6.2985,6.5528,6.8077,7.0995,7.4283,7.6784,7.8912,8.0585,8.2291,8.3206,8.332,8.4181,8.4592,8.4668,8.4668,8.4668,8.4668,8.4668,8.3688,8.1614,7.5685,7.1706,6.9219,6.7546,6.6859,6.667,6.595,6.667,6.7845,0.0,0.0,0.0,0.0,0.0,0.0,0.0,0.0,2.9672,3.1866,3.4834,3.7884,4.1003,4.5137,4.8629,5.0992,5.2526,5.2593,5.0659,4.7325,4.5068,4.4319,4.1442,4.2174,4.707,5.1884,5.6931,6.2138,6.5911,6.8637,7.0451,7.1547,7.2038,7.1942,7.0967,6.9538,6.7462,6.0446,5.5839,5.2883,4.8153,4.435,0.0,0.0,0.0,0.0,0.0,0.0,0.0,0.0,0.0,0.0,0.0,0.0,0.0,0.0,0.0,0.0,0.0,0.0,0.0,0.0,0.0,0.0,0.0,0.0,0.0,0.0,0.0,0.0,0.0,0.0,0.0,0.0,0.0,0.0,0.0,0.0,0.0,5.8361,6.2159,0.0,0.0,6.1359,6.288,6.4471,6.7243,7.0162,7.3227,7.5734,7.8159,8.0434,8.2399,8.372,8.4326,8.5469,8.6044,8.6044,8.6379,8.6525,8.6525,8.6525,8.6525,8.6525,8.6525,8.5842,8.4635,8.2507,7.8907,7.4591,7.3454,7.235,7.1436,7.1668,7.2123,7.2578,0.0,0.0,0.0,0.0,0.0,0.0,0.0,0.0,3.0677,3.338,3.7113,4.0792,4.4103,4.9224,5.3388,5.5776,5.743,5.7355,5.5084,5.1273,4.8666,4.7586,4.5952,4.7503,5.2779,5.7025,6.1628,6.6581,6.9462,7.1576,7.2905,7.3663,7.3869,7.3583,7.2834,7.2477,7.2129,6.6979,6.1996,5.7197,5.2841,4.9381,4.6288,0.0,0.0,0.0,0.0,0.0,0.0,0.0,0.0,0.0,0.0,0.0,0.0,0.0,0.0,0.0,0.0,0.0,0.0,0.0,0.0,0.0,0.0,0.0,0.0,0.0,0.0,0.0,0.0,0.0,0.0,0.0,0.0,0.0,0.0,0.0,6.2387,6.3515,6.7613,6.9361,6.6821,6.784,6.947,7.1408,7.3828,7.6586,7.9778,8.1671,8.345,8.5242,8.6644,8.7472,8.7775,8.8615,8.9032,8.9032,8.9118,8.9112,8.9032,8.9118,8.9112,8.9032,8.9032,8.8388,8.7358,8.7358,8.4743,8.0618,7.9177,7.7775,7.6595,7.6903,7.7169,7.7396,0.0,0.0,0.0,0.0,0.0,0.0,0.0,2.9711,3.1483,3.6042,4.0103,4.4062,4.7974,5.4079,5.8436,5.9916,5.9416,5.8993,5.8965,5.2254,4.8352,4.8545,4.996,5.2243,5.5441,6.1585,6.6688,7.0613,7.2932,7.4502,7.5287,7.609,7.6019,7.5251,7.4457,7.41,7.3993,7.2477,6.9158,6.4289,5.7183,5.4721,5.4462,0.0,0.0,0.0,0.0,0.0,0.0,0.0,0.0,0.0,0.0,0.0,0.0,0.0,0.0,0.0,0.0,0.0,0.0,0.0,0.0,0.0,0.0,0.0,0.0,0.0,0.0,0.0,0.0,0.0,0.0,0.0,0.0,0.0,5.6364,6.2159,6.6362,6.6514,7.2312,7.4781,7.0768,7.4013,7.6741,7.7623,7.9673,8.2131,8.4904,8.5554,8.6744,8.8623,8.9469,9.027,9.1098,9.1906,9.2292,9.2292,9.2428,9.2428,9.231,9.2434,9.2422,9.2298,9.2298,9.1382,8.9866,8.9866,8.8918,8.7213,8.4717,8.3244,8.241,8.1571,8.176,8.2335,0.0,0.0,0.0,0.0,0.0,0.0,0.0,2.9663,3.1746,3.537,4.0702,4.5867,5.0348,5.5906,6.0416,6.3084,6.1059,5.9902,6.0474,5.3833,5.0412,5.1598,5.4857,5.8629,6.2806,6.6404,6.9828,7.303,7.5012,7.6264,7.6866,7.7238,7.7229,7.6866,7.6652,7.6545,7.6464,7.551,7.369,7.0854,6.4325,6.0108,5.7261,0.0,0.0,0.0,0.0,0.0,0.0,0.0,0.0,0.0,0.0,0.0,0.0,0.0,0.0,0.0,0.0,0.0,0.0,0.0,0.0,0.0,0.0,0.0,0.0,0.0,0.0,0.0,0.0,0.0,0.0,0.0,0.0,6.2231,6.2458,6.7205,7.2019,7.5653,7.9334,8.1338,8.084,8.2153,8.3252,8.3665,8.4984,8.6457,8.8073,8.8877,8.973,9.0804,9.1168,9.1401,9.152,9.1966,9.2145,9.2152,9.2477,9.2647,9.2573,9.2519,9.2471,9.2434,9.2335,9.2026,9.1571,9.0965,9.0093,8.8956,8.7061,8.5848,8.5047,8.4819,8.4105,8.3244,0.0,0.0,0.0,0.0,0.0,0.0,0.0,3.0413,3.262,3.642,4.2368,4.7928,5.2241,5.7624,6.1628,6.3484,6.1657,6.0058,5.9202,5.4628,5.3025,5.5368,5.9329,6.3551,6.7912,7.1093,7.3802,7.6103,7.7924,7.8749,7.865,7.9179,7.918,7.8746,7.8746,7.8699,7.8578,7.7828,7.6914,7.5572,7.1291,6.7187,6.3219,5.9409,5.719,5.5691,5.2432,5.1337,5.1031,4.8517,0.0,0.0,0.0,0.0,0.0,0.0,0.0,0.0,0.0,0.0,0.0,0.0,0.0,0.0,0.0,0.0,0.0,0.0,0.0,0.0,0.0,0.0,0.0,0.0,6.4808,6.9124,7.0758,7.3313,7.6605,8.0926,8.2914,8.4595,8.6285,8.648,8.6925,8.7915,8.8494,8.9287,9.0329,9.0788,9.1388,9.2171,9.2723,9.3073,9.3132,9.3803,9.4036,9.3889,9.4338,9.4572,9.4484,9.4273,9.4139,0.0,9.3568,9.317,9.2791,9.1957,9.1306,0.0,0.0,0.0,0.0,0.0,8.6038,8.521,0.0,0.0,0.0,0.0,0.0,0.0,0.0,3.1361,3.3621,3.8294,4.4315,4.9603,5.345,5.8667,6.1965,6.2143,6.135,5.963,5.6847,5.5406,5.6194,5.9623,6.3602,6.7625,7.1618,7.5456,7.8026,7.9258,8.1008,8.1377,8.0524,8.1451,8.149,8.0788,8.0788,8.0649,8.0452,7.9726,7.93,7.8915,7.7422,7.4467,7.0407,6.605,6.479,6.4802,6.0473,5.7815,5.5924,5.3566,0.0,0.0,0.0,0.0,0.0,0.0,0.0,0.0,0.0,0.0,0.0,0.0,0.0,0.0,0.0,0.0,0.0,0.0,0.0,0.0,0.0,0.0,0.0,0.0,7.0104,7.5695,7.9398,7.9806,8.0807,8.3841,8.4696,8.6052,8.8657,8.8443,8.8887,9.0708,9.0785,9.1109,9.2002,0.0,0.0,0.0,0.0,9.4872,9.5172,9.6304,9.6696,9.6276,9.6879,9.7092,9.6945,9.6622,9.6458,9.6268,9.5324,9.4483,9.3769,9.2816,9.2374,9.207,8.979,8.8463,8.7781,8.7592,8.7478,0.0,0.0,0.0,0.0,0.0,0.0,0.0,0.0,3.0834,3.3446,3.8202,4.3741,4.8734,5.2684,5.6875,5.9901,6.12,6.0015,5.8895,5.8289,5.8581,6.0458,6.4324,6.8606,7.2291,7.5316,7.8303,8.019,8.0923,8.2103,8.2584,8.2395,8.2729,8.2738,8.2442,8.2442,8.2423,8.2385,8.2205,8.1755,8.1016,7.9922,7.6988,7.3083,7.1095,6.9163,6.7238,6.5371,6.5046,6.5146,6.2557,6.1161,5.9778,5.5763,0.0,0.0,0.0,0.0,0.0,0.0,0.0,0.0,0.0,0.0,0.0,0.0,0.0,0.0,0.0,0.0,0.0,0.0,0.0,0.0,6.9524,7.542,8.0208,8.276,8.5066,8.6845,8.7785,8.8413,8.9326,9.072,9.0738,9.1158,9.2349,9.2563,9.3115,9.4212,9.4872,0.0,9.5156,9.5495,9.5637,9.5593,9.6032,9.6237,9.6153,0.0,0.0,9.6743,9.6564,9.6498,9.6408,9.5752,9.5341,9.5135,9.3869,9.2942,9.2184,9.1047,9.051,9.0207,8.888,8.7971,8.7283,0.0,0.0,0.0,0.0,0.0,0.0,0.0,3.0939,3.3401,3.8174,4.2889,4.7319,5.1286,5.4135,5.6133,5.6925,5.624,5.6646,5.8659,6.058,6.4212,6.9942,7.2589,7.5592,7.9277,8.1006,8.2374,8.3466,8.4451,8.5122,8.5405,8.5598,8.5637,8.554,8.554,8.5492,8.5359,8.5008,8.4554,8.3934,8.2571,8.0768,7.8607,7.5926,7.3867,7.2276,7.1391,7.0665,6.9829,6.7737,6.625,6.4601,6.1235,5.7709,5.4138,0.0,0.0,0.0,0.0,0.0,0.0,0.0,0.0,0.0,0.0,0.0,0.0,0.0,0.0,5.6738,6.0301,0.0,6.9524,7.4665,7.9671,8.3607,8.5504,8.8138,8.9696,8.9133,8.9556,9.0487,9.1997,9.2159,9.2667,9.3725,9.4314,9.4846,9.5278,9.5818,9.5979,9.5715,9.6295,9.6673,9.6802,9.7165,9.7432,9.7583,9.7602,9.7689,9.7844,9.7554,9.7535,9.7711,9.6916,9.6578,9.6588,9.5471,9.4275,9.3004,9.2625,9.1899,9.1003,9.0169,8.9335,8.8463,0.0,0.0,0.0,0.0,0.0,0.0,0.0,3.1189,3.3298,3.775,4.1599,4.5202,4.8526,5.0465,5.1685,5.2149,5.2898,5.5181,5.9502,6.2941,6.7871,7.4712,7.615,7.8621,8.254,8.3276,8.4345,8.5906,8.6672,8.7312,8.7863,8.8061,8.8149,8.8113,8.7968,8.7808,8.7624,8.6971,8.6604,8.6321,8.484,8.4187,8.3679,8.0092,7.8174,7.727,7.632,7.4342,7.1978,7.0866,6.9051,6.699,6.5066,6.2746,5.9855,5.5232,5.3434,0.0,0.0,0.0,0.0,0.0,0.0,0.0,0.0,0.0,5.2715,5.631,5.9469,6.2716,6.6618,7.05,7.4621,7.9147,8.3254,8.637,8.7663,9.0201,9.1416,8.9921,9.0356,9.14,9.2995,9.344,9.4014,9.5036,9.5877,9.6369,9.6394,9.6484,9.6567,9.6588,9.7271,9.7902,9.8436,9.876,9.9088,9.9402,9.9021,9.8974,9.9243,9.8689,9.8676,9.8976,9.7946,9.7526,9.7522,9.6919,9.5741,9.428,9.428,9.3175,9.1578,9.1388,9.0775,8.9942,0.0,0.0,0.0,0.0,0.0,0.0,0.0,0.0,3.2906,3.6221,3.9468,4.193,4.3083,4.5254,4.742,4.9519,5.2915,5.721,6.2543,6.7326,7.1903,7.6285,7.9548,8.2081,8.385,8.462,8.5752,8.737,8.7305,8.7377,8.7632,8.7843,8.7916,8.7916,8.7194,8.685,8.682,8.6561,8.6534,8.6627,8.6085,8.5532,8.482,8.2757,8.1057,7.9526,7.7378,7.4644,7.2082,7.2358,7.0667,6.8374,6.8026,6.6684,6.4482,6.1026,0.0,5.3598,5.0902,4.8467,4.7127,4.9021,4.9629,5.1499,0.0,0.0,6.121,6.508,6.8002,7.0525,7.2667,7.6123,7.9595,8.2514,8.6036,8.8545,8.9013,9.1867,9.334,9.1855,9.2736,9.3619,9.4003,9.506,9.5985,9.6622,9.7026,9.7723,9.8862,9.8424,9.8664,9.9747,9.9225,9.934,10.03,10.0196,10.0187,10.0412,10.0187,10.0078,10.0084,9.9346,9.9034,9.9045,9.8038,9.7405,9.7092,9.7312,9.6838,9.6028,9.6028,9.4921,9.3245,9.2449,9.1647,9.0813,0.0,0.0,0.0,0.0,0.0,0.0,0.0,0.0,0.0,3.5288,3.7255,3.8866,4.011,4.1533,4.2986,4.4519,4.9853,5.5339,6.0431,6.7502,7.3926,7.9364,8.1941,8.4206,8.6289,8.6501,8.716,8.8311,8.8809,8.9349,8.9873,9.0567,9.0885,9.0849,9.0017,8.9655,8.9609,8.9086,8.8556,8.8037,8.7278,8.649,8.5424,8.2723,8.0495,7.8578,7.6805,7.4461,0.0,7.136,7.01,6.8896,6.9281,6.7229,6.428,6.2331,5.9048,0.0,5.4128,5.2734,0.0,0.0,5.5523,5.8014,6.2028,6.4168,6.6237,6.9544,7.2842,7.5776,7.7763,8.0939,8.3898,0.0,8.8421,9.0289,9.0904,9.25,9.3219,9.2125,9.3319,9.4222,9.4313,9.5587,9.6717,9.7549,9.7657,9.8365,9.9962,9.9258,9.9275,10.0315,9.9972,10.0214,10.0921,10.0512,10.0512,10.0921,10.0512,10.0413,10.0622,10.0203,10.0088,9.9987,9.9191,9.8565,9.8179,9.8326,9.7839,9.6939,9.6477,9.5787,9.4907,9.3549,9.2525,9.1685,0.0,0.0,0.0,0.0,0.0,0.0,0.0,0.0,0.0,0.0,3.5146,3.6359,3.796,3.8602,3.9568,4.1126,4.7054,5.3031,5.8487,6.6901,7.4463,8.0778,8.3291,8.5722,8.8255,8.8334,8.8834,8.9878,9.0522,9.115,9.1727,9.2523,9.2915,9.2869,9.2093,9.1587,9.1349,9.073,8.9752,8.8652,8.8079,8.689,8.5104,8.1701,7.8495,7.5648,7.468,7.2162,6.911,6.7896,6.6752,6.6038,6.7253,6.562,6.3113,6.2357,5.9713,5.6807,5.5786,0.0,0.0,5.8314,6.1152,6.4083,6.6209,6.8583,7.1223,7.4145,7.7225,7.9946,8.1926,8.4606,8.6952,8.8405,9.0339,9.1902,9.2492,9.3214,9.3218,9.1866,9.2859,9.3697,9.3651,9.5475,9.7123,9.8198,9.8284,9.9002,10.062,9.9878,9.9845,10.0813,10.0599,10.0896,10.1491,10.1119,10.11,10.1611,10.1091,10.1011,10.1316,10.0997,10.0803,10.0586,9.9833,9.9413,9.9348,9.9205,9.8623,9.7807,9.7205,9.6774,9.6265,9.4831,9.3738,9.2829,0.0,0.0,0.0,0.0,0.0,0.0,0.0,0.0,0.0,0.0,0.0,0.0,0.0,3.6475,3.776,4.0829,4.551,5.1257,5.826,6.6332,7.3404,7.9205,8.3389,8.6757,8.9304,8.9927,9.1006,9.2594,9.2358,9.2237,9.2273,9.2556,9.2723,9.2687,9.1877,9.1083,9.0331,9.01,8.9117,8.7684,8.8248,8.6614,8.3493,8.0068,7.5412,7.0737,7.0674,6.6805,6.1702,6.1468,5.9838,5.8352,6.0659,6.1638,0.0,6.1762,5.9293,5.6359,5.5091,0.0,5.8892,6.2193,6.5478,6.8696,7.1759,7.4459,7.7194,8.0297,8.1892,8.3282,8.4949,8.6765,8.834,8.9313,9.169,9.3442,9.3464,9.4314,9.3978,9.1327,9.154,9.1861,0.0,9.483,9.7363,9.8684,9.9067,9.9739,10.0794,10.0508,10.0795,10.1995,10.1509,10.1611,10.2417,10.2306,10.2399,10.2583,10.2202,10.2314,10.261,10.1398,10.0713,10.0294,9.9319,9.9411,10.0202,9.9703,9.9201,9.8763,9.8725,9.814,9.7168,9.6334,9.5475,9.4496,0.0,0.0,0.0,0.0,0.0,0.0,0.0,0.0,0.0,0.0,0.0,0.0,0.0,0.0,0.0,0.0,4.3393,4.843,5.4594,6.2955,7.0229,7.5977,8.173,8.5629,8.7364,8.8785,9.0223,9.1699,9.2288,9.2834,9.3396,9.4149,9.4497,9.4425,9.3086,9.2352,9.198,9.0176,8.8391,8.6739,8.5763,8.4041,8.1721,7.8938,7.3878,6.7838,0.0,6.1602,5.7901,5.6753,5.587,5.5555,5.7382,5.6883,5.5462,5.4744,5.5198,5.6218,5.7479,6.031,6.3823,6.7748,7.1178,7.4185,7.6397,7.8404,8.0132,8.1202,8.1768,8.2252,8.2738,8.4978,8.7004,8.7681,9.1193,9.3724,9.3346,9.4738,9.432,9.034,9.1575,0.0,0.0,0.0,0.0,9.7794,9.8068,9.8969,10.1009,10.0796,10.1101,10.2114,10.2008,10.1989,10.2008,10.2285,10.2313,10.2114,10.2114,10.221,10.2519,10.1481,10.1183,10.1402,10.0507,10.0192,10.02,9.9969,9.9605,9.9084,9.8554,9.8265,9.8046,9.7212,9.672,9.6233,0.0,0.0,0.0,0.0,0.0,0.0,0.0,0.0,0.0,0.0,0.0,0.0,0.0,0.0,0.0,0.0,0.0,4.6037,5.138,5.8306,6.5036,7.1339,7.5694,7.918,8.1865,8.2481,8.4213,8.7154,8.7977,8.9254,9.0949,9.2156,9.259,9.2274,9.153,9.1014,9.0642,8.8588,8.6371,8.397,8.1753,7.9064,7.6081,7.2869,6.7766,0.0,5.8203,5.5241,5.285,5.1523,5.1267,5.1679,5.2809,5.2791,5.2345,5.2103,5.4503,5.7879,6.1061,6.465,6.8523,7.2658,7.5698,7.8041,7.9405,8.0801,8.1732,8.1429,8.1309,8.1155,8.0702,8.1829,8.3525,8.5648,8.8847,9.156,9.3106,9.4281,9.3839,9.0618,9.1003,9.0939,0.0,0.0,0.0,9.67,9.745,9.8661,10.0794,10.1114,10.1481,10.1998,10.2086,10.2186,10.2208,10.2213,10.2102,10.1803,10.2078,10.221,10.1984,10.1504,10.1405,10.1509,10.0694,10.0183,9.9993,9.9946,9.9682,9.9286,9.8921,9.8878,9.8887,9.7743,9.7515,9.7478,0.0,0.0,0.0,0.0,0.0,0.0,0.0,0.0,0.0,0.0,0.0,0.0,0.0,0.0,0.0,0.0,0.0,0.0,4.8705,5.2736,5.8185,6.5444,6.604,6.8484,7.341,7.2075,7.4035,7.9517,8.0018,8.1901,8.5083,8.6597,8.6922,8.6265,8.6912,8.683,8.6108,8.5012,8.2651,7.9339,7.6186,7.2061,6.7311,6.2806,5.8124,5.3615,5.0583,4.8383,4.6825,4.6105,4.6468,4.7293,4.7524,4.9883,5.2804,5.4071,5.729,6.1332,6.5587,6.9254,7.2865,7.6854,7.9032,8.0333,8.0978,8.1744,8.2055,8.1155,8.0487,7.9734,0.0,0.0,7.8438,8.3358,8.5195,8.7793,9.2908,9.337,9.2917,0.0,0.0,0.0,0.0,0.0,0.0,9.5543,0.0,9.8753,10.0182,10.1196,10.1783,10.1783,10.1783,10.2198,10.2887,10.2205,10.178,10.179,10.2406,10.2219,10.1494,10.1504,10.1218,10.0782,10.0005,9.9742,9.9841,9.9693,9.9505,9.9331,9.9796,9.9935,9.9613,9.8008,9.7939,9.8249,0.0,0.0,0.0,0.0,0.0,0.0,0.0,0.0,0.0,0.0,0.0,0.0,0.0,0.0,0.0,0.0,0.0,0.0,4.4925,4.9264,5.3686,5.8122,6.2241,6.5627,6.8172,6.9645,7.1673,7.4405,7.5116,7.6218,7.7661,7.8628,7.8935,7.8666,7.826,7.7972,7.763,7.543,7.3325,7.1257,6.8486,6.5923,6.3563,6.1771,5.8124,5.3829,5.2464,4.9466,4.6177,4.6575,4.8395,5.0651,5.1454,5.3109,5.5382,5.8462,6.1807,6.5503,7.0128,7.424,7.7911,8.077,8.1857,8.2353,8.2847,8.193,8.0355,7.8234,7.5914,7.3363,0.0,0.0,0.0,7.9999,8.6019,0.0,9.5083,9.666,0.0,9.4338,0.0,9.4325,9.2587,9.3382,0.0,0.0,9.6968,9.8182,10.0182,10.1113,10.1584,10.1584,10.2312,10.2386,10.1915,10.1899,10.1905,10.1905,10.1783,10.1905,10.2291,10.1714,10.1709,10.2099,10.1406,10.0704,10.0207,10.0095,9.9648,9.9013,9.9766,9.9996,9.9906,9.9375,9.8991,9.8539,0.0,0.0,0.0,0.0,0.0,0.0,0.0,0.0,0.0,0.0,0.0,0.0,0.0,0.0,0.0,0.0,0.0,0.0,0.0,4.5823,4.8965,5.2377,5.441,5.6769,5.9569,5.9874,6.1673,6.5118,6.5777,6.7078,6.8993,7.0138,7.0457,7.0061,6.9909,6.9873,6.9749,6.7888,6.6173,0.0,0.0,5.9337,5.7496,5.5997,5.3564,5.0845,5.0073,4.8966,4.8139,4.9995,5.1495,5.2953,5.5126,5.6966,5.9186,6.342,6.6584,6.9781,7.4748,7.8366,8.127,8.3348,8.3511,8.2768,8.1181,7.9776,7.7568,7.3227,7.0828,0.0,6.5201,6.8426,0.0,0.0,0.0,0.0,9.4904,9.6754,9.7283,0.0,9.6695,0.0,9.5423,9.5761,9.6805,0.0,9.8591,9.9152,10.0696,10.1908,10.2609,10.271,10.3088,10.2983,10.2307,10.2505,10.2493,10.2092,10.191,10.1701,10.1602,10.1407,10.1103,10.0902,0.0,10.0193,9.9541,9.995,9.9764,9.9333,10.0085,10.0594,10.0699,9.9889,9.9697,9.9569,0.0,0.0,0.0,0.0,0.0,0.0,0.0,0.0,0.0,0.0,0.0,0.0,0.0,0.0,0.0,0.0,0.0,0.0,0.0,0.0,4.472,4.7798,4.5923,4.6577,5.0374,4.842,4.9774,5.4735,5.5342,5.7142,5.9995,6.1465,6.1781,6.1193,6.1831,6.2117,6.2031,6.111,5.988,5.8267,5.5413,5.2993,5.0858,0.0,0.0,4.6902,4.6212,4.7783,5.0738,5.4306,5.529,5.5622,5.9179,6.1709,6.4238,6.8808,7.1632,7.4354,7.9094,8.174,8.3542,8.5007,8.424,8.2149,7.8361,7.6494,7.382,6.7546,0.0,6.4236,6.1547,6.367,6.7925,7.4199,0.0,8.588,9.4128,9.5783,9.6795,9.8598,9.804,9.7823,9.8604,9.808,9.8814,10.1614,10.132,10.12,10.1798,10.3109,10.3978,10.4221,10.4011,10.3708,10.3412,10.3518,10.3185,10.2584,10.2419,10.1811,10.079,10.1001,10.0286,9.8978,0.0,0.0,9.8711,9.9556,9.9803,9.9787,10.0507,10.1121,10.1506,9.993,10.0005,10.0603,0.0,0.0,0.0,0.0,0.0,0.0,0.0,0.0,0.0,0.0,3.6305,3.5213,0.0,0.0,0.0,0.0,0.0,0.0,0.0,0.0,0.0,4.4401,4.4687,4.5523,4.7034,4.7736,4.8657,4.9734,5.106,5.1972,5.2577,5.3515,5.3816,5.3586,5.3736,5.3765,5.3729,5.2898,5.1987,5.1053,4.9894,4.8758,4.7759,4.7366,0.0,0.0,4.683,4.758,4.9478,5.5254,5.9209,6.2278,6.5506,6.856,7.1522,7.4621,7.7236,7.962,8.2124,8.4008,8.5443,8.6038,8.4012,8.1318,7.9011,7.4285,0.0,0.0,6.1217,5.8945,5.6436,6.1308,6.7881,7.4381,8.0621,8.7756,9.6639,9.7838,9.879,0.0,10.1808,10.2008,10.2789,0.0,0.0,0.0,0.0,10.4016,10.3513,10.3696,10.4018,10.441,10.3698,10.3597,10.4214,10.369,10.3817,10.4293,10.2812,10.2291,10.2607,10.1497,10.0694,10.0289,0.0,0.0,9.9343,9.9728,9.9629,9.9311,10.0296,10.0818,10.0909,10.0106,9.978,9.9655,0.0,0.0,0.0,0.0,0.0,0.0,0.0,3.5306,3.6948,4.0801,4.1084,4.0095,3.7907,3.7617,3.7907,0.0,0.0,0.0,0.0,0.0,0.0,0.0,4.3412,4.4037,4.4941,4.5932,4.6729,4.719,0.0,4.8781,4.8781,4.918,4.9323,4.9252,4.9252,4.9252,4.9216,4.8853,4.8461,4.8062,4.7723,4.733,0.0,0.0,0.0,0.0,0.0,4.8294,5.0614,5.442,5.9831,6.5563,6.9368,7.2572,7.5505,7.8493,8.0303,8.2042,8.5068,8.6297,8.6829,8.7503,8.4579,8.0378,7.5969,0.0,0.0,0.0,5.6694,5.5359,5.3795,5.9509,6.5866,7.0159,7.6388,8.392,9.3237,9.4411,9.6472,10.2216,10.2803,10.3219,0.0,0.0,0.0,0.0,0.0,10.4793,10.4205,10.4596,10.5009,10.5386,10.4783,10.4615,10.4991,10.4083,10.3787,10.4199,10.3017,10.2402,10.2296,10.1285,10.0702,10.0187,0.0,0.0,9.9306,9.9549,9.969,9.9836,10.0509,10.0984,10.1296,10.0586,10.0287,10.018,0.0,0.0,0.0,0.0,0.0,0.0,0.0,3.7794,3.958,4.4705,4.6124,4.5325,4.1848,3.9914,3.8939,0.0,0.0,0.0,0.0,0.0,0.0,0.0,0.0,0.0,0.0,0.0,0.0,4.5745,4.6596,0.0,0.0,0.0,0.0,0.0,4.7009,4.7009,4.7009,4.7009,4.7009,0.0,0.0,4.7009,0.0,0.0,0.0,0.0,0.0,4.8609,5.1146,5.3713,5.9013,6.5355,7.0204,7.4383,7.7964,8.0297,8.2066,8.3914,8.6994,8.7857,8.8001,8.843,8.4743,7.9339,7.2957,6.7167,0.0,5.4717,5.2976,5.2636,5.2453,5.7613,6.3024,6.6468,7.2108,7.9504,8.9399,9.1096,9.4255,10.2097,10.2984,0.0,10.5191,10.4798,0.0,0.0,0.0,0.0,10.4779,10.5301,10.5707,10.6088,10.5703,10.5386,10.5321,10.4284,10.3881,10.3989,10.3201,10.2608,10.2002,10.1387,10.0783,9.9992,0.0,0.0,0.0,9.9675,9.9985,10.0208,10.0687,10.1199,10.1602,10.0815,10.0794,10.0914,0.0,0.0,0.0,0.0,0.0,0.0,0.0,3.9855,4.3658,5.0581,4.9556,4.7785,4.6633,4.4498,4.223,0.0,0.0,0.0,0.0,0.0,0.0,0.0,0.0,0.0,0.0,0.0,0.0,4.4911,4.6304,0.0,0.0,0.0,0.0,0.0,0.0,4.7009,4.7009,4.7009,0.0,0.0,0.0,0.0,0.0,0.0,0.0,0.0,0.0,4.7282,4.861,5.4545,5.7485,5.9805,6.6214,7.346,7.9449,7.9068,0.0,0.0,8.657,8.7857,8.8971,8.7977,8.3495,7.7952,7.2685,0.0,5.8439,5.3534,5.1181,5.0519,5.2105,5.5138,5.9816,6.7134,7.1652,7.802,8.8933,9.1949,9.5534,10.2208,0.0,0.0,10.6093,10.6192,0.0,0.0,0.0,0.0,10.6192,10.5816,10.5397,10.4989,10.5016,10.47,10.4192,10.4102,10.43,10.5001,10.3783,10.309,10.2896,10.2321,10.1511,10.0595,0.0,0.0,0.0,10.0912,10.0512,9.934,10.0713,10.1,10.0692,10.0186,10.0305,10.069,0.0,0.0,0.0,0.0,0.0,0.0,3.7959,3.995,4.3597,5.1178,5.1676,5.103,5.0121,4.794,4.4359,3.8987,0.0,0.0,0.0,0.0,0.0,0.0,0.0,0.0,0.0,0.0,0.0,4.553,4.6524,0.0,0.0,0.0,0.0,0.0,0.0,0.0,4.7009,0.0,0.0,0.0,0.0,0.0,0.0,0.0,0.0,0.0,0.0,0.0,4.8321,5.037,5.3369,5.6474,5.8033,6.4239,7.1816,7.6275,8.0322,8.3932,8.6453,8.8361,8.9463,8.8549,8.3563,7.7445,7.2059,0.0,5.7453,5.2789,5.1067,5.0826,5.2174,5.448,5.7864,6.301,6.5169,6.959,7.9368,8.218,8.6881,9.6889,9.9367,0.0,0.0,0.0,0.0,0.0,0.0,0.0,10.5885,10.5408,10.5194,10.5296,10.5001,10.4783,10.4584,10.4598,10.4699,10.5001,10.4617,10.4078,10.3583,10.2599,10.1606,10.0789,0.0,0.0,0.0,10.0788,10.1017,10.0495,10.1386,10.1703,10.1689,10.0917,10.0814,10.0901,0.0,0.0,0.0,0.0,0.0,3.2752,3.8042,4.0113,4.3705,5.0924,5.2276,5.2419,5.1999,4.8986,4.4906,3.9773,3.8999,0.0,0.0,0.0,0.0,0.0,0.0,0.0,0.0,0.0,0.0,4.5941,4.6906,4.7223,0.0,0.0,0.0,0.0,0.0,0.0,0.0,0.0,0.0,0.0,0.0,0.0,0.0,0.0,0.0,0.0,0.0,0.0,0.0,0.0,0.0,5.3535,5.2788,5.6818,6.3404,7.1696,7.7233,8.1497,8.5447,8.8159,8.9724,8.8826,8.3674,7.7339,7.1654,0.0,5.709,5.2589,5.1077,5.0966,5.2179,5.4047,5.6427,5.9673,6.1178,6.4947,7.3599,7.6365,8.1426,9.2118,0.0,9.8237,0.0,0.0,0.0,0.0,0.0,0.0,0.0,10.5199,10.5085,10.54,10.5208,10.4989,10.4912,10.47,10.4703,10.4703,10.4702,10.4214,10.3382,10.2485,10.1608,10.0812,0.0,0.0,0.0,10.0912,10.1193,10.0892,10.1796,10.2214,10.2211,10.129,10.1195,10.14,0.0,0.0,0.0,0.0,0.0,0.0,3.7458,4.0795,4.4817,5.0549,5.1073,5.1203,5.1994,4.7035,4.3575,4.3465,4.06,0.0,0.0,0.0,0.0,0.0,0.0,0.0,0.0,0.0,4.6611,4.5814,4.7402,4.7764,4.7009,4.78,4.7764,0.0,0.0,0.0,0.0,0.0,0.0,0.0,0.0,0.0,0.0,0.0,0.0,0.0,0.0,0.0,0.0,0.0,0.0,0.0,0.0,5.3437,5.5747,6.5142,7.3546,8.043,8.3182,8.6892,8.9698,8.8496,8.3602,7.7543,7.1649,6.4076,5.7157,5.3106,5.0964,5.0356,5.2082,5.3506,5.5369,5.8237,6.1744,6.6821,7.468,7.8079,8.2303,8.9228,9.1118,9.3786,9.8694,0.0,0.0,0.0,0.0,0.0,0.0,10.5199,10.4887,10.4887,10.5402,10.5388,10.4887,10.4395,10.4096,10.4096,10.3583,10.3003,10.2096,10.2096,10.1614,0.0,0.0,0.0,0.0,10.1509,10.1296,9.9999,10.1812,10.2203,10.1701,10.0902,10.1295,10.2215,0.0,0.0,0.0,0.0,0.0,0.0,0.0,3.7115,4.0397,4.4947,4.5828,4.7001,4.949,4.5597,4.2992,4.3529,4.0644,0.0,0.0,0.0,0.0,0.0,0.0,0.0,0.0,0.0,4.7396,4.8199,4.9817,5.018,4.9388,4.9638,4.9073,4.78,0.0,0.0,0.0,0.0,0.0,0.0,0.0,0.0,0.0,0.0,0.0,0.0,0.0,0.0,0.0,0.0,0.0,0.0,0.0,0.0,0.0,5.7253,6.5223,7.3039,7.5456,7.9329,8.2076,7.9481,7.6213,7.2336,6.739,6.2292,5.7397,5.322,5.1894,5.1861,5.2947,5.3514,5.5686,6.1498,6.318,6.5909,7.2143,7.7061,8.2271,8.8214,9.6515,10.2385,0.0,0.0,0.0,0.0,0.0,0.0,0.0,10.5004,10.5001,10.5388,10.4899,10.4501,10.4407,10.4216,10.4096,10.4096,10.4514,10.418,10.3419,10.2521,0.0,0.0,0.0,0.0,0.0,10.0907,10.1213,10.0911,10.1787,10.2212,10.2196,10.1692,10.1887,10.2206,0.0,0.0,0.0,0.0,0.0,0.0,0.0,3.4912,3.7532,4.0714,4.1926,4.3738,4.6971,4.3637,4.183,4.3478,4.0664,0.0,0.0,0.0,0.0,0.0,0.0,0.0,0.0,4.5891,4.7747,5.0197,5.1773,5.2451,5.2308,5.2886,5.1714,4.9043,4.8538,0.0,0.0,0.0,0.0,0.0,0.0,0.0,4.7009,0.0,0.0,0.0,0.0,0.0,0.0,0.0,0.0,0.0,0.0,0.0,0.0,0.0,5.8323,6.4704,6.9562,7.4215,7.7265,7.5418,7.2651,6.9318,6.5318,6.0944,5.6755,5.3425,5.2498,5.2543,5.3299,5.3673,5.5476,6.0293,6.1897,6.4476,7.0027,7.5666,0.0,8.8851,0.0,0.0,0.0,0.0,0.0,0.0,0.0,0.0,0.0,10.4912,10.4989,10.5296,10.47,10.4419,10.4419,10.4192,10.4096,10.4096,10.4395,10.3911,10.2805,10.1997,0.0,0.0,0.0,0.0,0.0,10.0398,10.0918,10.1011,10.1584,10.2004,10.2195,10.168,10.199,10.2506,0.0,0.0,0.0,0.0,0.0,0.0,0.0,3.4028,3.6065,3.7735,3.9246,4.1303,4.4287,4.1259,4.0153,4.2956,0.0,0.0,0.0,0.0,0.0,0.0,0.0,0.0,0.0,4.5427,4.7788,5.1714,5.3421,5.4663,5.5477,5.7032,5.5212,5.0667,5.0596,0.0,0.0,0.0,0.0,0.0,4.7009,4.7009,0.0,0.0,0.0,0.0,0.0,0.0,0.0,0.0,0.0,0.0,0.0,0.0,0.0,0.0,0.0,0.0,0.0,7.0403,7.3948,7.4173,7.1269,6.7532,6.442,5.9784,0.0,5.3706,5.283,5.2648,5.3433,5.4033,5.4907,5.6356,5.9163,6.3121,0.0,7.4828,0.0,0.0,9.6703,0.0,0.0,0.0,0.0,0.0,0.0,0.0,0.0,10.4889,10.4782,10.4782,10.4795,10.4795,10.4782,10.4288,10.412,10.3988,10.3594,10.2608,10.1084,10.1013,0.0,0.0,0.0,0.0,0.0,10.0007,10.0391,10.0488,10.1095,10.1581,10.1813,10.1002,10.1703,10.2817,0.0,0.0,0.0,0.0,0.0,0.0,0.0,0.0,0.0,0.0,3.6817,3.8329,3.9655,3.8824,3.8461,0.0,0.0,0.0,0.0,0.0,0.0,0.0,0.0,0.0,0.0,4.5801,4.8453,5.1714,5.5198,5.7222,5.7896,5.8902,5.6847,5.2292,5.1679,4.9751,0.0,0.0,0.0,0.0,4.7009,4.7009,0.0,0.0,0.0,0.0,4.7704,4.8625,0.0,0.0,0.0,0.0,0.0,0.0,0.0,0.0,5.0966,5.2367,5.5056,0.0,6.1894,6.008,5.9868,5.9569,0.0,5.6671,0.0,0.0,0.0,5.396,5.5991,5.4915,5.5818,0.0,0.0,6.6443,7.1896,0.0,0.0,9.788,0.0,0.0,0.0,0.0,0.0,0.0,0.0,0.0,0.0,10.4514,10.4312,10.4312,10.389,10.3914,10.43,10.3804,10.358,10.358,10.3504,10.2893,10.1917,10.1298,0.0,0.0,0.0,0.0,9.9352,9.9546,9.9887,10.0314,10.0395,10.0619,10.0591,10.0709,10.119,10.1704,0.0,0.0,0.0,0.0,0.0,0.0,0.0,0.0,0.0,0.0,0.0,0.0,0.0,0.0,0.0,0.0,0.0,0.0,0.0,0.0,0.0,0.0,0.0,0.0,4.349,4.5529,4.8597,5.2772,5.6065,5.8773,6.0872,6.1307,5.8988,5.4398,5.1399,4.8936,0.0,0.0,0.0,0.0,4.7009,0.0,0.0,0.0,0.0,0.0,4.7891,4.8791,0.0,5.1005,5.1952,5.2752,0.0,0.0,0.0,0.0,4.9457,4.9894,5.0735,5.4617,5.82,5.7196,5.745,5.7698,5.6809,5.5914,5.4923,0.0,0.0,5.4235,5.5821,5.5263,0.0,0.0,6.4697,0.0,0.0,0.0,9.4692,10.0901,0.0,0.0,0.0,0.0,0.0,0.0,0.0,0.0,0.0,10.4288,10.3987,10.3791,10.3495,10.3495,10.3815,10.3495,10.3393,10.3393,10.3,10.2417,10.1584,10.0799,0.0,0.0,0.0,0.0,9.9271,9.9502,9.9752,9.9988,10.0207,10.0204,10.0201,10.0416,10.0813,10.1098,0.0,0.0,0.0,0.0,0.0,0.0,0.0,0.0,0.0,0.0,0.0,0.0,0.0,0.0,0.0,0.0,0.0,0.0,0.0,0.0,0.0,0.0,0.0,4.2792,4.3847,4.5158,4.8478,5.3836,5.6624,5.9845,6.3428,6.3884,6.135,5.6175,5.1042,4.8086,0.0,0.0,0.0,0.0,4.7026,0.0,0.0,0.0,0.0,0.0,0.0,0.0,0.0,5.32,5.4358,5.4674,5.4369,0.0,0.0,0.0,0.0,0.0,5.0076,5.4452,5.8618,5.8346,5.8233,5.8035,5.7719,5.5731,5.3888,0.0,0.0,0.0,5.5268,5.6119,0.0,0.0,0.0,0.0,8.5066,9.0783,9.5886,10.1916,0.0,0.0,0.0,0.0,0.0,0.0,0.0,0.0,0.0,10.4011,0.0,10.3405,10.3393,10.3309,10.3214,10.3214,10.3214,10.3214,10.2381,10.1596,10.0799,10.0192,0.0,0.0,0.0,0.0,9.912,9.9549,9.973,9.982,10.0093,10.0182,10.0204,10.0204,10.0384,10.0802,0.0,0.0,0.0,0.0,0.0,0.0,0.0,0.0,0.0,0.0,0.0,0.0,0.0,0.0,0.0,0.0,0.0,0.0,0.0,0.0,0.0,0.0,4.2297,4.3297,4.5386,4.5793,4.8303,5.3077,5.7542,6.0997,6.3456,6.6133,6.3456,5.6247,5.2714,4.9615,4.7009,0.0,0.0,4.7015,4.7117,0.0,0.0,0.0,0.0,0.0,0.0,0.0,0.0,4.9952,5.1663,5.3631,5.1642,0.0,0.0,0.0,0.0,0.0,5.2925,5.6506,5.8288,5.3592,5.401,5.5171,5.3691,5.3616,5.3812,5.3676,0.0,0.0,0.0,5.9601,6.19,0.0,0.0,0.0,0.0,0.0,0.0,0.0,0.0,0.0,0.0,0.0,0.0,0.0,0.0,0.0,0.0,0.0,0.0,10.3393,10.3393,10.3107,10.2381,10.2381,10.2381,10.2394,10.1596,10.0799,10.0097,9.9942,9.9455,0.0,0.0,9.8896,9.9121,9.9167,9.9457,9.9809,9.9842,10.0002,10.0204,10.0204,10.0212,10.0308,0.0,0.0,0.0,0.0,0.0,0.0,0.0,0.0,0.0,0.0,0.0,0.0,0.0,0.0,0.0,0.0,0.0,0.0,0.0,0.0,0.0,4.4725,4.4434,4.4714,4.5784,4.8388,5.1997,5.6668,6.1053,6.4796,6.7846,6.5883,6.1672,5.5591,5.1987,4.9139,4.7009,4.7009,4.7043,4.7117,0.0,0.0,0.0,0.0,0.0,0.0,0.0,0.0,0.0,0.0,5.2609,5.4205,5.2236,0.0,0.0,0.0,0.0,0.0,5.2086,5.4696,5.6593,5.5364,5.7302,5.8964,5.6789,5.6369,0.0,0.0,0.0,0.0,0.0,0.0,0.0,0.0,0.0,0.0,0.0,0.0,0.0,0.0,0.0,0.0,0.0,0.0,0.0,0.0,0.0,0.0,0.0,0.0,0.0,0.0,10.3393,10.3,10.2203,10.181,10.1596,10.1512,10.0811,10.0192,9.9883,9.9455,9.9182,9.9073,0.0,9.9131,9.9772,9.9559,9.9862,10.0499,10.0311,10.0318,10.0481,10.0303,10.0204,10.0281,0.0,0.0,0.0,0.0,0.0,0.0,0.0,0.0,0.0,0.0,0.0,0.0,0.0,0.0,0.0,0.0,0.0,0.0,0.0,0.0,4.2323,4.576,4.6182,4.7039,4.8532,5.1935,5.6211,6.13,6.5046,6.8623,7.1843,6.5883,6.0494,5.5591,5.163,4.8794,4.7049,4.7049,4.7117,4.7234,0.0,0.0,0.0,0.0,0.0,0.0,0.0,0.0,0.0,0.0,0.0,0.0,0.0,0.0,0.0,5.0949,5.0292,5.0934,5.236,5.4222,5.6234,5.8133,0.0,6.1781,6.1155,0.0,0.0,0.0,0.0,0.0,0.0,6.8737,0.0,0.0,0.0,0.0,0.0,0.0,0.0,0.0,0.0,0.0,0.0,0.0,0.0,0.0,0.0,0.0,0.0,0.0,0.0,0.0,10.3107,10.2595,10.1703,10.1096,10.0692,10.0692,9.999,9.9633,9.9598,9.8967,9.8896,9.9225,9.8849,9.9282,10.0213,9.9907,10.0315,10.11,10.0791,10.0791,10.0913,10.06,10.0395,10.0387,0.0,0.0,0.0,0.0,0.0,0.0,0.0,0.0,0.0,0.0,0.0,0.0,0.0,0.0,0.0,0.0,0.0,0.0,0.0,0.0,4.0783,4.2547,4.6086,5.0763,5.6611,5.6354,5.9166,6.5375,6.8579,7.1049,7.2628,6.7802,6.2628,5.7253,5.3285,4.9925,4.7173,4.7173,4.724,4.7309,4.7423,0.0,0.0,0.0,0.0,0.0,0.0,0.0,0.0,0.0,0.0,0.0,0.0,0.0,5.495,5.3771,5.3438,5.4046,5.6919,5.8441,5.926,5.9306,5.8546,0.0,6.4031,6.3368,0.0,6.6451,0.0,0.0,0.0,0.0,0.0,0.0,0.0,0.0,0.0,0.0,0.0,0.0,0.0,0.0,0.0,0.0,0.0,0.0,0.0,0.0,0.0,0.0,0.0,0.0,0.0,10.1596,10.0097,10.0014,9.9978,9.9978,9.9181,9.8789,9.8789,9.8717,9.8706,9.8742,9.8706,9.9096,9.9759,9.9725,10.0315,10.1095,10.11,10.1187,10.1417,10.1387,10.111,10.0791,0.0,0.0,0.0,0.0,0.0,0.0,0.0,0.0,0.0,0.0,0.0,0.0,0.0,0.0,0.0,0.0,0.0,0.0,0.0,0.0,4.1278,4.4357,4.7319,5.1137,5.599,5.9659,6.4832,7.1656,7.3797,7.3904,7.1986,6.6276,6.0922,5.5955,5.2493,5.0305,4.918,4.8254,4.8531,4.9435,4.8123,4.785,0.0,0.0,0.0,0.0,0.0,0.0,0.0,0.0,5.1764,5.3406,5.1595,5.3278,5.5438,5.292,5.2837,5.3801,5.4865,5.6825,5.9008,6.0645,6.1338,0.0,0.0,6.678,0.0,0.0,0.0,0.0,0.0,0.0,0.0,0.0,0.0,0.0,0.0,0.0,0.0,0.0,0.0,0.0,0.0,0.0,0.0,0.0,0.0,0.0,0.0,0.0,0.0,0.0,0.0,10.0989,9.9907,9.9907,9.9633,9.9134,9.886,9.8682,9.8682,9.8682,9.8861,9.9131,9.8825,9.9339,10.0416,9.994,10.0491,10.169,10.169,10.1617,10.1504,10.1504,10.1403,10.1219,0.0,0.0,0.0,0.0,0.0,0.0,0.0,0.0,0.0,0.0,0.0,0.0,0.0,0.0,0.0,0.0,0.0,0.0,3.8694,3.9265,4.1007,4.4257,4.6825,5.0518,5.5484,6.1514,6.7572,7.3717,7.6259,7.526,7.0835,6.5241,6.0637,5.6911,5.3236,5.1781,5.1976,4.9949,4.9684,5.0492,4.8536,4.7911,0.0,0.0,0.0,0.0,0.0,0.0,0.0,0.0,5.1399,5.2816,5.176,5.3507,5.5586,5.3722,5.3906,5.463,5.4294,5.5944,5.8275,6.0387,0.0,0.0,6.7873,7.0879,7.4385,0.0,0.0,0.0,0.0,0.0,0.0,0.0,0.0,0.0,0.0,0.0,0.0,0.0,0.0,0.0,0.0,0.0,0.0,0.0,0.0,0.0,0.0,0.0,0.0,0.0,0.0,10.0311,9.9526,9.9526,9.9098,9.8325,9.8575,9.8682,9.8682,9.8682,9.8872,9.9178,9.892,9.9431,10.0409,10.0118,10.0682,10.1883,10.1883,10.1795,10.1684,10.1517,10.1504,10.1407,0.0,0.0,0.0,0.0,0.0,0.0,0.0,0.0,0.0,0.0,0.0,0.0,0.0,0.0,0.0,0.0,0.0,0.0,3.8002,3.8487,3.9537,4.1207,4.4191,4.9103,5.614,6.1692,6.6509,7.0514,7.5153,7.4618,6.9141,6.5197,6.2528,6.0843,5.6155,5.4623,5.5365,5.2123,5.0501,5.0003,4.8447,4.7767,4.7783,0.0,0.0,0.0,0.0,0.0,0.0,0.0,5.1016,5.1106,5.5004,5.5699,5.5337,5.6989,5.7385,5.7116,5.6322,5.6682,5.7492,0.0,0.0,0.0,7.3761,7.5772,7.8399,0.0,0.0,0.0,0.0,0.0,0.0,0.0,0.0,0.0,0.0,0.0,0.0,0.0,0.0,0.0,0.0,0.0,0.0,0.0,0.0,0.0,0.0,0.0,0.0,0.0,0.0,0.0,9.8729,9.8682,9.8289,9.7528,9.8325,9.8682,9.8682,9.8682,9.8682,9.8694,9.8979,9.9329,9.9748,10.0213,10.0813,10.1504,10.1504,10.1716,10.2102,10.1711,10.1514,10.1407,0.0,0.0,0.0,0.0,0.0,0.0,0.0,0.0,0.0,0.0,0.0,0.0,0.0,0.0,0.0,0.0,0.0,0.0,3.7943,3.8519,3.9303,4.0256,4.3832,4.6778,4.8889,5.5455,6.2949,7.1344,7.1612,6.9221,6.4348,6.2021,5.9801,5.7774,5.7439,5.6608,5.5327,5.332,5.2456,5.2238,5.024,4.9221,4.9014,0.0,0.0,0.0,0.0,0.0,0.0,0.0,0.0,0.0,5.2612,5.4712,5.6697,5.5911,5.6449,5.6968,5.5506,5.6894,0.0,6.2134,0.0,0.0,0.0,8.0602,0.0,0.0,0.0,0.0,0.0,0.0,0.0,0.0,0.0,0.0,0.0,0.0,0.0,0.0,0.0,0.0,0.0,0.0,0.0,0.0,0.0,0.0,0.0,0.0,0.0,0.0,0.0,0.0,9.8682,9.8682,9.8575,9.8361,9.8575,9.8396,9.7897,9.8432,9.8682,9.8694,9.8979,9.9261,9.9557,10.0406,10.0808,10.0991,10.1393,10.1716,10.2096,10.2202,10.2079,10.1922,0.0,0.0,0.0,0.0,0.0,0.0,0.0,0.0,0.0,0.0,3.5566,3.6331,0.0,0.0,0.0,0.0,0.0,0.0,0.0,3.8587,3.9414,4.0414,4.3058,4.5793,4.8574,5.4342,5.988,6.5161,6.576,6.4126,6.0466,6.1022,6.0693,5.9737,6.1696,6.1119,5.8603,5.6479,5.5034,5.397,5.1927,5.0873,5.0551,0.0,0.0,0.0,0.0,0.0,0.0,0.0,0.0,0.0,5.1757,5.3814,5.5969,5.5577,5.6342,5.7159,5.6456,5.8319,0.0,6.5453,7.0042,7.5632,8.36,0.0,0.0,0.0,0.0,0.0,0.0,0.0,0.0,0.0,0.0,0.0,0.0,0.0,0.0,0.0,0.0,0.0,0.0,0.0,0.0,0.0,0.0,0.0,0.0,0.0,0.0,0.0,0.0,0.0,9.8682,9.8396,9.8075,9.7754,9.8075,9.7778,9.7064,9.8182,9.8682,9.8694,9.8979,9.9342,9.9741,10.0195,10.0391,10.0387,10.0797,10.1188,10.1517,10.1918,10.1914,10.1714,0.0,0.0,2.915,2.9888,0.0,0.0,0.0,0.0,0.0,0.0,3.4367,3.5128,0.0,0.0,0.0,0.0,0.0,0.0,0.0,0.0,3.9758,4.1237,4.2409,4.6008,5.2441,5.5983,5.669,5.4556,5.8595,5.9388,5.7253,6.1287,6.3635,6.4507,6.698,6.6334,6.3205,5.999,5.7178,5.4702,5.3145,5.2258,5.1885,5.2097,0.0,0.0,0.0,0.0,0.0,0.0,0.0,0.0,5.2173,5.3231,5.4148,5.5711,5.6775,5.7635,5.855,6.0481,6.3435,6.8598,7.3221,0.0,8.8086,9.1838,9.4135,9.6601,0.0,0.0,0.0,0.0,0.0,0.0,0.0,0.0,0.0,0.0,0.0,0.0,0.0,0.0,0.0,0.0,0.0,0.0,0.0,0.0,0.0,0.0,0.0,0.0,0.0,0.0,9.8575,9.779,9.7064,0.0,9.7064,9.71,9.6564,9.8039,9.8718,9.8765,9.9026,9.9526,10.0193,9.9898,9.9797,9.982,10.0105,10.0206,10.0415,10.1093,10.1089,10.0902,0.0,0.0,3.0042,3.0799,0.0,0.0,0.0,0.0,0.0,0.0,0.0,0.0,0.0,0.0,0.0,0.0,0.0,0.0,0.0,0.0,3.9791,4.1308,4.503,4.8011,5.0019,5.0322,5.0221,4.9728,5.4242,5.5604,5.4011,5.9173,6.2104,6.3089,6.4692,6.3536,6.0092,5.6155,5.3207,5.1257,5.165,5.1104,5.0159,5.1094,5.0488,0.0,0.0,0.0,0.0,0.0,0.0,0.0,5.3031,5.4238,5.4931,5.5322,5.6848,5.8587,5.9425,6.1729,6.57,7.3283,8.1392,8.8559,9.2607,9.477,9.6302,9.7678,9.8519,0.0,0.0,0.0,0.0,0.0,0.0,0.0,0.0,0.0,0.0,0.0,0.0,0.0,0.0,0.0,0.0,0.0,0.0,0.0,0.0,0.0,0.0,0.0,0.0,9.7742,9.7742,9.6957,9.6778,0.0,9.6778,9.7135,9.8218,9.8539,9.8896,9.9271,9.9318,9.965,10.0193,9.9898,9.9797,9.9809,9.9853,9.9985,10.0304,10.0995,10.0996,10.0597,0.0,0.0,0.0,0.0,0.0,0.0,0.0,0.0,0.0,0.0,0.0,0.0,0.0,0.0,0.0,0.0,0.0,0.0,0.0,0.0,4.0761,4.3041,4.6779,4.8591,4.8211,4.8187,4.802,4.7621,4.9674,5.1458,0.0,5.783,6.1326,6.3594,6.4913,6.3398,5.9627,5.6458,5.4134,5.2582,5.2602,5.2324,5.1912,5.2089,5.087,4.9077,4.9119,0.0,0.0,0.0,0.0,0.0,0.0,0.0,5.4619,5.4986,5.6546,5.8544,6.0545,6.4189,6.9643,7.8921,8.6344,9.1866,9.398,9.5623,9.6971,9.7885,9.926,0.0,0.0,0.0,0.0,0.0,0.0,0.0,0.0,0.0,0.0,0.0,0.0,0.0,0.0,0.0,0.0,0.0,0.0,0.0,0.0,0.0,0.0,0.0,9.7718,9.7492,9.7492,9.635,9.616,9.6921,9.6124,9.6386,9.7564,9.8361,9.8884,9.9236,9.9236,9.9456,9.9833,9.9797,9.9662,9.9503,9.9707,9.973,9.9739,10.0782,10.0688,10.0289,0.0,0.0,0.0,0.0,0.0,0.0,0.0,0.0,0.0,0.0,0.0,0.0,0.0,0.0,0.0,0.0,0.0,0.0,0.0,0.0,0.0,4.4854,4.7367,4.8187,4.7045,4.7366,4.7407,4.7009,4.6177,0.0,0.0,0.0,6.0776,6.4467,6.498,6.3221,5.9754,5.6927,5.5063,5.3939,5.3239,5.3136,5.3324,5.2881,0.0,0.0,4.9119,4.9662,5.0352,5.0516,0.0,0.0,0.0,0.0,5.3966,5.4631,5.6107,5.8135,6.1139,6.6943,7.4443,8.3948,8.9235,9.2519,9.4172,9.5686,9.6942,9.7723,9.9081,0.0,0.0,0.0,0.0,0.0,0.0,0.0,0.0,0.0,0.0,0.0,0.0,0.0,0.0,0.0,0.0,0.0,0.0,0.0,9.8289,9.8432,9.8111,9.7314,9.7171,9.71,9.71,9.5708,9.5387,9.6089,9.5625,9.5648,9.6194,9.767,9.8598,9.8976,9.9011,9.9187,9.9466,9.9662,9.949,9.9191,9.957,9.9479,9.9271,10.039,10.0383,9.9974,0.0,0.0,0.0,0.0,0.0,0.0,0.0,0.0,0.0,0.0,3.7892,3.7933,0.0,3.8041,3.8078,3.8182,3.8186,3.8144,3.8019,0.0,0.0,4.4728,4.5842,4.6605,4.6973,4.5749,4.5707,4.7009,0.0,0.0,0.0,0.0,0.0,6.3728,0.0,5.9382,5.8106,5.2299,4.9397,4.8793,4.9694,4.9588,4.9014,0.0,0.0,0.0,0.0,0.0,5.0462,5.106,5.1994,0.0,0.0,0.0,5.4005,5.4117,5.572,5.7913,5.9728,6.897,7.9534,8.5777,9.0235,9.3556,9.5221,0.0,9.6942,0.0,0.0,0.0,0.0,0.0,0.0,0.0,0.0,0.0,0.0,0.0,0.0,0.0,0.0,0.0,0.0,0.0,0.0,0.0,0.0,0.0,9.6707,9.7278,9.7278,9.6481,9.5839,9.553,9.553,9.4613,9.4577,9.534,9.5875,9.5955,9.5637,9.6556,9.7482,9.8416,9.8573,9.9083,9.9741,9.9548,9.9433,9.9375,9.9444,9.9433,9.9444,10.0102,10.0113,9.9865,0.0,0.0,0.0,0.0,0.0,0.0,0.0,0.0,0.0,0.0,0.0,3.8186,3.8186,3.8186,3.8186,3.8186,3.8186,3.8538,3.9301,4.0725,4.2281,4.4057,4.4916,4.5435,4.5641,4.456,4.4524,4.5672,0.0,0.0,0.0,5.6492,5.9688,0.0,0.0,0.0,0.0,5.1704,4.925,4.9061,4.9149,4.971,0.0,0.0,0.0,0.0,0.0,0.0,0.0,0.0,0.0,5.3474,5.387,0.0,0.0,0.0,5.5277,5.8157,6.4278,7.1362,7.8685,8.5648,8.9598,9.2326,9.4476,9.5503,9.6392,9.7649,0.0,0.0,0.0,0.0,0.0,0.0,0.0,0.0,0.0,0.0,0.0,0.0,0.0,0.0,0.0,0.0,0.0,0.0,0.0,9.7064,9.6339,9.6636,9.6493,9.5696,9.5375,9.5208,9.5208,9.4399,9.4185,9.4542,9.4953,9.5079,9.4834,9.5485,9.6664,9.8235,9.8337,9.8562,9.8945,9.94,9.9216,9.8626,9.9345,9.9456,9.9271,9.9811,9.9887,9.9831,0.0,0.0,0.0,0.0,0.0,0.0,0.0,0.0,0.0,0.0,0.0,3.8186,3.8186,0.0,0.0,0.0,3.8186,3.8751,4.0018,4.0783,4.1768,4.2951,4.3744,4.4121,4.403,4.349,4.3561,0.0,0.0,0.0,5.5594,5.6897,6.059,0.0,6.1336,0.0,0.0,0.0,0.0,0.0,0.0,0.0,0.0,0.0,0.0,0.0,0.0,0.0,0.0,0.0,0.0,0.0,0.0,0.0,0.0,0.0,0.0,5.7818,6.6289,7.1015,7.5457,8.3224,8.7512,9.0526,9.3206,0.0,9.5363,0.0,0.0,0.0,0.0,0.0,0.0,0.0,0.0,0.0,0.0,0.0,0.0,0.0,0.0,0.0,0.0,0.0,0.0,0.0,0.0,9.6124,9.5744,9.591,9.5672,9.4923,9.4709,9.4602,9.4602,9.4006,9.3792,9.3982,9.4209,9.4354,9.4432,9.4828,9.6029,9.7804,9.7736,9.7777,9.7995,9.9015,9.8833,9.8021,9.9316,9.957,9.933,9.9766,9.9887,9.9946,0.0,0.0,0.0,0.0,0.0,0.0,0.0,0.0,0.0,0.0,0.0,3.8186,3.8186,3.8186,3.8186,3.8186,3.8186,3.8506,3.921,3.9839,4.0551,4.1395,4.2078,0.0,4.2404,4.2369,0.0,0.0,0.0,0.0,5.6669,5.8752,6.3238,6.9365,6.4792,6.1383,5.8824,0.0,0.0,0.0,0.0,0.0,0.0,0.0,0.0,0.0,0.0,0.0,0.0,0.0,0.0,0.0,0.0,0.0,0.0,0.0,0.0,0.0,6.1431,6.5764,7.0547,7.7673,8.3593,8.8517,9.1761,0.0,9.3774,9.5682,0.0,0.0,0.0,0.0,0.0,0.0,0.0,0.0,0.0,0.0,0.0,0.0,0.0,0.0,0.0,0.0,0.0,0.0,0.0,9.5672,9.4196,9.4851,9.4887,9.4089,9.3328,9.2924,9.2924,9.2889,9.3257,9.3982,9.4209,9.4443,9.47,9.4893,9.5635,9.6659,9.6423,9.6637,9.7239,9.8042,9.8181,9.8021,9.9316,9.9786,9.9797,10.0105,10.0193,10.0193,0.0,0.0,0.0,0.0,0.0,0.0,0.0,0.0,0.0,0.0,0.0,0.0,0.0,3.8186,3.8186,3.8186,3.8132,3.8406,3.9152,3.9809,4.0496,4.1268,4.2016,4.2399,4.2297,4.2297,0.0,0.0,0.0,4.828,5.4317,5.7294,6.1257,6.5771,6.3081,6.1487,6.0389,5.3965,0.0,0.0,0.0,0.0,0.0,0.0,0.0,0.0,0.0,0.0,0.0,0.0,0.0,0.0,0.0,0.0,0.0,0.0,0.0,5.6667,6.0425,6.33,6.6957,7.4083,7.9273,8.3754,8.8087,9.0712,9.2758,9.455,0.0,0.0,0.0,0.0,0.0,0.0,0.0,0.0,0.0,0.0,0.0,0.0,0.0,0.0,0.0,0.0,0.0,0.0,0.0,0.0,9.4018,9.4256,9.4292,9.4018,9.3221,9.2532,9.2032,9.2532,9.2936,9.3221,9.3958,9.4443,9.4722,9.4904,9.5284,9.5797,9.5541,9.5957,9.6816,9.7457,9.7659,9.7689,9.8647,9.9364,9.982,10.0091,10.0204,10.0204,0.0,0.0,0.0,0.0,0.0,0.0,0.0,0.0,0.0,0.0,0.0,0.0,0.0,0.0,3.8806,3.8523,3.8491,3.8516,3.8694,3.9629,4.0376,4.0815,4.1853,4.2399,4.2297,4.2297,0.0,0.0,0.0,0.0,0.0,5.5545,5.9306,6.326,6.0856,6.0955,0.0,0.0,0.0,5.3609,0.0,0.0,5.4399,0.0,0.0,0.0,0.0,0.0,0.0,0.0,0.0,0.0,0.0,0.0,0.0,0.0,0.0,0.0,5.9123,6.0969,6.4033,7.1847,7.5218,7.8471,8.5275,8.7961,8.9676,9.2139,9.2394,0.0,0.0,0.0,0.0,0.0,0.0,0.0,0.0,0.0,0.0,0.0,0.0,0.0,0.0,0.0,0.0,0.0,0.0,0.0,9.4018,9.4018,9.3757,9.3221,9.2436,9.1783,9.1247,9.1997,9.2532,9.2829,9.3815,9.441,9.4565,9.4871,9.5097,9.5246,9.5172,9.5508,9.6104,9.6748,9.7108,9.7402,9.8362,9.9178,9.982,10.0091,10.0204,10.0204,0.0,0.0,0.0,0.0,0.0,0.0,0.0,0.0,0.0,0.0,0.0,0.0,0.0,0.0,0.0,3.9279,3.9368,3.8994,3.7851,3.9304,4.0128,3.9968,4.1471,4.2333,4.2333,4.2333,0.0,0.0,0.0,0.0,0.0,0.0,5.7727,6.2321,5.8518,5.9915,6.5076,0.0,6.2012,6.0441,0.0,5.6513,5.7665,0.0,0.0,0.0,6.221,6.1639,0.0,0.0,0.0,0.0,0.0,0.0,0.0,0.0,0.0,0.0,0.0,0.0,0.0,7.0543,7.1417,7.2833,8.3215,8.4325,8.4287,8.834,8.9758,0.0,0.0,0.0,0.0,0.0,0.0,0.0,0.0,0.0,0.0,0.0,0.0,0.0,0.0,0.0,0.0,0.0,0.0,9.3982,9.4018,9.3982,9.3221,9.164,9.089,9.0498,9.0462,9.1201,9.1961,9.2793,9.3768,9.4274,9.4307,9.4784,9.499,9.5011,9.5267,9.5235,9.5084,9.5841,9.654,9.7235,9.8472,9.9312,9.9842,10.0091,10.0204,10.0204,0.0,0.0,0.0,0.0,0.0,0.0,0.0,0.0,0.0,0.0,0.0,0.0,0.0,0.0,4.1924,4.1789,4.1658,4.0979,3.9615,4.0362,4.0877,4.0922,4.2354,4.3174,4.3174,4.3174,0.0,0.0,0.0,0.0,0.0,0.0,0.0,0.0,5.7675,5.8355,5.92,5.5371,0.0,0.0,5.5595,5.69,0.0,0.0,0.0,0.0,0.0,6.4008,0.0,0.0,6.1433,5.9572,0.0,0.0,0.0,0.0,0.0,0.0,5.6729,0.0,0.0,0.0,0.0,0.0,7.2613,7.522,7.7982,8.3118,8.4328,0.0,0.0,0.0,0.0,0.0,0.0,0.0,0.0,0.0,0.0,0.0,0.0,0.0,0.0,0.0,0.0,0.0,9.315,9.34,9.3982,9.3435,9.2639,9.164,9.089,9.0212,8.9631,9.0416,9.1176,9.1925,9.2814,9.358,9.4285,9.4419,9.4697,9.5011,9.5076,9.5172,9.5293,9.5329,9.6231,9.763,9.7778,9.8761,10.0091,10.0193,10.0204,10.0204,0.0,0.0,0.0,3.9047,0.0,0.0,0.0,0.0,0.0,0.0,0.0,0.0,0.0,0.0,0.0,4.3714,4.3484,4.2623,4.0714,4.0963,4.1174,4.123,4.2665,4.349,4.349,4.3806,4.3811,0.0,0.0,0.0,0.0,0.0,0.0,0.0,5.3798,5.4481,0.0,0.0,0.0,0.0,5.8148,0.0,0.0,6.418,6.5814,0.0,0.0,0.0,6.778,6.7061,6.4951,0.0,0.0,0.0,0.0,0.0,0.0,0.0,0.0,0.0,0.0,0.0,0.0,0.0,6.8507,7.03,7.2517,0.0,8.0248,8.2278,0.0,0.0,0.0,0.0,0.0,0.0,0.0,0.0,0.0,0.0,0.0,0.0,0.0,0.0,0.0,9.2282,9.2282,9.2496,9.2971,9.2258,9.164,9.1176,9.038,8.9773,8.9309,9.0094,9.0712,9.1129,9.1925,9.2789,9.3674,9.3775,9.4209,9.4871,9.4968,9.5151,9.5398,9.5225,9.5942,9.7156,9.7326,9.8261,9.9576,9.999,10.0204,10.0204,0.0,0.0,3.883,4.037,4.1442,4.2383,0.0,0.0,0.0,0.0,0.0,0.0,0.0,0.0,0.0,0.0,4.5305,4.4221,4.1762,4.1577,4.1521,4.1502,4.2848,4.3668,4.374,4.4417,4.4412,0.0,0.0,0.0,0.0,0.0,0.0,0.0,4.8675,4.9674,0.0,0.0,0.0,5.8434,6.2188,6.5156,0.0,0.0,7.1901,0.0,7.3852,7.3619,7.277,7.1027,6.7939,0.0,0.0,0.0,0.0,0.0,5.836,0.0,0.0,0.0,0.0,0.0,0.0,0.0,6.7627,6.7618,6.7881,0.0,7.6431,7.875,8.3395,0.0,0.0,0.0,0.0,0.0,0.0,0.0,0.0,0.0,0.0,0.0,0.0,9.1497,9.1497,9.1497,9.1557,9.1568,9.1486,9.0855,9.0462,9.0391,8.9666,8.9309,8.9309,9.0023,9.0427,9.0498,9.1176,9.1925,9.2793,9.3041,9.3704,9.4689,9.4871,9.5108,9.5377,9.5377,9.5695,9.6318,9.7015,9.7856,9.8745,9.9704,10.0096,10.0204,3.7824,3.8617,3.9663,4.1202,4.3107,0.0,0.0,0.0,0.0,0.0,0.0,0.0,0.0,0.0,0.0,0.0,4.8709,4.6804,4.4999,4.3761,4.3332,4.3882,4.4234,4.4703,4.535,4.5493,4.5493,0.0,0.0,0.0,0.0,0.0,0.0,0.0,4.7563,4.7809,0.0,0.0,0.0,5.6429,5.9855,0.0,7.0462,7.0684,7.2612,7.5299,7.5889,7.5998,7.5486,0.0,7.002,6.6512,0.0,0.0,0.0,0.0,0.0,0.0,0.0,0.0,0.0,0.0,0.0,0.0,6.1031,6.212,6.4754,0.0,6.9333,7.112,7.7223,7.9634,0.0,0.0,0.0,0.0,0.0,0.0,0.0,0.0,0.0,0.0,0.0,9.0712,9.0712,9.0712,9.1272,9.1354,9.0748,9.0569,9.0201,8.9559,8.9381,8.9309,8.9309,8.9452,8.9845,9.0498,9.0641,9.1461,9.2793,9.2838,9.3424,9.441,9.4642,9.4871,9.5076,9.5076,9.5631,9.653,9.6685,9.7652,9.8965,9.9154,9.9636,10.0204,3.8621,3.9375,4.0705,4.309,0.0,0.0,0.0,0.0,0.0,0.0,0.0,0.0,0.0,0.0,0.0,0.0,0.0,0.0,0.0,0.0,4.4198,4.459,4.4988,4.5565,4.6397,4.6397,4.6397,4.6397,0.0,0.0,0.0,0.0,0.0,0.0,0.0,0.0,0.0,0.0,5.3585,5.6165,6.2558,0.0,7.1925,7.3482,7.597,7.8581,7.8489,7.8406,7.7869,7.4411,7.1983,0.0,0.0,6.4592,6.3971,0.0,6.212,6.2549,0.0,0.0,0.0,6.2639,0.0,0.0,0.0,6.1355,6.2402,6.6593,6.5946,6.6508,7.2589,7.3949,7.463,0.0,0.0,0.0,0.0,0.0,0.0,0.0,0.0,0.0,0.0,8.9285,8.9285,8.9285,8.9285,8.9095,8.8714,8.8714,8.8714,8.8714,8.8714,8.8881,8.9309,8.9309,8.9488,8.988,8.988,9.0712,9.2211,9.2334,9.3166,9.451,9.4741,9.4904,9.5001,9.5001,9.5329,9.5844,9.6242,9.7145,9.8252,9.8795,9.9527,10.0204,3.9193,3.99,4.1465,4.4519,0.0,0.0,0.0,0.0,0.0,0.0,0.0,0.0,0.0,0.0,0.0,0.0,0.0,0.0,0.0,0.0,0.0,4.5274,4.56,4.6248,4.7223,4.708,4.7009,4.7009,0.0,0.0,0.0,0.0,0.0,0.0,0.0,0.0,0.0,0.0,0.0,5.7833,0.0,7.0159,7.1533,7.5683,7.8605,8.0484,8.0553,8.0677,8.0169,7.5908,0.0,7.3329,6.8147,6.7785,0.0,0.0,0.0,0.0,0.0,0.0,0.0,0.0,0.0,6.3554,0.0,0.0,0.0,6.5371,6.4031,0.0,0.0,0.0,0.0,0.0,0.0,0.0,0.0,0.0,0.0,0.0,0.0,0.0,0.0,8.7154,8.7225,8.7832,8.6715,8.6216,8.668,8.6822,8.7143,8.7654,8.7939,8.8392,8.906,8.9238,8.9309,8.9309,8.9309,9.0116,9.1671,9.1905,9.2962,9.462,9.4893,9.4958,9.4882,9.4968,9.4979,9.5019,9.5712,9.6596,9.7575,9.8448,9.9382,10.0204,3.9144,3.9865,4.1214,4.3728,0.0,0.0,0.0,0.0,0.0,0.0,0.0,0.0,0.0,0.0,0.0,0.0,0.0,0.0,5.4021,0.0,0.0,4.7764,4.6498,4.6498,4.8014,4.7366,4.7009,4.7009,4.7009,4.6938,0.0,0.0,0.0,0.0,4.8619,0.0,0.0,0.0,5.7227,0.0,6.694,6.7916,0.0,7.4083,7.6817,7.7654,8.0818,8.2437,8.2539,0.0,7.7888,7.6652,0.0,7.1156,0.0,0.0,0.0,0.0,0.0,0.0,0.0,0.0,6.9844,0.0,0.0,0.0,6.4201,6.2727,0.0,0.0,0.0,0.0,0.0,0.0,0.0,0.0,0.0,0.0,0.0,0.0,0.0,0.0,0.0,0.0,8.4039,8.6822,8.436,8.3682,8.5823,8.6537,8.6644,8.6073,8.7404,8.8153,8.826,8.8953,8.9309,8.9309,8.9309,9.0239,9.1949,9.1981,9.2874,9.4352,9.4817,9.4774,9.4396,9.4839,9.4893,9.4766,9.5034,9.6224,9.7756,9.7887,9.8911,10.0204,3.9507,4.0394,4.1727,4.4155,0.0,0.0,0.0,0.0,0.0,0.0,0.0,0.0,0.0,0.0,0.0,0.0,0.0,0.0,0.0,0.0,0.0,0.0,0.0,0.0,0.0,4.786,4.7223,4.7693,4.7223,4.7009,4.7009,4.7479,0.0,0.0,5.0478,0.0,5.5776,0.0,5.8244,0.0,0.0,0.0,0.0,7.5779,7.9743,8.0847,8.2856,8.3504,8.2917,0.0,7.8671,0.0,0.0,0.0,0.0,0.0,0.0,0.0,0.0,0.0,0.0,0.0,0.0,0.0,0.0,0.0,6.3358,0.0,0.0,0.0,0.0,0.0,0.0,0.0,6.5413,0.0,0.0,0.0,0.0,0.0,0.0,0.0,0.0,0.0,0.0,0.0,0.0,8.123,8.3575,8.4431,8.5155,8.5787,8.6822,8.7618,8.8118,8.8881,8.9309,8.9309,8.9309,9.0261,9.1992,9.2109,9.31,9.473,9.4925,9.4828,9.4543,9.473,9.4799,9.4733,9.4915,9.5751,9.6943,9.7565,9.8513,9.9563,4.0047,0.0,0.0,0.0,0.0,0.0,0.0,0.0,0.0,0.0,0.0,0.0,6.6196,6.5026,0.0,0.0,0.0,5.9337,0.0,0.0,5.1815,0.0,0.0,0.0,0.0,0.0,4.7931,4.8508,4.7723,4.7651,4.8288,4.8431,4.965,0.0,0.0,5.5562,5.9402,0.0,0.0,6.4697,6.7953,6.9809,7.1335,7.7937,8.1801,8.3799,8.4385,8.4217,8.33,8.0646,7.9823,0.0,7.7338,0.0,0.0,0.0,0.0,0.0,7.2387,0.0,0.0,0.0,0.0,0.0,0.0,0.0,0.0,0.0,0.0,0.0,0.0,0.0,0.0,0.0,0.0,6.3851,0.0,0.0,0.0,0.0,0.0,0.0,0.0,0.0,0.0,0.0,0.0,0.0,8.1398,8.2336,8.3514,8.5074,8.6073,8.6965,8.775,8.8571,8.9095,8.9309,8.9309,9.0176,9.1803,9.2066,9.3132,9.4723,9.4893,9.4882,9.4711,9.4777,9.4766,9.4722,9.485,9.5275,9.5931,9.7066,9.8115,9.9082,4.0758,4.0576,0.0,0.0,0.0,0.0,0.0,0.0,0.0,0.0,0.0,0.0,0.0,0.0,0.0,0.0,0.0,6.5189,6.4289,0.0,5.5212,0.0,0.0,0.0,0.0,0.0,0.0,4.9263,4.8502,4.9329,5.1536,4.9983,5.0126,5.1857,5.5683,5.8752,6.1272,6.5062,7.0237,7.584,7.518,7.8115,8.255,0.0,8.1184,8.4564,8.46,0.0,0.0,8.2882,8.2379,0.0,0.0,0.0,0.0,0.0,0.0,0.0,0.0,0.0,0.0,0.0,0.0,0.0,0.0,0.0,6.6946,0.0,0.0,0.0,0.0,0.0,0.0,0.0,0.0,0.0,0.0,0.0,0.0,0.0,0.0,0.0,0.0,0.0,0.0,0.0,0.0,0.0,7.9676,8.0756,8.1872,8.3442,8.5002,8.618,8.6929,8.7761,8.8535,8.9309,8.9309,8.9987,9.1249,9.1778,9.2719,9.3976,9.4687,9.4882,9.4733,9.4904,9.4871,9.4711,9.4722,9.4722,9.4885,9.618,9.7655,9.8987,4.1791,0.0,0.0,0.0,0.0,0.0,0.0,5.4654,0.0,0.0,0.0,0.0,0.0,0.0,7.4297,0.0,0.0,7.0791,6.7893,6.352,0.0,0.0,0.0,5.4784,0.0,0.0,0.0,0.0,0.0,4.9597,5.0887,5.0346,5.1488,5.4128,0.0,6.08,0.0,0.0,0.0,0.0,0.0,8.0042,8.4763,0.0,0.0,8.46,8.46,8.46,0.0,8.4064,8.3166,8.2328,8.2407,8.1126,7.9599,7.9688,7.9571,0.0,0.0,0.0,8.0406,7.4285,0.0,0.0,0.0,0.0,0.0,0.0,0.0,0.0,0.0,0.0,0.0,0.0,0.0,0.0,0.0,0.0,0.0,0.0,0.0,0.0,0.0,0.0,0.0,0.0,0.0,0.0,0.0,7.8803,8.0444,8.254,8.4182,8.5634,8.6894,8.7689,8.85,8.9309,8.9309,8.9865,9.0964,9.1803,9.2808,9.3925,9.4687,9.4968,9.4893,9.4979,9.4958,9.4915,9.5076,9.5044,9.5001,9.5816,9.6563,9.7264,4.3233,0.0,0.0,0.0,0.0,0.0,0.0,0.0,0.0,0.0,6.8373,0.0,7.7116,0.0,7.9114,0.0,7.8864,7.5974,7.0862,6.8694,0.0,6.3948,6.12,0.0,0.0,0.0,0.0,0.0,0.0,5.2088,5.3372,5.2266,5.3272,5.6169,5.8802,6.2449,6.6882,7.1736,7.452,0.0,0.0,8.2173,0.0,0.0,8.4324,0.0,0.0,8.46,8.46,8.46,8.3922,8.3137,8.3646,8.2576,8.1146,8.1236,8.1148,8.0934,8.0379,8.13,0.0,0.0,7.5212,0.0,6.8575,0.0,0.0,0.0,0.0,0.0,0.0,0.0,0.0,0.0,0.0,0.0,0.0,5.8272,0.0,0.0,0.0,0.0,0.0,0.0,0.0,0.0,0.0,0.0,0.0,0.0,7.865,8.1291,8.3218,8.5038,8.6894,8.7393,8.8214,8.9309,8.9309,8.9678,9.0405,9.1531,9.2536,9.3364,9.4338,9.4817,9.4893,9.4968,9.5001,9.5022,9.5182,9.5151,9.5062,9.5426,9.5925,9.6529,4.5002,0.0,0.0,0.0,4.7888,0.0,0.0,0.0,6.2271,0.0,7.0862,7.5741,7.9747,8.0899,8.229,8.4528,8.3967,0.0,7.3833,7.4725,0.0,0.0,6.601,6.5554,6.3956,0.0,0.0,0.0,0.0,0.0,5.8574,5.5506,5.5312,5.7695,6.0822,0.0,6.6383,7.4163,7.8936,8.147,8.3708,8.4635,8.4671,8.4635,0.0,8.568,8.4885,8.46,8.46,8.46,8.46,8.46,8.46,8.4075,8.33,8.2504,8.229,8.2088,8.1094,8.1378,8.1207,7.8088,0.0,0.0,0.0,0.0,7.5821,0.0,0.0,0.0,0.0,0.0,0.0,0.0,0.0,0.0,0.0,0.0,0.0,0.0,0.0,0.0,0.0,0.0,0.0,0.0,0.0,0.0,0.0,0.0,7.65,7.9747,8.2112,8.4477,8.6822,8.6894,8.7668,8.9238,8.9274,8.9382,8.9621,9.1,9.1858,9.2378,9.3715,9.4466,9.4722,9.4904,9.5001,9.5001,9.5001,9.5001,9.499,9.499,9.5693,9.6758,4.5826,4.7068,4.8489,0.0,4.8377,4.9317,0.0,0.0,0.0,0.0,7.4796,7.9231,8.3789,8.4967,8.5645,8.6241,8.5609,0.0,0.0,0.0,0.0,7.6937,7.4832,7.2941,7.1326,6.7267,0.0,6.1929,0.0,0.0,5.7853,5.5841,5.558,5.6975,6.0038,6.3446,6.7286,7.3887,7.94,8.3743,8.435,8.4956,0.0,0.0,8.5099,8.568,8.4885,8.46,8.46,8.46,8.46,8.46,8.46,8.4457,8.4146,8.3335,8.3504,8.382,8.2944,8.3296,8.3349,8.115,7.962,7.8018,0.0,0.0,0.0,0.0,0.0,0.0,0.0,0.0,0.0,0.0,0.0,0.0,0.0,0.0,0.0,5.9509,0.0,0.0,0.0,0.0,0.0,0.0,0.0,0.0,0.0,0.0,0.0,7.8874,8.1291,8.3646,8.6073,8.6644,8.7393,8.8428,8.9024,8.9331,8.9432,9.1135,9.196,9.2162,9.385,9.4656,9.4711,9.4777,9.486,9.5001,9.5001,9.4904,9.4763,9.4763,9.51,9.5717,4.7646,0.0,0.0,5.197,0.0,0.0,5.7917,0.0,0.0,7.1415,7.6661,0.0,8.3432,8.6241,8.7954,8.7954,8.7561,0.0,0.0,0.0,0.0,8.1184,7.9721,7.8044,7.6117,7.1772,0.0,6.5455,0.0,0.0,5.9159,5.7167,5.6572,5.728,6.0631,6.378,6.7103,7.469,8.0328,8.411,8.4457,0.0,0.0,8.4778,8.4885,8.5206,8.4778,8.46,8.46,8.46,8.46,8.46,8.46,8.46,8.4528,8.4075,8.4253,8.4493,8.4039,8.4243,8.435,8.3275,8.2288,8.1095,7.9331,7.9925,8.022,0.0,0.0,0.0,0.0,0.0,0.0,0.0,0.0,0.0,0.0,0.0,0.0,0.0,0.0,0.0,0.0,0.0,0.0,0.0,0.0,0.0,0.0,0.0,0.0,7.7589,8.098,8.3718,8.5787,8.7251,8.8,8.8118,8.8917,8.9309,8.9345,9.0701,9.1517,9.1922,9.3271,9.409,9.4413,9.4477,9.4598,9.4719,9.4817,9.4719,9.4521,9.4521,9.5028,9.5755,0.0,0.0,0.0,0.0,0.0,0.0,0.0,6.4618,0.0,7.2486,0.0,8.204,8.2148,8.6455,8.9309,8.9309,0.0,8.7847,8.4406,8.6726,8.644,8.2362,8.2576,8.1826,7.9659,7.5448,0.0,0.0,0.0,0.0,6.0783,5.8488,5.7508,5.7789,6.1346,6.4341,6.7267,7.5929,8.1006,8.3335,8.435,8.4778,8.4778,8.4778,8.4778,8.4742,8.4635,8.4671,8.4778,8.4778,8.4778,8.4778,8.4778,8.4671,8.46,8.46,8.46,8.46,8.46,8.46,8.46,8.46,8.46,8.4243,8.2826,8.2504,8.229,8.1541,7.9721,0.0,0.0,0.0,0.0,0.0,0.0,0.0,0.0,0.0,0.0,0.0,0.0,0.0,0.0,0.0,0.0,0.0,0.0,0.0,0.0,0.0,0.0,7.6162,8.0587,0.0,8.5787,0.0,8.8739,8.826,8.8953,8.9309,8.9345,9.013,9.089,9.1629,9.2461,9.3257,9.3994,9.4197,9.4298,9.4307,9.4543,9.4499,9.4285,9.4251,9.5142,9.6303,0.0,0.0,0.0,0.0,0.0,6.551,7.005,7.2798,7.5796,7.9828,8.4146,0.0,8.7775,8.8739,8.9309,8.9309,8.9309,0.0,0.0,0.0,0.0,8.7918,8.6705,8.5609,8.4574,7.8767,7.4234,0.0,0.0,0.0,5.8216,5.7117,5.6679,5.6922,5.9409,6.4618,7.1834,7.6117,0.0,8.2611,8.4717,8.5573,8.5573,8.5573,8.5573,8.5502,8.4849,8.5028,8.5573,8.5573,8.5573,8.5573,8.5573,8.5135,8.46,8.46,8.46,8.46,8.46,8.46,8.46,8.46,8.46,8.4528,8.4243,8.4171,8.3957,8.3157,8.2657,8.1444,7.8472,0.0,0.0,0.0,0.0,0.0,0.0,0.0,0.0,0.0,0.0,0.0,0.0,0.0,0.0,0.0,0.0,0.0,0.0,0.0,0.0,0.0,0.0,0.0,0.0,0.0,0.0,8.9095,8.9238,8.9309,8.9345,9.013,9.089,9.1629,9.2461,9.3257,9.3982,9.4028,9.4152,9.4285,9.4366,9.4354,9.4263,9.4107,9.5005,9.6303,0.0,0.0,0.0,0.0,0.0,0.0,0.0,8.0246,0.0,8.1755,8.3611,8.5359,8.6144,8.8428,9.0094,9.0451,9.0487,9.0487,9.0487,9.0487,9.0308,8.9952,8.8774,0.0,8.5823,0.0,7.6259,7.2271,0.0,0.0,0.0,0.0,5.6858,5.6779,6.0617,6.601,0.0,0.0,0.0,8.2397,8.4824,8.6037,8.6358,8.6358,8.6144,8.5752,8.5349,8.5716,8.6251,8.5456,8.517,8.517,8.517,8.4921,8.46,8.46,8.46,8.46,8.46,8.46,8.46,8.46,8.46,8.46,8.46,8.46,8.4385,8.3585,8.3407,8.2193,7.8222,7.336,0.0,0.0,0.0,0.0,0.0,0.0,0.0,0.0,0.0,0.0,0.0,0.0,0.0,0.0,0.0,0.0,0.0,0.0,0.0,0.0,0.0,0.0,0.0,0.0,0.0,8.8061,8.8917,8.9309,8.9299,8.9702,9.0523,9.1629,9.1997,9.2864,9.4018,9.4018,9.4039,9.4164,9.441,9.4499,9.4546,9.4999,9.5849,9.6856,0.0,6.195,0.0,0.0,7.1719,0.0,0.0,8.5706,8.7989,8.3646,8.3753,8.4431,8.5084,8.85,9.0962,9.1557,9.1593,9.1593,9.1593,9.1593,9.1354,9.0748,8.9809,8.8346,8.6323,8.2397,7.7901,0.0,0.0,0.0,0.0,0.0,0.0,0.0,0.0,0.0,0.0,0.0,7.9578,8.2683,8.5252,8.6644,8.7143,8.7143,8.6787,8.6251,8.6109,8.643,8.6705,8.5492,8.5206,8.5349,8.5349,8.5135,8.4849,8.4849,8.4742,8.4635,8.4814,8.4849,8.4885,8.5063,8.4956,8.4849,8.4849,8.4707,8.4421,8.3799,8.3514,8.2229,7.8446,7.4725,0.0,0.0,0.0,0.0,0.0,0.0,0.0,0.0,0.0,0.0,0.0,0.0,0.0,0.0,0.0,0.0,0.0,0.0,0.0,0.0,0.0,0.0,8.2907,0.0,8.831,0.0,8.8703,8.9309,8.9309,8.9309,9.013,9.1593,9.1593,9.2552,9.4177,9.4242,9.4287,9.4321,9.4686,9.4828,9.4947,9.5856,9.6718,9.7407,0.0,0.0,0.0,0.0,0.0,0.0,0.0,8.7251,9.0212,8.9677,9.0248,9.0737,9.0819,9.1247,9.1522,9.1593,9.1593,9.1593,9.1593,9.1593,9.1557,9.1497,9.0094,8.8846,8.7904,8.4003,7.8972,0.0,0.0,0.0,0.0,0.0,0.0,0.0,0.0,0.0,0.0,7.6911,8.0409,8.3549,8.6654,8.7939,8.7975,8.7975,8.7939,8.7796,8.7072,8.6858,8.6894,8.674,8.7179,8.7761,8.7761,8.6822,8.568,8.568,8.517,8.4778,8.5502,8.568,8.5859,8.6537,8.618,8.568,8.568,8.5135,8.4564,8.4493,8.3896,8.2407,7.916,7.8241,7.634,0.0,0.0,0.0,0.0,0.0,0.0,0.0,0.0,0.0,0.0,0.0,0.0,0.0,0.0,0.0,0.0,0.0,0.0,6.9712,0.0,7.8258,8.1291,8.5181,0.0,8.9095,8.9238,8.9309,8.9309,8.9309,9.013,9.1593,9.1593,9.2742,9.4642,9.5029,9.5163,9.5174,9.5252,9.5227,9.5314,9.5964,9.6718,9.7523,0.0,0.0,0.0,0.0,0.0,0.0,0.0,8.9749,9.189,9.189,9.1711,9.1771,9.2282,9.2318,9.2496,9.3007,9.3043,9.3043,9.3043,9.3043,9.2603,9.1629,9.1022,8.9856,8.8153,8.5181,8.1255,0.0,0.0,0.0,0.0,0.0,0.0,0.0,0.0,7.0728,7.4475,7.7937,8.1505,8.5002,8.668,8.7964,8.881,8.881,8.8535,8.8046,8.7761,8.7607,8.7607,8.7607,8.75,8.7393,8.7393,8.6965,8.6465,8.6465,8.6241,8.6062,8.6358,8.6465,8.6537,8.6822,8.668,8.6465,8.6465,8.6205,8.5848,8.5431,8.4289,8.3014,8.1729,7.9588,7.7732,0.0,0.0,0.0,0.0,0.0,0.0,0.0,0.0,0.0,0.0,0.0,0.0,0.0,0.0,0.0,0.0,0.0,0.0,6.9141,0.0,7.7672,7.9624,8.4732,8.7467,8.7882,8.8846,8.9309,8.9309,8.9809,9.0844,9.2365,9.313,9.3925,9.4744,9.5136,9.529,9.5321,9.5617,9.571,9.5902,9.7263,9.7845,9.8097,7.6571,0.0,7.7642,0.0,8.3932,8.5634,8.9702,9.1747,9.2889,9.3114,9.2639,9.2532,9.3079,9.315,9.3364,9.3946,9.4018,9.4018,9.4018,9.4018,9.3471,9.2354,9.2068,0.0,8.8867,8.6954,8.3825,7.9409,7.5046,0.0,0.0,0.0,0.0,0.0,7.0327,7.361,7.6785,7.9925,8.3279,8.6537,8.7322,8.8275,8.9309,8.9309,8.8953,8.8464,8.8464,8.8464,8.8464,8.8464,8.8214,8.7929,8.7679,8.7429,8.7286,8.7525,8.7276,8.7072,8.7786,8.7607,8.7358,8.7857,8.7607,8.7251,8.7251,8.7072,8.668,8.5966,8.4895,8.3978,8.3478,8.0908,7.915,0.0,0.0,0.0,0.0,0.0,0.0,0.0,6.676,6.4673,6.263,0.0,0.0,0.0,0.0,0.0,0.0,0.0,0.0,0.0,0.0,0.0,0.0,0.0,8.7197,8.6929,8.8524,8.9309,8.9345,9.0344,9.1533,9.2887,9.4154,9.4752,9.4915,9.5336,9.5597,9.5751,9.608,9.62,9.6392,9.7898,9.8272,9.811,8.0256,8.1006,8.2754,8.8239,8.9202,9.0023,9.2389,9.2793,9.3079,9.3875,9.3982,9.3982,9.3982,9.3982,9.3982,9.4018,9.4018,9.4018,9.4018,9.4018,9.3982,0.0,0.0,9.2068,9.0498,8.9666,8.6562,8.1077,0.0,0.0,7.0407,0.0,0.0,7.1736,7.4083,7.6892,8.0068,8.3208,8.593,8.8153,8.8953,8.9274,8.9309,8.9309,8.9299,8.9309,8.9309,8.9309,8.9309,8.9309,8.9809,9.0319,8.9524,8.8749,8.826,8.9024,8.8132,8.7429,8.982,8.9285,8.8475,9.007,8.9249,8.8082,8.8082,8.7465,8.668,8.5966,8.5787,8.5288,8.3692,8.2729,8.1113,7.8044,0.0,0.0,0.0,0.0,0.0,0.0,6.6537,6.4012,6.2464,0.0,0.0,0.0,0.0,0.0,0.0,0.0,0.0,6.9177,7.3904,0.0,7.8669,8.4156,8.6894,8.6929,8.8524,8.9309,8.9345,9.0879,9.2032,9.2887,9.4154,9.4936,9.5321,9.5781,9.6249,9.6666,9.6676,9.6676,9.6757,9.7395,9.7442,9.7302,8.461,8.592,8.724,8.8988,9.063,9.1925,9.2686,9.3257,9.3721,9.3982,9.4018,9.4018,9.4018,9.4018,9.4018,0.0,9.4018,9.4018,0.0,9.4018,9.3757,9.3221,9.2936,9.2068,9.0534,8.9702,8.7918,8.5038,0.0,0.0,0.0,7.3815,7.4521,7.576,7.8686,8.1434,8.4075,8.6109,8.8357,9.0427,8.9631,8.9916,9.0808,9.0308,9.013,9.013,9.013,9.013,9.013,9.013,9.0641,9.1212,9.0951,9.0355,8.9784,9.0034,8.9749,8.9641,9.0879,9.0498,8.9856,9.0355,8.9713,8.8917,8.8917,8.7882,8.6822,8.6608,8.5706,8.4992,8.5038,8.3468,8.1862,8.0863,0.0,0.0,0.0,0.0,0.0,0.0,0.0,6.4237,0.0,6.2446,0.0,0.0,0.0,0.0,0.0,0.0,0.0,0.0,7.4914,0.0,7.8705,8.4987,8.7724,8.6929,8.9095,9.0676,9.1675,9.164,9.2496,9.4118,9.4803,9.5368,9.5802,9.6269,9.656,9.6685,9.6685,9.6685,9.6786,9.7535,9.7535,9.7245,8.7197,8.8477,8.9595,9.0451,9.1818,9.29,9.3186,9.3685,9.4018,9.4018,9.4256,9.447,9.447,9.472,0.0,9.4054,9.4018,9.4125,9.4435,9.4161,9.3899,9.371,9.34,9.265,9.139,0.0,0.0,8.825,8.4646,8.1612,7.9186,7.9158,7.9505,8.0292,8.2826,8.4967,8.6751,8.8321,8.9998,9.1533,9.0558,9.0737,9.1557,9.1105,9.0926,9.0926,9.0926,9.0926,9.0926,9.0926,9.1426,9.1997,9.1711,9.1497,9.1354,9.1354,9.114,9.114,9.2211,9.1711,9.0997,9.1283,9.0748,9.0094,8.9809,8.85,8.7251,8.6965,8.592,8.5099,8.5313,8.3611,8.2183,8.2183,0.0,0.0,0.0,0.0,0.0,0.0,0.0,0.0,0.0,6.4903,0.0,0.0,0.0,0.0,0.0,0.0,0.0,7.0693,7.674,0.0,8.0454,8.578,8.7953,8.6929,8.9356,9.1319,9.2793,9.2282,9.2914,9.4443,9.4879,9.5326,9.5761,9.6229,9.6541,9.6685,9.6685,9.6685,9.6759,9.7273,9.7156,9.6782,8.8238,8.9043,0.0,0.0,9.2842,0.0,9.3818,9.3996,9.4021,9.3986,9.4676,9.5187,9.5222,9.5828,9.5661,9.4292,0.0,0.0,0.0,9.4577,9.447,9.5173,9.447,0.0,9.2829,9.2793,9.2032,9.0427,8.7465,8.6002,8.593,8.4467,8.4182,8.4921,8.6455,8.7572,8.8367,8.9963,9.1105,9.1771,9.1711,9.1711,9.1771,9.1711,9.1675,9.1675,9.1675,9.1675,9.1675,9.1675,9.2211,9.2746,9.1997,9.2282,9.2864,9.2829,9.2282,9.2032,9.3578,9.2864,9.1854,9.2603,9.2211,9.1379,9.0605,8.9249,8.7964,8.7143,8.6358,8.5573,8.4885,8.3351,8.2183,8.2183,8.0159,7.7732,7.5439,0.0,0.0,0.0,0.0,0.0,0.0,6.7481,6.8346,0.0,0.0,0.0,0.0,0.0,7.0764,7.5153,7.9186,8.1979,8.3478,8.6547,8.7832,8.7251,8.9499,9.139,9.29,9.2829,9.328,9.405,9.4524,9.4936,9.5321,9.5791,9.6249,9.6647,9.6676,9.6685,9.6685,9.6685,9.6414,9.6,0.0,0.0,9.1548,9.208,9.3042,9.3631,9.3415,9.3865,9.4112,9.3726,9.4334,9.4976,9.5389,9.5567,9.5699,9.5744,9.5779,9.5851,9.6017,9.5851,9.5601,9.5208,9.503,9.4245,9.2829,9.2793,9.1747,8.9595,8.8846,8.8178,8.7572,8.7786,8.7679,8.7322,8.8928,8.9749,9.0034,9.1604,9.2722,9.3364,9.2757,9.29,9.3364,9.2746,9.2532,9.2532,9.2532,9.2532,9.2532,9.2532,9.3043,9.3685,9.3471,9.3542,9.3578,9.2971,9.2686,9.2722,9.3721,9.3257,9.2568,9.2746,9.2211,9.1236,8.988,8.9274,8.8774,8.7964,8.6751,8.5894,8.6287,8.4075,8.2183,8.2183,7.9221,7.6331,7.4528,0.0,0.0,0.0,6.8873,6.9408,6.9408,7.0264,7.0844,0.0,0.0,0.0,0.0,0.0,7.551,7.6081,8.0516,8.3325,8.4324,8.6822,8.8892,9.0487,9.1069,9.2175,9.3697,9.3079,9.3413,9.4557,9.4667,9.4936,9.5321,9.5791,9.607,9.619,9.656,9.6685,9.6685,9.6685,9.6414,9.6,8.9844,9.1069,9.2212,9.292,9.364,9.4078,9.3905,9.423,9.4378,9.4127,9.4983,9.5738,9.6034,9.6609,9.7087,9.7361,9.6731,9.6446,9.6814,9.6481,9.6124,9.5732,9.5387,9.4637,9.3364,9.3364,9.2722,9.1461,9.1069,9.0676,9.0259,9.0308,9.013,8.9749,9.0997,9.1747,9.2151,9.2971,9.3828,9.447,9.3685,9.3614,9.3946,9.3507,9.3364,9.3364,9.3364,9.3364,9.3364,9.3364,9.365,9.4018,9.4018,9.4018,9.3911,9.3471,9.3364,9.3435,9.3875,9.3685,9.3364,9.3364,9.2461,9.1379,9.0523,8.9524,8.8642,8.8189,8.6858,8.593,8.6323,8.411,8.1969,8.1255,7.8472,7.5581,7.3253,7.1549,0.0,6.9809,7.0523,7.1478,7.2539,7.369,7.3904,7.2825,0.0,0.0,7.444,7.7758,7.9293,7.8579,8.2754,8.5395,8.618,8.8178,8.9998,9.1593,9.1961,9.2793,9.3982,9.3542,9.3725,9.4377,9.4623,9.4936,9.5321,9.5791,9.612,9.6365,9.6599,9.6906,9.7199,9.6832,9.6958,9.7173,9.0838,9.1641,9.2517,9.3694,9.4131,9.4362,9.4403,9.4595,9.471,9.4668,9.5741,9.6526,9.6614,9.771,9.8489,9.8562,9.7409,9.6957,9.7635,9.7028,9.6553,9.6303,9.5696,9.4923,9.4018,9.4018,9.4018,9.4018,9.3435,9.3114,9.2971,9.2425,9.2032,9.1818,9.2603,9.3293,9.3828,9.3946,9.4399,9.4959,9.4292,9.4018,9.4018,9.4018,9.4018,9.4018,9.4018,9.4018,9.4018,9.4018,9.4018,9.4018,9.4018,9.4018,9.4018,9.4161,9.4078,9.4018,9.4018,9.4018,9.4018,9.4018,9.2971,9.1925,9.1818,9.0141,8.8617,8.851,8.7225,8.6109,8.6002,8.4003,8.1826,8.0175,7.783,7.5162,7.2129,0.0,7.1085,7.1772,7.2379,7.3592,7.5679,7.708,7.7116,7.5385,7.8034,0.0,0.0,8.0649,8.2326,8.1826,8.5002,8.7215,8.825,8.9998,9.1176,9.1783,9.2603,9.3328,9.4018,9.4018,9.4089,9.4208,9.4471,9.4911,9.5407,9.5772,9.617,9.6599,9.6657,9.7126,9.7649,9.6942,9.7503,9.8403,8.9997,9.1409,9.2545,9.2091,9.3471,9.4273,9.3261,9.4147,9.4812,9.4428,9.5099,9.5758,9.6239,9.6872,9.7454,9.7987,9.8215,9.8396,9.8503,9.8396,9.7718,9.6339,9.6196,9.5458,9.4018,9.4018,9.4018,9.4018,9.4566,9.4495,9.3828,9.4388,9.3924,9.2639,9.3435,9.3507,9.3043,9.3721,9.4078,9.4185,9.4042,9.4018,9.4018,9.4018,9.4018,9.4018,9.4018,9.4018,9.4018,9.4018,9.4018,9.4018,9.4018,9.4018,9.4114,9.4816,9.4542,9.4018,9.4018,9.4018,9.4018,9.4018,9.3804,9.3435,9.2782,9.1818,9.089,9.0248,8.8856,8.7547,8.6858,8.4788,8.2479,8.0246,7.7356,7.4511,7.2057,0.0,7.2486,7.262,7.5591,7.8018,7.9069,7.939,7.9925,8.0863,7.9659,7.9588,8.122,8.3172,8.4493,8.5038,8.5645,8.7001,8.9095,9.1319,9.2496,9.2603,9.3435,9.3875,9.4018,9.4018,9.4363,9.4994,9.4372,9.4713,9.5706,9.5495,9.5689,9.614,9.6541,9.6795,9.6869,9.6759,9.7173,9.7718,9.1936,9.2569,9.3193,9.3403,9.3744,9.4036,9.4173,9.4793,9.5149,9.4923,9.5446,9.5918,9.6174,9.6682,9.7109,9.7377,9.7927,9.827,9.827,9.8538,9.8182,9.6993,9.6957,9.6422,9.5244,9.5244,9.5244,9.5244,9.5601,9.5601,9.5244,9.5637,9.5173,9.4102,9.4459,9.4423,9.4102,9.4495,9.4649,9.4649,9.4649,9.4649,9.4649,9.4649,9.4887,9.5244,9.5244,9.5244,9.5244,9.5244,9.5244,9.5244,9.5244,9.5244,9.5315,9.5672,9.5244,9.4542,9.4114,9.4018,9.4018,9.4018,9.365,9.3257,9.2889,9.2175,9.1486,9.1176,8.9856,8.85,8.7679,8.5263,8.2764,8.0863,7.7535,0.0,0.0,7.3119,7.3449,7.5118,7.7339,7.9338,8.097,8.1138,8.1255,8.1577,8.1372,8.1694,8.28,8.436,8.5991,8.7632,8.85,8.9249,8.9952,9.2282,9.3221,9.2829,9.3614,9.4018,9.4006,9.4435,9.4602,9.4553,9.4851,9.5195,9.5545,9.5638,9.5933,9.6414,9.6608,9.6942,9.7273,9.6869,9.7691,9.8913,9.3602,9.366,9.3816,9.4436,9.4181,9.4159,9.5013,9.5275,9.5413,9.5413,9.5763,9.5999,9.5999,9.6484,9.6812,9.6812,9.7362,9.774,9.7901,9.8283,9.8205,9.7528,9.7314,9.6921,9.6303,9.6481,9.6588,9.6588,9.6778,9.6778,9.6588,9.6588,9.616,9.5447,9.5447,9.5447,9.5447,9.5447,9.5447,9.5447,9.5447,9.5447,9.5447,9.5447,9.5803,9.6303,9.6303,9.6303,9.6303,9.6303,9.6303,9.6303,9.6303,9.6303,9.6339,9.6517,9.6172,9.5565,9.4756,9.4399,9.4292,9.4292,9.3685,9.3079,9.3079,9.2461,9.189,9.189,9.0772,8.9524,8.8571,8.6119,8.3549,8.1434,0.0,0.0,0.0,7.4725,7.5198,7.8008,7.9374,8.0837,8.2826,8.3182,8.3075,8.2504,8.3549,8.4228,8.4228,8.5752,8.7597,8.9773,9.1165,9.1604,9.1033,9.3007,9.3685,9.3079,9.3685,9.4078,9.4292,9.4709,9.478,9.4565,9.5143,9.5451,9.56,9.5762,9.618,9.6685,9.6685,9.7199,9.7833,9.7199,9.8374,10.0116,9.3005,9.3756,9.3998,9.3363,9.4378,9.5068,9.4461,9.4965,9.5413,9.5413,9.5441,9.5482,9.5482,9.5932,9.6267,9.6267,9.6747,9.7288,9.7876,9.795,9.783,9.7516,9.6778,9.6374,9.6303,9.7028,9.7421,9.7421,9.8146,9.8146,9.7421,9.7421,9.6993,9.6232,9.6232,9.6232,9.6232,9.6232,9.6232,9.6232,9.6232,9.6232,9.6232,9.6232,9.6232,9.6303,9.6303,9.6303,9.6303,9.6303,9.6303,9.6303,9.6303,9.6303,9.6446,9.7207,9.7385,9.7135,9.635,9.5637,9.5101,9.5101,9.4506,9.3911,9.3911,9.3293,9.2722,9.2722,9.2032,9.0986,8.9488,8.7811,8.5431,8.1684,0.0,0.0,7.6519,7.7446,7.891,8.0613,8.2826,8.4528,8.5431,8.6144,8.6526,8.6465,8.6573,8.6644,8.6644,8.8168,8.9773,9.1379,9.2246,9.2686,9.2639,9.3542,9.3982,9.3911,9.3982,9.4399,9.5101,9.4399,9.4827,9.6065,9.4719,9.4985,9.6376,9.5647,9.5883,9.6685,9.6685,9.7199,9.7906,9.7833,9.8861,10.0283,9.3123,9.4137,9.4758,9.3965,9.4723,9.531,9.5034,9.5206,9.5413,9.5413,9.5413,9.5413,9.5413,9.5572,9.5709,9.5709,9.6201,9.6734,9.7288,9.769,9.8006,9.823,9.7968,9.779,9.779,9.8075,9.8254,9.8254,9.8539,9.8539,9.8254,9.8254,9.7825,9.7028,9.7028,9.6778,9.6339,9.685,9.6778,9.6339,9.685,9.6743,9.6339,9.685,9.7028,9.71,9.7599,9.779,9.779,9.779,9.7457,9.7135,9.7647,9.71,9.6446,9.7242,9.7492,9.7528,9.7754,9.685,9.5875,9.5875,9.5672,9.5315,9.4851,9.4495,9.4281,9.4281,9.3246,9.2175,9.1568,8.9356,8.7001,8.5002,0.0,8.0827,8.0766,8.0837,8.147,8.3075,8.4493,8.5645,8.643,8.6751,8.6894,8.6894,8.7811,8.8382,8.8382,9.0355,9.1747,9.2318,9.3114,9.3293,9.2793,9.3578,9.4018,9.4018,9.4018,9.4149,9.447,9.4637,9.478,9.491,9.5576,9.5817,9.576,9.5978,9.6279,9.6657,9.6394,9.6636,9.7209,9.7723,9.8594,9.9548,9.3158,9.4158,9.4896,9.4378,9.4896,9.5413,9.5413,9.5413,9.5413,9.5413,9.5413,9.5413,9.5413,9.5413,9.5413,9.5413,9.5736,9.6254,9.6968,9.7728,9.8319,9.867,9.8682,9.8682,9.8682,9.8682,9.8682,9.8682,9.8682,9.8682,9.8682,9.8682,9.8396,9.7861,9.7599,9.7207,9.6695,9.6993,9.6814,9.6374,9.7171,9.7171,9.6778,9.7564,9.7897,9.7968,9.8503,9.8682,9.8682,9.8682,9.8325,9.7968,9.8539,9.7932,9.7171,9.7706,9.7897,9.8004,9.8539,9.7897,9.6993,9.6743,9.6481,9.616,9.5661,9.5554,9.5482,9.5244,9.4316,9.3388,9.29,9.083,8.8785,8.75,8.5466,8.4085,8.4156,8.411,8.4467,8.5573,8.6419,8.7215,8.7964,8.8036,8.8143,8.8357,8.9416,9.013,9.038,9.1675,9.2639,9.315,9.3471,9.3471,9.3186,9.3721,9.4018,9.4018,9.4018,9.4114,9.4399,9.4685,9.4637,9.4458,9.585,9.5983,9.5352,9.5999,9.6447,9.6647,9.618,9.6598,9.753,9.808,9.8778,9.9465,9.2951,9.3758,9.4309,9.4309,9.4896,9.5413,9.5413,9.5413,9.5413,9.5413,9.5413,9.5413,9.5413,9.5413,9.5413,9.5413,9.5413,9.5872,9.6942,9.8063,9.8682,9.8682,9.8682,9.8682,9.8682,9.8682,9.8682,9.8682,9.8682,9.8682,9.8682,9.8682,9.8682,9.8682,9.7861,9.7492,9.7457,9.6671,9.6303,9.6374,9.7207,9.7492,9.7599,9.8396,9.8682,9.8682,9.8682,9.8682,9.8682,9.8682,9.8682,9.8682,9.8682,9.8694,9.8682,9.8682,9.8682,9.8682,9.8682,9.8682,9.8503,9.7706,9.6921,9.6303,9.6303,9.6303,9.6089,9.5375,9.5197,9.4709,9.3139,9.2175,9.0855,8.851,8.8118,8.7582,8.6037,8.7154,8.8118,8.8118,8.8856,8.9631,9.0427,9.0498,9.0819,9.1533,9.1604,9.1961,9.2782,9.2068,9.2354,9.3946,9.3221,9.3186,9.3982,9.4018,9.4018,9.4018,9.4006,9.4435,9.5161,9.4363,9.447,9.5208,9.5208,9.5253,9.532,9.5689,9.6166,9.6637,9.617,9.7256,9.9098,9.9098,9.9622,10.0283,9.2261,9.3378,9.4309,9.4309,9.4896,9.5413,9.5413,9.5413,9.5413,9.5413,9.5413,9.5413,9.5413,9.5413,9.5496,9.5654,9.5524,9.5872,9.6942,9.8063,9.8682,9.8682,9.8682,9.8682,9.8682,9.8682,9.8682,9.8682,9.8682,9.8682,9.8682,9.8682,9.8682,9.8682,9.8432,9.8325,9.8325,9.8075,9.7968,9.8004,9.8254,9.8004,9.7599,9.8396,9.8361,9.7932,9.8503,9.8682,9.8682,9.8682,9.8325,9.7742,9.7207,9.7385,9.7861,9.7861,9.7861,9.7968,9.8539,9.8682,9.8646,9.8396,9.8146,9.7861,9.7278,9.7135,9.7064,9.685,9.635,9.5982,9.6065,9.4577,9.2864,9.1615,9.0926,9.0212,8.9249,9.0104,9.0856,9.0856,9.1071,9.1351,9.1739,9.1634,9.1709,9.2062,9.2494,9.3008,9.359,9.34,9.3507,9.3982,9.3768,9.3757,9.4018,9.4577,9.4577,9.4006,9.5113,9.5458,9.5208,9.5494,9.5744,9.5982,9.6564,9.6387,9.5689,9.6374,9.6472,9.6263,9.669,9.7422,9.8374,9.9512,10.0099,10.0209,9.195,9.2999,9.393,9.424,9.4896,9.5413,9.5413,9.5413,9.5413,9.5413,9.5413,9.5413,9.5413,9.5413,9.5482,9.5613,9.5681,9.608,9.6955,9.7865,9.8477,9.8682,9.8682,9.8682,9.8682,9.8682,9.8682,9.8682,9.8682,9.8682,9.8682,9.8682,9.8682,9.8694,9.8361,9.8218,9.8218,9.7897,9.7754,9.7778,9.8111,9.7932,9.7599,9.8396,9.8396,9.8075,9.8896,9.9169,9.9205,9.9491,9.9276,9.8741,9.798,9.8063,9.8384,9.8075,9.7968,9.8075,9.8575,9.8682,9.8682,9.8682,9.8682,9.8575,9.8075,9.7968,9.7897,9.7564,9.71,9.685,9.6993,9.5851,9.4637,9.3888,9.3603,9.2996,9.1604,9.2476,9.2923,9.1957,9.21,9.2345,9.2499,9.2378,9.2489,9.2929,9.3309,9.3665,9.3982,9.4018,9.4161,9.447,9.4161,9.4149,9.447,9.4959,9.478,9.4018,9.528,9.5625,9.5244,9.5946,9.6303,9.6339,9.7135,9.7023,9.6307,9.6618,9.6692,9.666,9.6649,9.733,9.8398,9.9228,9.9555,9.9502,9.195,9.2709,9.3468,9.424,9.4965,9.5413,9.5413,9.5413,9.5413,9.5413,9.5413,9.5413,9.5413,9.5427,9.5441,9.5441,9.594,9.6418,9.6903,9.7501,9.8074,9.8598,9.8622,9.8646,9.8682,9.8682,9.8682,9.8682,9.8682,9.8682,9.8682,9.8682,9.8682,9.8682,9.7932,9.7611,9.7575,9.685,9.6517,9.6588,9.7314,9.7611,9.7718,9.8503,9.8753,9.8789,9.9598,9.9835,9.9919,10.0597,10.0786,10.0799,10.0085,9.9907,9.9776,9.911,9.886,9.8789,9.8789,9.8753,9.8682,9.8682,9.8682,9.8682,9.8682,9.8682,9.8503,9.7742,9.7611,9.7385,9.666,9.6457,9.6208,9.5518,9.591,9.5554,9.3424,9.4339,9.441,9.2197,9.253,9.297,9.3063,9.3063,9.3349,9.3981,9.4041,9.4029,9.4078,9.4125,9.447,9.528,9.4506,9.4506,9.528,9.5173,9.4709,9.4006,9.4887,9.5315,9.5304,9.5982,9.6339,9.6446,9.7171,9.7286,9.6911,9.6607,9.689,9.7431,9.6385,9.7082,9.8665,9.8469,9.838,9.8478,9.2709,9.3516,9.4275,9.5034,9.5275,9.5413,9.5413,9.5413,9.5413,9.5413,9.5413,9.5413,9.5413,9.5606,9.5709,9.5709,9.6201,9.648,9.6365,9.689,9.7476,9.8062,9.8074,9.827,9.8682,9.8682,9.8682,9.8682,9.8682,9.8682,9.8682,9.8682,9.8682,9.8682,9.8503,9.8432,9.8432,9.8254,9.8182,9.8182,9.8361,9.8432,9.8539,9.9312,9.9253,9.8789,9.9598,9.9491,9.8967,9.9146,9.9633,10.0085,9.9942,9.9907,9.999,10.0418,10.0097,9.9633,9.9633,9.9181,9.8682,9.8682,9.8682,9.8682,9.8682,9.8682,9.8646,9.8468,9.8432,9.8396,9.8218,9.7671,9.7207,9.7028,9.66,9.6124,9.5589,9.5477,9.5256,9.4719,9.4242,9.4285,9.5156,9.525,9.4957,9.4301,9.4218,9.445,9.4899,9.4923,9.528,9.6053,9.5315,9.5315,9.6053,9.4851,9.4185,9.4018,9.5387,9.6053,9.6053,9.6232,9.6636,9.7242,9.7421,9.7087,9.6525,9.7435,9.716,9.628,9.7022,9.7185,9.7118,9.8053,9.8411,9.8462,9.3447,9.3689,9.4068,9.5206,9.5413,9.5413,9.5413,9.5413,9.5413,9.5413,9.5413,9.5413,9.5413,9.5537,9.5599,9.5599,9.5872,9.612,9.6387,9.6642,9.7237,9.8246,9.816,9.8332,9.8884,9.8777,9.8682,9.8682,9.8682,9.8682,9.8682,9.8682,9.8682,9.8682,9.8682,9.8682,9.8682,9.8682,9.8682,9.8717,9.911,9.9276,9.9312,9.974,9.9633,9.9312,9.974,9.9847,9.9812,9.9812,10.0097,10.0418,10.0014,9.9907,9.9907,9.9883,9.9633,9.9312,9.9312,9.9039,9.8682,9.8682,9.8682,9.8682,9.8682,9.8682,9.8682,9.8682,9.8682,9.8682,9.8682,9.8361,9.8075,9.8075,9.7718,9.7314,9.6921,9.6646,9.6298,9.594,9.55,9.5474,9.604,9.5765,9.5469,9.5261,9.5249,9.5371,9.5708,9.5732,9.61,9.685,9.6136,9.591,9.6303,9.5494,9.472,9.4018,9.5565,9.6303,9.6339,9.71,9.7457,9.7528,9.7897,9.7385,9.6398,9.744,9.7151,9.6133,9.7011,9.7126,9.6842,9.7559,9.8195,9.87,9.4047,9.3847,9.3882,9.5172,9.5413,9.5413,9.5413,9.5413,9.5413,9.5413,9.5413,9.5413,9.5413,9.5413,9.5455,9.5517,9.5475,9.5777,9.6493,9.6546,9.7141,9.8546,9.8496,9.875,9.9397,9.9254,9.9015,9.8682,9.8682,9.8682,9.8682,9.8682,9.8682,9.8682,9.8682,9.8682,9.8682,9.8682,9.8682,9.8753,9.9419,9.9705,9.9705,9.9847,9.9907,9.9907,9.9907,10.0299,10.0799,10.0704,10.0799,10.0918,10.0121,9.9978,9.9954,9.9289,9.9003,9.8896,9.8896,9.8789,9.8682,9.8682,9.8682,9.8682,9.8682,9.8682,9.8682,9.8682,9.8682,9.8682,9.8682,9.8682,9.8682,9.8682,9.8682,9.8468,9.779,9.7599,9.7242,9.6588,9.6517,9.6446,9.6303,9.5875,9.5744,9.6089,9.6232,9.6303,9.6303,9.641,9.6886,9.7682,9.6921,9.6564,9.6707,9.6303,9.5601,9.4613,9.5744,9.6303,9.6339,9.7528,9.7897,9.7528,9.8075,9.7528,9.6339,9.7028,9.685,9.6147,9.663,9.6714,9.6645,9.691,9.7695,9.8621,9.4295,9.4723,9.5137,9.5379,9.5413,9.5413,9.5413,9.5413,9.5413,9.5413,9.5413,9.5413,9.5413,9.5413,9.5585,9.604,9.5885,9.5899,9.6241,9.6267,9.6852,9.8219,9.868,9.9476,10.0693,10.0899,10.0291,9.8682,9.8682,9.8682,9.8682,9.8682,9.8682,9.8682,9.8682,9.8682,9.8682,9.8682,9.8682,9.8729,9.8825,9.886,9.8932,9.9633,9.9907,9.9907,9.9907,9.9942,9.9954,9.9253,9.9883,10.0918,10.0121,10.0299,10.0799,10.0692,10.0192,9.974,9.974,9.9217,9.8682,9.8682,9.8682,9.8682,9.8682,9.8682,9.8682,9.8682,9.8682,9.8682,9.8682,9.8682,9.8682,9.8682,9.8682,9.8646,9.8539,9.7932,9.7457,9.7349,9.7349,9.7064,9.6374,9.685,9.6671,9.5447,9.5946,9.6303,9.6303,9.6957,9.7706,9.8503,9.7742,9.7671,9.8361,9.635,9.5922,9.704,9.6529,9.6303,9.6303,9.5851,9.635,9.7457,9.6886,9.6493,9.6303,9.641,9.6017,9.5397,9.5804,9.5563,9.5108,9.5866,9.6535,9.7126,9.4854,9.4827,9.493,9.5344,9.5413,9.5413,9.5413,9.5413,9.5413,9.5413,9.5413,9.5413,9.5413,9.5413,9.5544,9.5953,9.5872,9.5926,9.6187,9.6766,9.7416,9.8104,9.9271,10.0215,10.0881,10.1414,10.1211,10.0387,9.9706,9.9562,9.9954,9.911,9.9146,9.9954,9.9074,9.8932,9.9348,9.8896,9.8682,9.8753,9.9181,9.9384,9.9419,9.9776,9.9907,9.9907,9.9907,9.9907,9.9847,9.9491,10.0097,10.0918,10.0121,10.0406,10.0906,10.0513,10.0406,10.0406,10.0014,9.9633,9.9384,9.9384,9.9039,9.8682,9.8682,9.8682,9.8682,9.8682,9.8682,9.8682,9.8682,9.8682,9.8682,9.8682,9.8682,9.8682,9.8682,9.8396,9.8182,9.8182,9.779,9.7528,9.7647,9.7575,9.7385,9.7171,9.7468,9.7635,9.7635,9.7968,9.8325,9.8682,9.8361,9.8146,9.8039,9.6993,9.6386,9.6208,9.6267,9.6517,9.6957,9.71,9.7278,9.7492,9.7599,9.6886,9.5732,9.6636,9.5993,9.4646,9.5745,9.605,9.5858,9.6266,9.7107,9.807]},{"header":{"parameterUnit":"m.s-1","parameterCategory":1,"la1":30.6,"la2":28.766,"lo1":-90.7593,"lo2":-88.6598,"dy":0.0162,"dx":0.0183,"nx":116,"ny":114,"refTime":"2024-03-16T18:00:00:Z","depth":0,"parameterNumber":3,"parameterNumberName":"V-component_of_WINDS"},"data":[0.0,0.0,0.0,0.0,0.0,0.0,0.0,0.0,0.0,0.0,0.0,0.0,0.0,0.0,0.0,0.0,0.0,0.0,0.0,0.0,0.0,0.0,0.0,0.0,0.0,0.0,0.0,0.0,0.0,0.0,0.0,0.0,0.0,0.0,0.0,0.0,0.0,0.0,0.0,0.0,0.0,0.0,0.0,0.0,0.0,0.0,0.0,0.0,0.0,0.0,0.0,0.0,0.0,0.0,0.0,0.0,0.0,0.0,0.0,0.0,0.0,0.0,0.0,0.0,0.0,0.0,0.0,0.0,0.0,0.0,0.0,0.0,0.0,0.0,0.0,0.0,0.0,0.0,0.0,0.0,0.0,0.0,0.0,0.0,0.0,0.0,0.0,0.0,0.0,0.0,0.0,0.0,0.0,0.0,0.0,0.0,0.0,0.0,0.0,0.0,0.0,0.0,0.0,0.0,0.0,0.0,0.0,0.0,0.0,0.0,0.0,0.0,0.0,0.0,0.0,0.0,0.0,0.0,0.0,0.0,0.0,0.0,0.0,0.0,0.0,0.0,0.0,0.0,0.0,0.0,0.0,0.0,0.0,0.0,0.0,0.0,0.0,0.0,0.0,0.0,0.0,0.0,0.0,0.0,0.0,0.0,0.0,0.0,0.0,0.0,0.0,0.0,0.0,0.0,0.0,0.0,0.0,0.0,0.0,0.0,0.0,0.0,0.0,0.0,0.0,0.0,0.0,0.0,0.0,0.0,0.0,0.0,0.0,0.0,0.0,0.0,0.0,0.0,0.0,0.0,0.0,0.0,0.0,0.0,0.0,0.0,0.0,0.0,0.0,0.0,0.0,0.0,0.0,0.0,0.0,0.0,0.0,0.0,0.0,0.0,0.0,0.0,0.0,0.0,0.0,0.0,0.0,0.0,0.0,0.0,0.0,0.0,0.0,0.0,0.0,0.0,0.0,0.0,0.0,0.0,0.0,0.0,0.0,0.0,0.0,0.0,0.0,0.0,0.0,0.0,0.0,0.0,0.0,0.0,0.0,0.0,0.0,0.0,0.0,0.0,0.0,0.0,0.0,0.0,0.0,0.0,0.0,0.0,0.0,0.0,0.0,0.0,0.0,0.0,0.0,0.0,0.0,0.0,0.0,0.0,0.0,0.0,0.0,0.0,0.0,0.0,0.0,0.0,0.0,0.0,0.0,0.0,0.0,0.0,0.0,0.0,0.0,0.0,0.0,0.0,0.0,0.0,0.0,0.0,0.0,0.0,0.0,0.0,0.0,0.0,0.0,0.0,0.0,0.0,0.0,0.0,0.0,0.0,0.0,0.0,0.0,0.0,0.0,0.0,0.0,0.0,0.0,0.0,0.0,0.0,0.0,0.0,0.0,0.0,0.0,0.0,0.0,0.0,0.0,0.0,0.0,0.0,0.0,0.0,0.0,0.0,0.0,0.0,0.0,0.0,0.0,0.0,0.0,0.0,0.0,0.0,0.0,0.0,0.0,0.0,0.0,0.0,0.0,0.0,0.0,0.0,0.0,0.0,0.0,0.0,0.0,0.0,0.0,0.0,0.0,0.0,0.0,0.0,0.0,0.0,0.0,0.0,0.0,0.0,0.0,0.0,0.0,0.0,0.0,0.0,0.0,0.0,0.0,0.0,0.0,0.0,0.0,0.0,0.0,0.0,0.0,0.0,0.0,0.0,0.0,0.0,0.0,0.0,0.0,0.0,0.0,0.0,0.0,0.0,0.0,0.0,0.0,0.0,0.0,0.0,0.0,0.0,0.0,0.0,0.0,0.0,0.0,0.0,0.0,0.0,0.0,0.0,0.0,0.0,0.0,0.0,0.0,0.0,0.0,0.0,0.0,0.0,0.0,0.0,0.0,0.0,0.0,0.0,0.0,0.0,0.0,0.0,0.0,0.0,0.0,0.0,0.0,0.0,0.0,0.0,0.0,0.0,0.0,0.0,0.0,0.0,0.0,0.0,0.0,0.0,0.0,0.0,0.0,0.0,0.0,0.0,0.0,0.0,0.0,0.0,0.0,0.0,0.0,0.0,0.0,0.0,0.0,0.0,0.0,0.0,0.0,0.0,0.0,0.0,0.0,0.0,0.0,0.0,0.0,0.0,0.0,0.0,0.0,0.0,0.0,0.0,0.0,0.0,0.0,0.0,0.0,0.0,0.0,0.0,0.0,0.0,0.0,0.0,0.0,0.0,0.0,0.0,0.0,0.0,0.0,0.0,0.0,0.0,0.0,0.0,0.0,0.0,0.0,0.0,0.0,0.0,0.0,0.0,0.0,0.0,0.0,0.0,0.0,0.0,0.0,0.0,0.0,0.0,0.0,0.0,0.0,0.0,0.0,0.0,0.0,0.0,0.0,0.0,0.0,0.0,0.0,0.0,0.0,0.0,0.0,0.0,0.0,0.0,0.0,0.0,0.0,0.0,0.0,0.0,0.0,0.0,0.0,0.0,0.0,0.0,0.0,0.0,0.0,0.0,0.0,0.0,0.0,0.0,0.0,0.0,0.0,0.0,0.0,0.0,0.0,0.0,0.0,0.0,0.0,0.0,0.0,0.0,0.0,0.0,0.0,0.0,0.0,0.0,0.0,0.0,0.0,0.0,0.0,0.0,0.0,0.0,0.0,0.0,0.0,0.0,0.0,0.0,0.0,0.0,0.0,0.0,0.0,0.0,0.0,0.0,0.0,0.0,0.0,0.0,0.0,0.0,0.0,0.0,0.0,0.0,0.0,0.0,0.0,0.0,0.0,0.0,0.0,0.0,0.0,0.0,0.0,0.0,0.0,0.0,0.0,0.0,0.0,0.0,0.0,0.0,0.0,0.0,0.0,0.0,0.0,0.0,0.0,0.0,0.0,0.0,0.0,0.0,0.0,0.0,0.0,0.0,0.0,0.0,0.0,0.0,0.0,0.0,0.0,0.0,0.0,0.0,0.0,0.0,0.0,0.0,0.0,0.0,0.0,0.0,0.0,0.0,0.0,0.0,0.0,0.0,0.0,0.0,0.0,0.0,0.0,0.0,0.0,0.0,0.0,0.0,0.0,0.0,0.0,0.0,0.0,0.0,0.0,0.0,0.0,0.0,0.0,0.0,0.0,0.0,0.0,0.0,0.0,0.0,0.0,0.0,0.0,0.0,0.0,0.0,0.0,0.0,0.0,0.0,0.0,0.0,0.0,0.0,0.0,0.0,0.0,0.0,0.0,0.0,0.0,0.0,0.0,0.0,0.0,0.0,0.0,0.0,0.0,0.0,0.0,0.0,0.0,0.0,0.0,0.0,0.0,0.0,0.0,0.0,0.0,0.0,0.0,0.0,0.0,0.0,0.0,0.0,0.0,0.0,0.0,0.0,0.0,0.0,0.0,0.0,0.0,0.0,0.0,0.0,0.0,0.0,0.0,0.0,0.0,0.0,0.0,0.0,0.0,0.0,0.0,0.0,0.0,0.0,0.0,0.0,0.0,0.0,0.0,0.0,0.0,0.0,0.0,0.0,0.0,0.0,0.0,0.0,0.0,0.0,0.0,0.0,0.0,0.0,0.0,0.0,0.0,0.0,0.0,0.0,0.0,0.0,0.0,0.0,0.0,0.0,0.0,0.0,0.0,0.0,0.0,0.0,0.0,0.0,0.0,0.0,0.0,0.0,0.0,0.0,0.0,0.0,0.0,0.0,0.0,0.0,0.0,0.0,0.0,0.0,0.0,0.0,0.0,0.0,0.0,0.0,0.0,0.0,0.0,0.0,0.0,0.0,0.0,0.0,0.0,0.0,0.0,0.0,0.0,0.0,0.0,0.0,0.0,0.0,0.0,0.0,0.0,0.0,0.0,0.0,0.0,0.0,0.0,0.0,0.0,0.0,0.0,0.0,0.0,0.0,0.0,0.0,0.0,0.0,0.0,0.0,0.0,0.0,0.0,0.0,0.0,0.0,0.0,0.0,0.0,0.0,0.0,0.0,0.0,0.0,0.0,0.0,0.0,0.0,0.0,0.0,0.0,0.0,0.0,0.0,0.0,0.0,0.0,0.0,0.0,0.0,0.0,0.0,0.0,0.0,0.0,0.0,0.0,0.0,0.0,0.0,0.0,0.0,0.0,0.0,0.0,0.0,0.0,0.0,0.0,0.0,0.0,0.0,0.0,0.0,0.0,0.0,0.0,0.0,0.0,0.0,0.0,0.0,0.0,0.0,0.0,0.0,0.0,0.0,0.0,0.0,0.0,0.0,0.0,0.0,0.0,0.0,0.0,0.0,0.0,0.0,0.0,0.0,0.0,0.0,0.0,0.0,0.0,0.0,0.0,0.0,0.0,0.0,0.0,0.0,0.0,0.0,0.0,0.0,0.0,0.0,0.0,0.0,0.0,0.0,0.0,0.0,0.0,0.0,0.0,0.0,0.0,0.0,0.0,0.0,0.0,0.0,0.0,0.0,0.0,0.0,0.0,0.0,0.0,0.0,0.0,0.0,0.0,0.0,0.0,0.0,0.0,0.0,0.0,0.0,0.0,0.0,0.0,0.0,0.0,0.0,0.0,0.0,0.0,0.0,0.0,0.0,0.0,0.0,0.0,0.0,0.0,0.0,0.0,0.0,0.0,0.0,0.0,0.0,0.0,0.0,0.0,0.0,0.0,0.0,0.0,0.0,0.0,0.0,0.0,0.0,0.0,0.0,0.0,0.0,0.0,0.0,0.0,0.0,0.0,0.0,0.0,0.0,0.0,0.0,0.0,0.0,0.0,0.0,0.0,0.0,0.0,0.0,0.0,0.0,0.0,0.0,0.0,0.0,0.0,0.0,0.0,0.0,0.0,0.0,0.0,0.0,0.0,0.0,0.0,0.0,0.0,0.0,0.0,0.0,0.0,0.0,0.0,0.0,0.0,0.0,0.0,0.0,0.0,0.0,0.0,0.0,0.0,0.0,0.0,0.0,0.0,0.0,0.0,0.0,0.0,0.0,0.0,0.0,0.0,0.0,0.0,0.0,0.0,0.0,0.0,0.0,0.0,0.0,0.0,0.0,0.0,0.0,0.0,0.0,0.0,0.0,0.0,0.0,0.0,0.0,0.0,0.0,0.0,0.0,0.0,0.0,0.0,0.0,0.0,0.0,0.0,0.0,0.0,0.0,0.0,0.0,0.0,0.0,0.0,0.0,0.0,0.0,0.0,0.0,0.0,0.0,0.0,0.0,0.0,0.0,0.0,0.0,0.0,0.0,0.0,0.0,0.0,0.0,0.0,0.0,0.0,0.0,0.0,0.0,0.0,0.0,0.0,0.0,0.0,0.0,0.0,0.0,0.0,0.0,0.0,0.0,0.0,0.0,0.0,0.0,0.0,0.0,0.0,0.0,0.0,0.0,0.0,0.0,0.0,0.0,0.0,0.0,0.0,0.0,0.0,0.0,0.0,0.0,0.0,0.0,0.0,0.0,0.0,0.0,0.0,0.0,0.0,0.0,0.0,0.0,0.0,0.0,0.0,0.0,0.0,0.0,0.0,0.0,0.0,0.0,0.0,0.0,0.0,0.0,0.0,0.0,0.0,0.0,0.0,0.0,0.0,0.0,0.0,0.0,0.0,0.0,0.0,0.0,0.0,0.0,0.0,0.0,0.0,0.0,0.0,0.0,0.0,0.0,0.0,0.0,0.0,0.0,0.0,0.0,0.0,0.0,0.0,0.0,0.0,0.0,0.0,0.0,0.0,0.0,0.0,0.0,0.0,0.0,0.0,0.0,0.0,0.0,0.0,0.0,0.0,0.0,0.0,0.0,0.0,0.0,0.0,0.0,0.0,0.0,0.0,0.0,0.0,0.0,0.0,0.0,0.0,0.0,0.0,0.0,0.0,0.0,0.0,0.0,0.0,0.0,0.0,0.0,0.0,0.0,0.0,0.0,0.0,0.0,0.0,0.0,0.0,0.0,0.0,0.0,0.0,0.0,0.0,0.0,0.0,0.0,0.0,0.0,0.0,0.0,0.0,0.0,0.0,0.0,0.0,0.0,0.0,0.0,0.0,0.0,0.0,0.0,0.0,0.0,0.0,0.0,0.0,0.0,0.0,0.0,0.0,0.0,0.0,0.0,0.0,0.0,0.0,0.0,0.0,0.0,0.0,0.0,1.1038,0.0,0.0,0.0,0.0,0.0,0.0,0.0,0.0,0.0,0.0,0.0,0.0,0.0,0.0,0.0,0.0,0.0,0.0,0.0,0.0,0.0,0.0,0.0,0.0,0.0,0.0,0.0,0.0,0.0,0.0,0.0,0.0,0.0,0.0,0.0,0.9747,1.0081,1.0481,1.0967,1.1454,1.2511,1.4069,1.2618,1.1305,1.0179,0.0,0.0,0.0,0.0,0.0,0.0,0.0,0.0,0.0,0.0,0.0,0.0,0.0,0.0,0.0,0.0,0.0,0.0,0.0,0.0,0.0,0.0,0.0,0.0,0.0,0.0,0.0,0.0,0.0,0.0,0.0,0.0,0.0,0.0,0.0,0.0,0.0,0.0,0.0,0.0,0.0,0.0,0.0,0.0,0.0,0.0,0.0,0.0,0.0,0.0,0.0,0.0,0.0,0.0,0.0,0.0,0.0,0.0,0.0,0.0,0.0,0.0,0.0,0.0,0.0,0.0,0.0,0.0,0.0,0.0,0.0,1.1958,0.0,0.0,0.0,0.0,0.0,0.0,0.0,0.0,0.0,0.0,0.0,0.0,0.0,0.0,0.0,0.0,0.0,0.0,0.0,0.0,0.0,0.0,0.0,1.1542,1.1894,1.2,1.236,1.2302,0.0,0.0,0.0,0.0,0.0,1.1076,1.1183,1.1655,1.21,1.2537,1.3897,1.5253,1.6572,1.725,1.6227,1.3811,1.2966,0.0,0.0,0.0,0.0,0.0,0.0,0.0,0.0,0.0,0.0,0.0,0.0,0.0,0.0,0.0,0.0,0.0,0.0,0.0,0.0,0.0,0.0,0.0,0.0,0.0,0.0,0.0,0.0,0.0,0.0,0.0,0.0,0.0,0.0,0.0,0.0,0.0,0.0,0.0,0.0,0.0,0.0,0.0,0.0,0.0,0.0,0.0,0.0,0.0,0.0,0.0,0.0,0.0,0.0,0.0,0.0,0.0,0.0,0.0,0.0,0.0,0.0,0.0,0.0,0.0,1.5276,1.5313,1.5445,1.5568,1.4418,1.3613,1.314,0.0,0.0,0.0,0.0,0.0,0.0,0.0,0.0,0.0,0.0,0.0,0.0,0.0,0.0,0.0,0.0,0.0,0.0,0.0,0.0,0.0,0.0,1.2427,1.2816,1.2842,1.2904,1.2834,1.2621,0.0,1.2164,1.1689,1.1783,1.188,1.1956,1.2473,1.3488,1.5025,1.8112,1.9897,2.0413,2.1868,2.2072,2.103,1.7129,1.5713,1.615,0.0,0.0,0.0,0.0,0.0,0.0,0.0,0.0,0.0,0.0,0.0,0.0,0.0,0.0,0.0,0.0,0.0,0.0,0.0,0.0,0.0,0.0,0.0,0.0,0.0,0.0,0.0,0.0,0.0,0.0,0.0,0.0,0.0,0.0,0.0,0.0,0.0,0.0,0.0,0.0,0.0,1.174,1.1766,0.0,0.0,0.0,0.0,0.0,0.0,0.0,0.0,0.0,0.0,0.0,0.0,0.0,0.0,1.4886,1.5849,1.6197,1.5922,1.685,1.7124,1.6821,1.6991,1.719,1.7369,1.718,0.0,1.4568,1.4027,0.0,0.0,0.0,0.0,0.0,0.0,0.0,0.0,0.0,0.0,0.0,0.0,0.0,0.0,0.0,0.0,0.0,0.0,0.0,0.0,0.0,1.3667,1.427,1.4765,1.5516,1.5546,1.4495,1.4706,1.4369,1.3257,1.3367,1.361,1.3895,1.4828,1.6614,1.9277,2.1747,2.33,2.399,2.4875,2.5264,2.5075,2.274,2.0674,1.8833,1.6735,0.0,0.0,0.0,0.0,0.0,0.0,0.0,0.0,0.0,0.0,0.0,0.0,0.0,0.0,0.0,0.0,0.0,0.0,0.0,0.0,0.0,0.0,0.0,0.0,0.0,0.0,0.0,0.0,0.0,0.0,0.0,0.0,0.0,0.0,0.0,0.0,0.0,0.0,0.0,1.1514,1.2013,1.2015,1.2112,1.201,0.0,0.0,0.0,0.0,0.0,0.0,0.0,0.0,0.0,1.4957,1.5632,1.6199,1.6596,1.7445,1.7879,1.7956,1.8503,1.8728,1.8692,1.8766,1.8851,1.8936,1.8936,1.8275,1.7114,1.5895,1.4893,1.4062,0.0,0.0,0.0,0.0,0.0,0.0,0.0,0.0,0.0,0.0,0.0,0.0,0.0,0.0,0.0,0.0,0.0,0.0,1.4394,1.5256,1.6125,1.704,1.7905,1.7906,1.6696,1.6582,1.6039,1.4843,1.4759,1.5011,1.5629,1.7504,1.9965,2.2993,2.4797,2.6201,2.7266,2.7589,2.7936,2.8249,2.7467,2.5296,2.2053,1.9596,1.8344,1.7825,0.0,0.0,0.0,0.0,0.0,0.0,0.0,0.0,0.0,0.0,0.0,0.0,0.0,0.0,0.0,0.0,0.0,0.0,0.0,0.0,0.0,0.0,0.0,0.0,0.0,0.0,0.0,0.0,0.0,0.0,0.0,0.0,0.0,0.0,0.0,0.0,0.0,1.208,1.2447,1.2296,1.273,1.2777,0.0,0.0,0.0,0.0,0.0,0.0,1.4827,1.5434,1.6095,1.6821,1.7416,1.7917,1.8341,1.8938,1.9382,1.9694,1.9902,2.0081,2.0242,2.0242,2.0242,2.0242,2.0242,1.9911,1.925,1.7644,1.6415,1.5492,1.5094,1.4761,0.0,1.477,1.4931,1.5085,0.0,0.0,0.0,0.0,0.0,0.0,0.0,0.0,0.0,0.0,0.0,1.4722,1.6121,1.733,1.846,1.953,1.9043,1.88,1.9097,1.7294,1.6193,1.6119,1.5433,1.5527,1.6505,2.0086,2.2995,2.5141,2.7074,2.873,3.0105,3.0445,3.0809,3.1138,3.0087,2.8593,2.6658,2.3556,2.207,2.1537,1.8127,0.0,0.0,0.0,0.0,0.0,0.0,0.0,0.0,0.0,0.0,0.0,0.0,0.0,0.0,0.0,0.0,0.0,0.0,0.0,0.0,0.0,0.0,0.0,0.0,0.0,0.0,0.0,0.0,0.0,0.0,0.0,0.0,0.0,0.0,0.0,0.0,0.0,0.0,1.2833,1.3942,0.0,0.0,0.0,0.0,1.4197,1.4985,1.574,1.6357,1.6954,1.7681,1.8542,1.9167,1.9675,2.0069,2.0494,2.0697,2.0726,2.0989,2.1116,2.1135,2.1135,2.1135,2.1135,2.1135,2.0866,2.0301,1.8892,1.7899,1.7218,1.6822,1.667,1.6623,1.6443,1.6623,1.6916,0.0,0.0,0.0,0.0,0.0,0.0,0.0,0.0,1.2168,1.2996,1.4406,1.5922,1.7471,1.913,2.0799,2.242,2.2516,2.2358,2.2011,2.047,1.9392,1.9055,1.8033,1.8502,2.0665,2.2914,2.5217,2.7544,2.9152,3.0425,3.1344,3.1668,3.1909,3.203,3.1434,3.0801,2.9992,2.6636,2.4497,2.3166,2.0719,1.8683,0.0,0.0,0.0,0.0,0.0,0.0,0.0,0.0,0.0,0.0,0.0,0.0,0.0,0.0,0.0,0.0,0.0,0.0,0.0,0.0,0.0,0.0,0.0,0.0,0.0,0.0,0.0,0.0,0.0,0.0,0.0,0.0,0.0,0.0,0.0,0.0,0.0,1.4585,1.5498,0.0,0.0,1.5316,1.5678,1.6075,1.6746,1.7473,1.8258,1.8861,1.9465,2.0031,2.0544,2.0898,2.1049,2.131,2.1428,2.1428,2.1537,2.1598,2.1598,2.1598,2.1598,2.1598,2.1598,2.1428,2.1102,2.0595,1.9697,1.8598,1.8314,1.806,1.7852,1.789,1.8003,1.8117,0.0,0.0,0.0,0.0,0.0,0.0,0.0,0.0,1.2599,1.3731,1.5539,1.7368,1.9062,2.1196,2.3179,2.4833,2.4953,2.4734,2.4273,2.246,2.1208,2.0753,2.0294,2.1134,2.3499,2.5389,2.7439,2.9665,3.0972,3.1891,3.2459,3.2773,3.2888,3.2761,3.2428,3.2269,3.209,2.9537,2.738,2.5484,2.3165,2.1423,1.9917,0.0,0.0,0.0,0.0,0.0,0.0,0.0,0.0,0.0,0.0,0.0,0.0,0.0,0.0,0.0,0.0,0.0,0.0,0.0,0.0,0.0,0.0,0.0,0.0,0.0,0.0,0.0,0.0,0.0,0.0,0.0,0.0,0.0,0.0,0.0,1.5555,1.5873,1.6877,1.7294,1.666,1.6934,1.7341,1.7804,1.875,1.9473,1.9914,2.0718,2.1169,2.1253,2.1603,2.1835,2.191,2.2094,2.2198,2.2198,2.2013,2.2038,2.2198,2.2013,2.2038,2.2198,2.2198,2.2038,2.1806,2.1806,2.1153,2.01,1.9741,1.9392,1.9119,1.9174,1.924,1.9297,0.0,0.0,0.0,0.0,0.0,0.0,0.0,1.2278,1.29,1.5264,1.7191,1.9059,2.0937,2.3549,2.5579,2.6676,2.6066,2.567,2.5734,2.3043,2.1339,2.1092,2.2048,2.326,2.472,2.744,2.9713,3.1462,3.2495,3.3195,3.3544,3.3853,3.3821,3.3529,3.3199,3.304,3.2992,3.2269,3.0791,2.8665,2.5515,2.4417,2.423,0.0,0.0,0.0,0.0,0.0,0.0,0.0,0.0,0.0,0.0,0.0,0.0,0.0,0.0,0.0,0.0,0.0,0.0,0.0,0.0,0.0,0.0,0.0,0.0,0.0,0.0,0.0,0.0,0.0,0.0,0.0,0.0,0.0,1.4037,1.5498,1.6565,1.6603,1.805,1.8645,1.7624,1.8496,1.9178,1.9354,2.0953,2.1743,2.1317,2.24,2.2787,2.2225,2.2385,2.2559,2.2792,2.2941,2.3011,2.3011,2.2457,2.2457,2.2935,2.2432,2.2482,2.2986,2.2986,2.2784,2.2406,2.2406,2.217,2.1745,2.1098,2.0707,2.0499,2.0314,2.0361,2.0481,0.0,0.0,0.0,0.0,0.0,0.0,0.0,1.2696,1.3486,1.5048,1.7579,2.0003,2.2039,2.4636,2.68,2.8107,2.7085,2.6514,2.6767,2.3915,2.2379,2.2788,2.4013,2.5721,2.7963,2.9197,3.0725,3.2563,3.3006,3.3557,3.4223,3.3961,3.3982,3.4223,3.4128,3.408,3.4069,3.3619,3.2809,3.1592,2.8681,2.6821,2.5532,0.0,0.0,0.0,0.0,0.0,0.0,0.0,0.0,0.0,0.0,0.0,0.0,0.0,0.0,0.0,0.0,0.0,0.0,0.0,0.0,0.0,0.0,0.0,0.0,0.0,0.0,0.0,0.0,0.0,0.0,0.0,0.0,1.5534,1.5591,1.6737,1.7935,1.8862,1.9757,2.028,2.0179,2.1198,2.1627,2.0957,2.302,2.4002,2.3265,2.3737,2.4174,2.4543,2.4242,2.4277,2.4737,2.3971,2.3589,2.3564,2.2255,2.1709,2.1851,2.2078,2.228,2.2432,2.2835,2.2945,2.2831,2.268,2.2463,2.2179,2.1707,2.1404,2.1229,2.1172,2.097,2.0707,0.0,0.0,0.0,0.0,0.0,0.0,0.0,1.3126,1.4025,1.5671,1.845,2.1042,2.3072,2.5581,2.7439,2.8265,2.7471,2.674,2.6358,2.434,2.3522,2.4308,2.5778,2.753,2.9551,3.0659,3.1971,3.3535,3.3756,3.4113,3.4632,3.43,3.4198,3.4316,3.4316,3.4424,3.4601,3.427,3.4018,3.3672,3.1764,2.9936,2.8188,2.647,2.5015,2.3657,2.1835,2.0904,2.0198,1.814,0.0,0.0,0.0,0.0,0.0,0.0,0.0,0.0,0.0,0.0,0.0,0.0,0.0,0.0,0.0,0.0,0.0,0.0,0.0,0.0,0.0,0.0,0.0,0.0,1.6177,1.7435,1.8299,1.8555,1.9078,2.0154,2.1058,2.1583,2.1588,2.3021,2.3622,2.2787,2.4256,2.505,2.4653,2.4752,2.5076,2.5615,2.4926,2.5129,2.6239,2.497,2.4703,2.5405,2.3521,2.2732,2.2929,2.247,2.2357,0.0,2.3058,2.3203,2.3108,2.2901,2.2765,0.0,0.0,0.0,0.0,0.0,2.1452,2.122,0.0,0.0,0.0,0.0,0.0,0.0,0.0,1.3494,1.4467,1.675,1.9456,2.189,2.3815,2.612,2.7548,2.7627,2.7295,2.6549,2.531,2.4704,2.4854,2.5886,2.7511,2.9032,3.0423,3.198,3.3321,3.4411,3.4595,3.4726,3.483,3.4652,3.4459,3.4214,3.4214,3.4441,3.4799,3.4511,3.4609,3.4903,3.4319,3.3082,3.1347,2.9321,2.8403,2.7883,2.5689,2.4151,2.2897,2.154,0.0,0.0,0.0,0.0,0.0,0.0,0.0,0.0,0.0,0.0,0.0,0.0,0.0,0.0,0.0,0.0,0.0,0.0,0.0,0.0,0.0,0.0,0.0,0.0,1.7702,1.9488,2.153,2.0755,2.0311,2.122,2.2126,2.2656,2.2567,2.4294,2.5173,2.4597,2.5204,2.5642,2.5785,0.0,0.0,0.0,0.0,2.581,2.7628,2.6199,2.6249,2.7749,2.5563,2.4743,2.5156,2.356,2.3074,2.3529,2.3767,2.3749,2.3542,2.3168,2.3005,2.2929,2.2387,2.2056,2.1886,2.1839,2.1811,0.0,0.0,0.0,0.0,0.0,0.0,0.0,0.0,1.3627,1.4771,1.6959,1.9403,2.1634,2.3422,2.5341,2.6709,2.7248,2.674,2.6279,2.6009,2.612,2.6898,2.8492,2.952,3.1035,3.3189,3.3667,3.4323,3.5186,3.5115,3.5081,3.5028,3.4638,3.4615,3.4915,3.4915,3.496,3.505,3.4974,3.4835,3.4676,3.4648,3.3851,3.2539,3.1144,3.0297,2.9629,2.8044,2.8009,2.8368,2.5972,2.4323,2.2816,2.0279,0.0,0.0,0.0,0.0,0.0,0.0,0.0,0.0,0.0,0.0,0.0,0.0,0.0,0.0,0.0,0.0,0.0,0.0,0.0,0.0,1.869,2.0077,2.1679,2.3438,2.2868,2.2864,2.4474,2.3354,2.3257,2.5292,2.5805,2.5897,2.5556,2.7364,2.8246,2.7711,2.7821,0.0,2.9319,2.8741,2.8812,2.9625,2.8446,2.8022,2.8311,0.0,0.0,2.5922,2.5987,2.6082,2.6115,2.5545,2.5268,2.513,2.3785,2.3146,2.2957,2.2674,2.2567,2.2491,2.216,2.1934,2.1787,0.0,0.0,0.0,0.0,0.0,0.0,0.0,1.3775,1.4871,1.7021,1.9109,2.1068,2.2817,2.4102,2.4992,2.5326,2.504,2.5184,2.5944,2.6913,2.8358,3.0366,3.1234,3.2258,3.3575,3.4099,3.4675,3.5402,3.5278,3.5395,3.5731,3.5265,3.5171,3.5405,3.5405,3.5521,3.5739,3.5565,3.5538,3.5601,3.5609,3.525,3.4537,3.3063,3.2214,3.1661,3.0557,3.0269,3.0136,2.847,2.6851,2.5183,2.3162,2.0524,1.7934,0.0,0.0,0.0,0.0,0.0,0.0,0.0,0.0,0.0,0.0,0.0,0.0,0.0,0.0,1.5835,1.5981,0.0,2.0141,2.1058,2.2305,2.3604,2.4922,2.4806,2.4743,2.5164,2.481,2.4961,2.5946,2.7353,2.7972,2.7429,2.8329,2.8997,2.9186,2.8752,2.9029,3.015,2.9469,2.97,3.0987,2.9561,2.9353,3.0329,2.8506,2.735,2.679,2.6368,2.5679,2.4844,2.4642,2.4387,2.4026,2.3169,2.2797,2.2731,2.2638,2.2647,2.269,2.2482,2.2274,2.2056,0.0,0.0,0.0,0.0,0.0,0.0,0.0,1.3886,1.4815,1.682,1.8548,2.0155,2.1621,2.2452,2.2978,2.3184,2.3517,2.4442,2.6162,2.7756,2.9643,3.1833,3.2643,3.3221,3.3663,3.4441,3.5126,3.5748,3.5735,3.6027,3.6534,3.6055,3.5838,3.5824,3.5765,3.5951,3.6295,3.6136,3.6205,3.6475,3.656,3.6496,3.6195,3.4747,3.3966,3.3498,3.2642,3.1604,3.0576,3.0195,2.8668,2.679,2.5815,2.3694,2.1251,1.9677,1.8431,0.0,0.0,0.0,0.0,0.0,0.0,0.0,0.0,0.0,1.5412,1.5914,1.7228,1.8373,1.8651,2.0424,2.2192,2.328,2.4266,2.5302,2.6436,2.6398,2.6132,2.5678,2.6283,2.6749,2.6721,2.8651,2.9699,2.9311,2.8827,2.909,3.0335,2.9383,2.938,3.0628,2.9884,3.0224,3.1776,3.0489,3.0619,3.2088,3.0569,2.9376,2.8457,2.7253,2.595,2.462,2.4392,2.3808,2.2991,2.2654,2.2544,2.2607,2.2607,2.2692,2.2806,2.2759,2.2633,2.2425,0.0,0.0,0.0,0.0,0.0,0.0,0.0,0.0,1.464,1.6126,1.7572,1.8669,1.9153,2.0134,2.1128,2.208,2.3577,2.5453,2.7785,2.9427,3.1148,3.3021,3.3536,3.4262,3.5296,3.5783,3.6317,3.7002,3.7453,3.7484,3.7085,3.6582,3.6304,3.6304,3.6006,3.5919,3.599,3.6409,3.637,3.6048,3.6929,3.683,3.6113,3.5769,3.5271,3.4579,3.3544,3.2287,3.1225,3.1862,3.0658,2.8869,2.8788,2.7027,2.4732,2.3598,0.0,1.926,1.8213,1.6659,1.5497,1.6239,1.614,1.6578,0.0,0.0,1.8769,2.0403,2.1136,2.1436,2.1224,2.3432,2.5287,2.5375,2.5741,2.6623,2.8413,2.7239,2.6792,2.8357,2.7607,2.7787,2.9865,2.9233,2.9145,3.0262,2.9346,2.947,3.1082,3.0385,3.0666,3.229,3.2001,3.1769,3.1715,3.2043,3.207,3.175,3.207,3.2156,3.2007,3.1622,3.1314,3.1021,2.8546,2.647,2.4743,2.37,2.3165,2.3026,2.3026,2.3117,2.3222,2.3023,2.285,2.2642,0.0,0.0,0.0,0.0,0.0,0.0,0.0,0.0,0.0,1.5723,1.6587,1.7292,1.7858,1.8505,1.9082,1.9575,2.2098,2.4566,2.6669,2.9416,3.1881,3.3969,3.4597,3.5256,3.6046,3.6551,3.6997,3.7486,3.7611,3.7639,3.7601,3.7254,3.7095,3.708,3.6741,3.6593,3.6603,3.6645,3.6596,3.6522,3.7019,3.7075,3.6784,3.6238,3.5288,3.4116,3.2998,3.1823,0.0,3.0728,2.9801,2.8736,2.903,2.7034,2.4494,2.4122,2.1985,0.0,1.9284,1.8658,0.0,0.0,1.9084,1.9887,2.1188,2.1568,2.1782,2.2219,2.3448,2.4279,2.3682,2.5181,2.6579,0.0,2.7033,2.7469,2.839,2.8253,2.8305,2.8936,2.8781,2.9032,3.0048,3.0167,3.035,3.0699,3.0616,3.0838,3.1488,3.1385,3.1718,3.2564,3.2483,3.2622,3.2974,3.2719,3.2719,3.2974,3.2719,3.2263,3.1605,3.1504,3.0421,2.8553,2.6897,2.529,2.3769,2.3323,2.3179,2.3245,2.3162,2.3356,2.3663,2.3297,2.3042,2.286,0.0,0.0,0.0,0.0,0.0,0.0,0.0,0.0,0.0,0.0,1.5659,1.62,1.6926,1.7212,1.7539,1.7975,2.0796,2.3507,2.5754,2.9133,3.2016,3.4236,3.5114,3.5782,3.6303,3.6928,3.7451,3.7891,3.7872,3.7989,3.8229,3.794,3.7806,3.7816,3.7442,3.7236,3.7198,3.7061,3.6976,3.6976,3.7331,3.7331,3.7032,3.6136,3.4692,3.3015,3.2206,3.084,2.9335,2.8995,2.8292,2.7671,2.8309,2.6533,2.4266,2.4485,2.2437,2.0029,1.9635,0.0,0.0,2.0453,2.1449,2.2536,2.3081,2.3866,2.448,2.4494,2.5629,2.6483,2.6077,2.6803,2.7546,2.7874,2.797,2.807,2.8278,2.8721,2.8973,2.8717,2.9334,2.9795,2.9809,3.0648,3.1265,3.1493,3.1609,3.1929,3.2511,3.2392,3.2622,3.3304,3.3081,3.3301,3.3989,3.3375,3.3307,3.3752,3.3457,3.2699,3.1611,3.1844,3.0488,2.7866,2.7218,2.5912,2.4253,2.3846,2.3592,2.3481,2.3309,2.3597,2.4029,2.3644,2.3344,2.3118,0.0,0.0,0.0,0.0,0.0,0.0,0.0,0.0,0.0,0.0,0.0,0.0,0.0,1.6228,1.6799,1.8165,2.0233,2.2787,2.5977,2.8971,3.1513,3.3544,3.4781,3.5631,3.6109,3.6962,3.7725,3.8383,3.8847,3.9033,3.9049,3.8575,3.8378,3.8363,3.7969,3.7641,3.7416,3.7869,3.7685,3.7163,3.8029,3.7577,3.6331,3.5387,3.3551,3.1471,3.142,2.9351,2.6689,2.7127,2.6563,2.5866,2.6928,2.6243,0.0,2.5543,2.3524,2.0809,1.9256,0.0,2.0692,2.1548,2.2566,2.378,2.5433,2.6116,2.6816,2.8238,2.8048,2.7841,2.8398,2.8506,2.8464,2.8241,2.8361,2.8512,2.8575,2.8329,2.8089,2.7949,2.8972,2.9764,0.0,3.0355,3.1283,3.2899,3.198,3.2317,3.4583,3.3355,3.3359,3.5057,3.4303,3.3999,3.4299,3.4262,3.3983,3.3424,3.4569,3.4482,3.334,3.4266,3.3851,3.2376,3.2091,3.0363,2.7642,2.6191,2.4848,2.3682,2.3673,2.393,2.4283,2.4075,2.3805,2.3533,0.0,0.0,0.0,0.0,0.0,0.0,0.0,0.0,0.0,0.0,0.0,0.0,0.0,0.0,0.0,0.0,1.932,2.1452,2.3933,2.7333,3.0195,3.2251,3.4089,3.5496,3.6411,3.6861,3.7574,3.86,3.8611,3.872,3.8895,3.8607,3.8479,3.845,3.7905,3.7635,3.7513,3.7381,3.7094,3.679,3.6985,3.6733,3.6091,3.5043,3.2868,3.0203,0.0,2.7306,2.5534,2.5231,2.4911,2.4753,2.5548,2.4347,2.2373,2.0997,2.0569,2.0514,2.0354,2.1487,2.2915,2.3887,2.4965,2.5952,2.6609,2.714,2.7641,2.8134,2.7806,2.7596,2.8111,2.756,2.725,2.7961,2.7717,2.7846,2.8957,2.8682,2.8443,2.862,2.9121,0.0,0.0,0.0,0.0,3.2603,3.2397,3.2785,3.4073,3.4093,3.4411,3.5192,3.4534,3.459,3.5498,3.469,3.4606,3.5192,3.5192,3.4789,3.3992,3.414,3.3304,3.1729,3.1449,3.0214,2.8377,2.79,2.6864,2.5625,2.5488,2.5042,2.4474,2.4266,2.4143,2.3994,0.0,0.0,0.0,0.0,0.0,0.0,0.0,0.0,0.0,0.0,0.0,0.0,0.0,0.0,0.0,0.0,0.0,2.0392,2.2507,2.5485,2.8131,3.0282,3.1717,3.3,3.4172,3.4217,3.4936,3.6407,3.6666,3.7056,3.7556,3.7702,3.7673,3.7516,3.7271,3.709,3.6967,3.6723,3.6357,3.5914,3.5335,3.4661,3.3873,3.2444,3.0172,0.0,2.5914,2.4595,2.353,2.2956,2.2859,2.2992,2.3237,2.2392,2.1016,1.9367,1.9972,2.1317,2.2055,2.3271,2.4623,2.5819,2.6829,2.7588,2.7948,2.8217,2.8392,2.8312,2.77,2.7302,2.7665,2.6761,2.6335,2.7519,2.7375,2.7584,2.8938,2.9106,2.9082,2.9034,2.9623,3.007,0.0,0.0,0.0,3.2914,3.3258,3.3821,3.4706,3.5094,3.5346,3.5526,3.5151,3.5341,3.6225,3.5382,3.5344,3.6081,3.5055,3.4789,3.5209,3.5043,3.4608,3.3934,3.3661,3.234,3.0332,2.9398,2.8055,2.6546,2.5784,2.5169,2.4655,2.4398,2.4342,2.4332,0.0,0.0,0.0,0.0,0.0,0.0,0.0,0.0,0.0,0.0,0.0,0.0,0.0,0.0,0.0,0.0,0.0,0.0,2.1701,2.3497,2.547,2.7674,2.7969,2.8608,2.9776,2.9532,3.0312,3.2178,3.3221,3.4187,3.508,3.5814,3.5949,3.5594,3.5972,3.5966,3.5667,3.5758,3.5323,3.4421,3.3052,3.1567,2.9947,2.7963,2.5898,2.3924,2.2571,2.1557,2.0832,2.0527,2.0674,2.0933,2.0403,2.0742,2.1234,2.079,2.1777,2.3236,2.4237,2.5014,2.5937,2.7428,2.8181,2.8719,2.9349,2.9299,2.9007,2.8739,2.7689,2.6872,0.0,0.0,2.5818,2.6984,2.7399,2.7865,2.8654,2.9663,3.0051,0.0,0.0,0.0,0.0,0.0,0.0,3.3863,0.0,3.5213,3.6432,3.6271,3.6137,3.6137,3.6137,3.6253,3.6529,3.635,3.6261,3.6233,3.4575,3.4885,3.6941,3.6913,3.7467,3.8403,3.8138,3.6272,3.3255,3.0777,2.8533,2.6529,2.4882,2.4483,2.4808,2.4465,2.4419,2.4468,0.0,0.0,0.0,0.0,0.0,0.0,0.0,0.0,0.0,0.0,0.0,0.0,0.0,0.0,0.0,0.0,0.0,0.0,1.9622,2.1789,2.357,2.4728,2.662,2.7942,2.8543,2.9071,2.9688,3.044,3.097,3.1473,3.197,3.2393,3.2671,3.2811,3.2667,3.2546,3.2453,3.214,3.1598,3.0868,3.009,2.9222,2.8279,2.7502,2.5898,2.4019,2.3341,2.2007,2.0559,2.0721,2.1531,2.2419,2.214,2.2543,2.3082,2.2863,2.3745,2.5124,2.681,2.8196,2.9421,3.0475,3.058,3.0254,2.9694,2.8536,2.7473,2.7153,2.5608,2.4369,0.0,0.0,0.0,2.6695,2.7897,0.0,3.1095,3.1553,0.0,3.1851,0.0,3.2853,3.2616,3.3413,0.0,0.0,3.4636,3.507,3.6432,3.6615,3.6692,3.6692,3.6514,3.654,3.6811,3.7877,3.8418,3.8418,3.8848,3.8418,3.7263,3.7021,3.6111,3.4751,3.4484,3.3756,3.2771,3.2101,3.0258,2.7837,2.7609,2.6152,2.4274,2.4633,2.4395,2.3942,0.0,0.0,0.0,0.0,0.0,0.0,0.0,0.0,0.0,0.0,0.0,0.0,0.0,0.0,0.0,0.0,0.0,0.0,0.0,2.0297,2.1497,2.2267,2.3376,2.4317,2.5018,2.53,2.596,2.7035,2.7688,2.8322,2.8909,2.9411,2.9658,2.9694,2.9652,2.9637,2.9629,2.9409,2.8945,0.0,0.0,2.6438,2.558,2.4913,2.3848,2.2654,2.2277,2.1785,2.1433,2.2259,2.2441,2.2511,2.3488,2.4052,2.4516,2.5302,2.6543,2.8016,2.9586,3.0524,3.1247,3.2047,3.1509,3.0483,2.9247,2.7834,2.6449,2.5259,2.3699,0.0,2.265,2.2874,0.0,0.0,0.0,0.0,3.2129,3.2755,3.3142,0.0,3.4004,0.0,3.4202,3.4647,3.5204,0.0,3.555,3.5721,3.6619,3.706,3.7188,3.6908,3.7012,3.7419,3.8124,3.8708,3.8959,3.8807,3.8293,3.8183,3.8335,3.7631,3.755,3.7977,0.0,3.6746,3.6138,3.4874,3.2867,3.0488,2.9617,2.7691,2.5457,2.563,2.5117,2.4336,0.0,0.0,0.0,0.0,0.0,0.0,0.0,0.0,0.0,0.0,0.0,0.0,0.0,0.0,0.0,0.0,0.0,0.0,0.0,0.0,1.9604,2.0258,1.9775,1.9936,2.0882,2.0693,2.1401,2.311,2.4171,2.5125,2.5912,2.6547,2.6703,2.6488,2.6784,2.6909,2.6911,2.6969,2.666,2.5961,2.4689,2.3594,2.2627,0.0,0.0,2.0851,2.0575,2.1274,2.2607,2.4197,2.3701,2.2809,2.5139,2.5976,2.6403,2.8128,2.9785,3.1275,3.2182,3.2301,3.2304,3.2738,3.1679,3.0128,2.8545,2.7158,2.5576,2.3279,0.0,2.124,2.1024,2.1574,2.3016,2.5912,0.0,2.9545,3.2468,3.3537,3.4307,3.5067,3.5351,3.5605,3.5858,3.5698,3.5965,3.6953,3.6846,3.6834,3.702,3.7529,3.7652,3.7323,3.7793,3.8614,3.9729,3.9123,3.8676,3.8387,3.6331,3.6868,3.9575,3.8707,4.0105,4.3133,0.0,0.0,4.0352,3.7781,3.5526,3.354,3.1449,2.9414,2.7614,2.7156,2.6271,2.52,0.0,0.0,0.0,0.0,0.0,0.0,0.0,0.0,0.0,0.0,1.6033,1.5701,0.0,0.0,0.0,0.0,0.0,0.0,0.0,0.0,0.0,1.9162,1.9387,1.9617,1.9859,2.0602,2.1031,2.1095,2.2069,2.2615,2.2793,2.3182,2.347,2.3701,2.3749,2.378,2.3764,2.3517,2.3163,2.2764,2.2198,2.1677,2.1232,2.1058,0.0,0.0,2.082,2.1153,2.198,2.4565,2.6149,2.7322,2.8909,3.0212,3.1238,3.1747,3.2685,3.3566,3.3545,3.3888,3.4088,3.3323,3.217,3.0682,2.8587,2.6374,0.0,0.0,2.0781,2.0063,1.9432,2.0998,2.3146,2.5385,2.7662,3.0217,3.3334,3.4286,3.5226,0.0,3.6992,3.7128,3.738,0.0,0.0,0.0,0.0,3.7891,3.7676,3.7742,3.8342,3.9525,3.9417,3.9573,4.0037,3.922,3.888,3.9058,4.0304,4.0455,3.9644,4.0654,4.0555,3.9568,0.0,0.0,3.8663,3.7659,3.6354,3.4924,3.4229,3.2151,2.9442,2.8705,2.7262,2.5599,0.0,0.0,0.0,0.0,0.0,0.0,0.0,1.4998,1.5827,1.7939,1.7877,1.7408,1.6853,1.6736,1.6853,0.0,0.0,0.0,0.0,0.0,0.0,0.0,1.889,1.9019,1.9091,1.9853,2.0273,2.029,0.0,2.1432,2.1432,2.1592,2.1751,2.1912,2.1912,2.1912,2.1896,2.1751,2.1576,2.1414,2.1216,2.1042,0.0,0.0,0.0,0.0,0.0,2.147,2.2502,2.4229,2.6287,2.8486,3.0703,3.1956,3.2757,3.3521,3.4553,3.5354,3.4911,3.5415,3.5661,3.4083,3.2546,3.0628,2.7463,0.0,0.0,0.0,1.928,1.896,1.8343,2.0345,2.2639,2.4329,2.6396,2.8998,3.2531,3.3317,3.44,3.6668,3.7227,3.7569,0.0,0.0,0.0,0.0,0.0,3.8498,3.896,3.9139,3.9261,3.937,3.9862,4.0191,4.0302,4.0378,4.0491,4.0619,4.1165,4.1438,4.1492,4.1695,4.1776,4.1691,0.0,0.0,4.0754,4.0157,3.8955,3.7482,3.7017,3.5111,3.2578,3.2107,3.0034,2.743,0.0,0.0,0.0,0.0,0.0,0.0,0.0,1.5933,1.6826,1.954,1.9802,1.9385,1.8468,1.7627,1.7223,0.0,0.0,0.0,0.0,0.0,0.0,0.0,0.0,0.0,0.0,0.0,0.0,1.9891,2.0578,0.0,0.0,0.0,0.0,0.0,2.0899,2.0899,2.0899,2.0899,2.0899,0.0,0.0,2.0899,0.0,0.0,0.0,0.0,0.0,2.1531,2.2555,2.3704,2.5526,2.7784,3.0548,3.2006,3.2968,3.4369,3.5497,3.6242,3.5979,3.6448,3.6507,3.45,3.2663,3.0282,2.6374,2.3888,0.0,1.8541,1.808,1.8108,1.7678,1.9732,2.1893,2.3171,2.5027,2.7545,3.1083,3.2147,3.3522,3.6186,3.707,0.0,3.8319,3.8143,0.0,0.0,0.0,0.0,3.9763,4.0257,4.0181,3.95,4.041,4.1015,4.1288,4.1572,4.174,4.1784,4.1336,4.1554,4.2414,4.2061,4.2391,4.3251,0.0,0.0,0.0,4.1191,4.0016,3.8592,3.7771,3.6147,3.415,3.3671,3.1448,2.8579,0.0,0.0,0.0,0.0,0.0,0.0,0.0,1.6369,1.8112,2.1097,2.1115,2.0685,2.0201,1.9233,1.8376,0.0,0.0,0.0,0.0,0.0,0.0,0.0,0.0,0.0,0.0,0.0,0.0,1.9557,2.0465,0.0,0.0,0.0,0.0,0.0,0.0,2.0899,2.0899,2.0899,0.0,0.0,0.0,0.0,0.0,0.0,0.0,0.0,0.0,2.0666,2.0744,2.3258,2.453,2.5463,2.7554,3.017,3.2757,3.4457,0.0,0.0,3.6385,3.6448,3.589,3.4157,3.2208,2.9753,2.6208,0.0,2.0569,1.814,1.7654,1.7657,1.7608,1.9356,2.1127,2.2178,2.4432,2.6936,2.9541,3.1717,3.3889,3.6225,0.0,0.0,3.8582,3.8651,0.0,0.0,0.0,0.0,3.888,3.9892,4.0987,4.2019,4.2163,4.2734,4.3858,4.2027,4.1216,4.146,4.2294,4.1716,3.9982,4.1535,4.1142,3.9214,0.0,0.0,0.0,3.7166,3.6211,3.5544,3.4096,3.2604,3.1115,2.9825,2.8437,2.7039,0.0,0.0,0.0,0.0,0.0,0.0,1.5638,1.6548,1.8156,2.1493,2.1919,2.1842,2.168,2.0721,1.9259,1.7307,0.0,0.0,0.0,0.0,0.0,0.0,0.0,0.0,0.0,0.0,0.0,1.9797,2.0547,0.0,0.0,0.0,0.0,0.0,0.0,0.0,2.0899,0.0,0.0,0.0,0.0,0.0,0.0,0.0,0.0,0.0,0.0,0.0,2.0527,2.1397,2.2226,2.2996,2.3724,2.5568,2.8289,3.2549,3.3811,3.4284,3.6364,3.7166,3.6857,3.4518,3.2574,3.0092,2.5872,0.0,1.9835,1.7535,1.7506,1.7843,1.7647,1.8992,2.0437,2.1332,2.2142,2.358,2.6364,2.8172,3.0473,3.3924,3.5585,0.0,0.0,0.0,0.0,0.0,0.0,0.0,3.9819,4.0958,4.1503,4.1245,4.1991,4.2635,4.312,4.226,4.1903,4.1991,4.2003,4.1457,4.0477,4.1681,4.1633,4.053,0.0,0.0,0.0,3.8059,3.6767,3.6143,3.4786,3.3475,3.2246,3.1577,3.0042,2.819,0.0,0.0,0.0,0.0,0.0,1.3305,1.5745,1.6667,1.8201,2.1289,2.2005,2.2268,2.2357,2.1157,1.9569,1.7656,1.7376,0.0,0.0,0.0,0.0,0.0,0.0,0.0,0.0,0.0,0.0,2.0125,2.0746,2.0994,0.0,0.0,0.0,0.0,0.0,0.0,0.0,0.0,0.0,0.0,0.0,0.0,0.0,0.0,0.0,0.0,0.0,0.0,0.0,0.0,0.0,2.1088,2.096,2.2024,2.4378,2.9835,3.1572,3.2488,3.5831,3.694,3.6736,3.4989,3.2934,3.0148,2.5726,0.0,1.9571,1.7516,1.7478,1.7798,1.7633,1.8808,1.993,2.0347,2.0897,2.2066,2.4403,2.6225,2.856,3.1944,0.0,3.5725,0.0,0.0,0.0,0.0,0.0,0.0,0.0,4.1704,4.1991,4.1087,4.1575,4.2019,4.2421,4.2734,4.2935,4.2935,4.2835,4.2271,4.1409,4.196,4.1731,4.0891,0.0,0.0,0.0,3.7949,3.6394,3.5728,3.4061,3.2658,3.1493,3.13,2.9855,2.8002,0.0,0.0,0.0,0.0,0.0,0.0,1.511,1.6755,1.8478,2.0455,2.1237,2.1734,2.207,2.0254,1.9102,1.9352,1.8103,0.0,0.0,0.0,0.0,0.0,0.0,0.0,0.0,0.0,2.0737,2.0413,2.1074,2.1219,2.0899,2.1235,2.1219,0.0,0.0,0.0,0.0,0.0,0.0,0.0,0.0,0.0,0.0,0.0,0.0,0.0,0.0,0.0,0.0,0.0,0.0,0.0,0.0,2.0479,2.2082,2.6464,2.837,3.0047,3.4668,3.53,3.4797,3.5502,3.3116,2.962,2.5857,2.2553,1.9855,1.8302,1.7564,1.7293,1.7553,1.8816,1.9641,1.9098,2.1411,2.358,2.449,2.7123,2.9474,3.086,3.2434,3.4135,3.5952,0.0,0.0,0.0,0.0,0.0,0.0,4.1704,4.2377,4.2377,4.1187,4.1116,4.2377,4.3576,4.4186,4.4186,4.5375,4.4653,4.2289,4.2289,4.099,0.0,0.0,0.0,0.0,3.5386,3.3955,3.3277,3.0521,2.8614,2.734,2.7155,2.6433,2.5515,0.0,0.0,0.0,0.0,0.0,0.0,0.0,1.5125,1.6488,1.816,1.91,1.9936,2.0769,1.9546,1.8777,1.9111,1.8003,0.0,0.0,0.0,0.0,0.0,0.0,0.0,0.0,0.0,2.1086,2.1491,2.218,2.2325,2.1989,2.21,2.1833,2.1235,0.0,0.0,0.0,0.0,0.0,0.0,0.0,0.0,0.0,0.0,0.0,0.0,0.0,0.0,0.0,0.0,0.0,0.0,0.0,0.0,0.0,2.1763,2.3981,2.672,3.0654,3.1599,3.1326,3.0784,2.916,2.6933,2.3844,2.1259,1.9152,1.7969,1.7742,1.7841,1.8166,1.8557,1.9447,2.1288,2.1562,2.2273,2.4445,2.6722,2.8982,3.1157,3.4742,3.7233,0.0,0.0,0.0,0.0,0.0,0.0,0.0,4.2192,4.1991,4.1116,4.2349,4.3219,4.3648,4.4002,4.4186,4.4186,4.3291,4.2356,4.1423,4.1975,0.0,0.0,0.0,0.0,0.0,3.7853,3.6339,3.5673,3.3965,3.2534,3.1275,3.0243,2.9155,2.8014,0.0,0.0,0.0,0.0,0.0,0.0,0.0,1.4216,1.5343,1.6436,1.7393,1.8425,1.9606,1.8565,1.812,1.8933,1.7959,0.0,0.0,0.0,0.0,0.0,0.0,0.0,0.0,2.0432,2.1258,2.2382,2.3068,2.337,2.3306,2.3546,2.3008,2.1804,2.1595,0.0,0.0,0.0,0.0,0.0,0.0,0.0,2.0899,0.0,0.0,0.0,0.0,0.0,0.0,0.0,0.0,0.0,0.0,0.0,0.0,0.0,2.0779,2.3351,2.7511,2.8698,2.8696,2.8503,2.6983,2.4952,2.279,2.0614,1.8852,1.8217,1.8029,1.814,1.858,1.8694,1.9339,2.1184,2.1087,2.1632,2.4112,2.6331,0.0,3.1928,0.0,0.0,0.0,0.0,0.0,0.0,0.0,0.0,0.0,4.2421,4.2019,4.1245,4.2734,4.3519,4.3519,4.3959,4.4186,4.4186,4.3475,4.2909,4.2517,4.3033,0.0,0.0,0.0,0.0,0.0,3.9611,3.8266,3.7798,3.6347,3.503,3.3853,3.2915,3.1547,2.9969,0.0,0.0,0.0,0.0,0.0,0.0,0.0,1.39,1.4904,1.5258,1.6106,1.7161,1.8429,1.7368,1.7173,1.8664,0.0,0.0,0.0,0.0,0.0,0.0,0.0,0.0,0.0,2.0226,2.1261,2.3008,2.3785,2.4355,2.4736,2.5374,2.4564,2.2575,2.2543,0.0,0.0,0.0,0.0,0.0,2.0899,2.0899,0.0,0.0,0.0,0.0,0.0,0.0,0.0,0.0,0.0,0.0,0.0,0.0,0.0,0.0,0.0,0.0,0.0,2.6191,2.6505,2.7709,2.5874,2.3439,2.228,2.0385,0.0,1.8837,1.8384,1.8193,1.879,1.9084,1.9309,1.9543,2.039,2.1734,0.0,2.636,0.0,0.0,3.5257,0.0,0.0,0.0,0.0,0.0,0.0,0.0,0.0,4.2478,4.2534,4.2534,4.2606,4.2606,4.2534,4.3731,4.433,4.4341,4.5448,4.565,4.5039,4.5007,0.0,0.0,0.0,0.0,0.0,4.0691,3.9735,3.9488,3.7798,3.6471,3.5461,3.5179,3.3721,3.1649,0.0,0.0,0.0,0.0,0.0,0.0,0.0,0.0,0.0,0.0,1.4922,1.5559,1.6135,1.6206,1.6363,0.0,0.0,0.0,0.0,0.0,0.0,0.0,0.0,0.0,0.0,2.0153,2.1304,2.3008,2.4306,2.5234,2.5834,2.6263,2.531,2.3248,2.2992,2.2134,0.0,0.0,0.0,0.0,2.0899,2.0899,0.0,0.0,0.0,0.0,1.9259,1.8407,0.0,0.0,0.0,0.0,0.0,0.0,0.0,0.0,1.8032,1.8641,2.0277,0.0,2.1576,2.1202,2.0742,2.0167,0.0,1.8859,0.0,0.0,0.0,1.8219,1.8921,1.8808,1.9424,0.0,0.0,2.3122,2.5747,0.0,0.0,3.7023,0.0,0.0,0.0,0.0,0.0,0.0,0.0,0.0,0.0,4.3291,4.3775,4.3775,4.4668,4.4712,4.3803,4.4967,4.5576,4.5576,4.5846,4.5777,4.5376,4.5134,0.0,0.0,0.0,0.0,4.2365,4.1807,4.1088,4.0244,3.9831,3.9476,3.9118,3.8155,3.6861,3.5299,0.0,0.0,0.0,0.0,0.0,0.0,0.0,0.0,0.0,0.0,0.0,0.0,0.0,0.0,0.0,0.0,0.0,0.0,0.0,0.0,0.0,0.0,0.0,0.0,1.9391,2.0093,2.1462,2.3513,2.476,2.5976,2.7122,2.7296,2.6263,2.4184,2.2851,2.1756,0.0,0.0,0.0,0.0,2.0899,0.0,0.0,0.0,0.0,0.0,1.8684,1.7849,0.0,1.7687,1.7936,1.7891,0.0,0.0,0.0,0.0,1.7498,1.7899,1.8216,1.9073,1.9827,1.9624,1.9362,1.9113,1.8939,1.8286,1.7796,0.0,0.0,1.8015,1.8813,1.8877,0.0,0.0,2.2316,0.0,0.0,0.0,3.4728,3.7757,0.0,0.0,0.0,0.0,0.0,0.0,0.0,0.0,0.0,4.3832,4.4441,4.4995,4.5674,4.5674,4.5039,4.5674,4.6,4.6,4.5825,4.5599,4.5261,4.4911,0.0,0.0,0.0,0.0,4.2554,4.2012,4.1414,4.0842,4.0614,4.0517,4.042,3.9777,3.8761,3.7454,0.0,0.0,0.0,0.0,0.0,0.0,0.0,0.0,0.0,0.0,0.0,0.0,0.0,0.0,0.0,0.0,0.0,0.0,0.0,0.0,0.0,0.0,0.0,1.9038,1.955,2.0062,2.1536,2.4005,2.5137,2.6547,2.8199,2.8422,2.7295,2.4993,2.2692,2.1362,0.0,0.0,0.0,0.0,2.0861,0.0,0.0,0.0,0.0,0.0,0.0,0.0,0.0,1.7286,1.7892,1.8178,1.7731,0.0,0.0,0.0,0.0,0.0,1.7856,1.8833,1.9809,2.0001,1.9484,1.8962,1.9173,1.8091,1.7315,0.0,0.0,0.0,1.8862,1.9272,0.0,0.0,0.0,0.0,3.0333,3.279,3.4988,3.7378,0.0,0.0,0.0,0.0,0.0,0.0,0.0,0.0,0.0,4.4385,0.0,4.5971,4.6,4.5996,4.592,4.592,4.592,4.592,4.5583,4.5233,4.4911,4.4641,0.0,0.0,0.0,0.0,4.3002,4.2,4.1469,4.1251,4.079,4.0572,4.0517,4.0517,3.9859,3.8789,0.0,0.0,0.0,0.0,0.0,0.0,0.0,0.0,0.0,0.0,0.0,0.0,0.0,0.0,0.0,0.0,0.0,0.0,0.0,0.0,0.0,0.0,1.8804,1.9249,2.0222,2.0075,2.116,2.3597,2.5282,2.6839,2.8232,2.9423,2.8232,2.5024,2.3452,2.2057,2.0899,0.0,0.0,2.0886,2.0655,0.0,0.0,0.0,0.0,0.0,0.0,0.0,0.0,1.6155,1.6833,1.7474,1.6515,0.0,0.0,0.0,0.0,0.0,1.9051,1.9941,2.0052,1.8453,1.8071,1.8043,1.7916,1.7647,1.755,1.796,0.0,0.0,0.0,2.0196,2.0956,0.0,0.0,0.0,0.0,0.0,0.0,0.0,0.0,0.0,0.0,0.0,0.0,0.0,0.0,0.0,0.0,0.0,0.0,4.6,4.6,4.5873,4.5583,4.5583,4.5583,4.5555,4.5233,4.4911,4.4566,4.453,4.428,0.0,0.0,4.3515,4.3099,4.2894,4.2217,4.1278,4.1197,4.0912,4.0517,4.0517,4.0393,4.005,0.0,0.0,0.0,0.0,0.0,0.0,0.0,0.0,0.0,0.0,0.0,0.0,0.0,0.0,0.0,0.0,0.0,0.0,0.0,0.0,0.0,1.9883,1.9769,1.9908,2.0384,2.1354,2.2947,2.523,2.7003,2.868,3.0185,2.9311,2.7438,2.4769,2.3163,2.1878,2.0899,2.0899,2.0822,2.0655,0.0,0.0,0.0,0.0,0.0,0.0,0.0,0.0,0.0,0.0,1.6698,1.7351,1.658,0.0,0.0,0.0,0.0,0.0,1.8381,1.9201,1.9694,1.9063,1.9312,1.964,1.9243,1.8775,0.0,0.0,0.0,0.0,0.0,0.0,0.0,0.0,0.0,0.0,0.0,0.0,0.0,0.0,0.0,0.0,0.0,0.0,0.0,0.0,0.0,0.0,0.0,0.0,0.0,0.0,4.6,4.5825,4.5504,4.5329,4.5233,4.5229,4.4884,4.4641,4.4471,4.428,4.3738,4.3014,0.0,4.2879,4.1263,4.1876,4.1046,3.9461,4.0147,4.0023,3.9612,4.0271,4.0517,4.0326,0.0,0.0,0.0,0.0,0.0,0.0,0.0,0.0,0.0,0.0,0.0,0.0,0.0,0.0,0.0,0.0,0.0,0.0,0.0,0.0,1.8843,2.0344,2.0547,2.0928,2.1608,2.3089,2.5008,2.7312,2.8982,3.0553,3.1963,2.9311,2.6914,2.4769,2.3004,2.1692,2.0809,2.0809,2.0655,2.0385,0.0,0.0,0.0,0.0,0.0,0.0,0.0,0.0,0.0,0.0,0.0,0.0,0.0,0.0,0.0,1.6878,1.7118,1.7771,1.8189,1.8902,1.9655,2.0141,0.0,2.0822,2.0964,0.0,0.0,0.0,0.0,0.0,0.0,2.3899,0.0,0.0,0.0,0.0,0.0,0.0,0.0,0.0,0.0,0.0,0.0,0.0,0.0,0.0,0.0,0.0,0.0,0.0,0.0,0.0,4.5873,4.5678,4.5281,4.5011,4.4864,4.4864,4.4518,4.436,4.4344,4.4031,4.3419,4.2662,4.3527,4.243,4.0076,4.0937,3.9926,3.7894,3.8816,3.8816,3.839,3.9311,3.9831,3.9955,0.0,0.0,0.0,0.0,0.0,0.0,0.0,0.0,0.0,0.0,0.0,0.0,0.0,0.0,0.0,0.0,0.0,0.0,0.0,0.0,1.8171,1.8915,2.0474,2.2551,2.5168,2.5072,2.6342,2.9107,3.0556,3.1633,3.2313,3.0187,2.7884,2.5453,2.3706,2.2032,2.0527,2.0527,2.0372,2.0112,1.9841,0.0,0.0,0.0,0.0,0.0,0.0,0.0,0.0,0.0,0.0,0.0,0.0,0.0,1.7457,1.7423,1.7686,1.833,1.9947,2.0444,2.0586,2.0929,2.0141,0.0,2.197,2.1974,0.0,2.3572,0.0,0.0,0.0,0.0,0.0,0.0,0.0,0.0,0.0,0.0,0.0,0.0,0.0,0.0,0.0,0.0,0.0,0.0,0.0,0.0,0.0,0.0,0.0,0.0,0.0,4.5233,4.4566,4.4562,4.4546,4.4546,4.4126,4.3951,4.3951,4.392,4.385,4.3769,4.385,4.2863,4.1194,4.1276,3.9926,3.7798,3.7894,3.7549,3.7038,3.7121,3.7867,3.8816,0.0,0.0,0.0,0.0,0.0,0.0,0.0,0.0,0.0,0.0,0.0,0.0,0.0,0.0,0.0,0.0,0.0,0.0,0.0,0.0,1.8405,1.9749,2.1068,2.2768,2.4928,2.6581,2.8886,3.1903,3.2857,3.2904,3.2027,2.9486,2.7104,2.4913,2.3371,2.2331,2.1688,2.1076,2.0929,2.1,1.9887,1.8788,0.0,0.0,0.0,0.0,0.0,0.0,0.0,0.0,1.5595,1.6105,1.5882,1.6655,1.7596,1.7386,1.7759,1.8443,1.9311,2.021,2.095,2.1123,2.127,0.0,0.0,2.3341,0.0,0.0,0.0,0.0,0.0,0.0,0.0,0.0,0.0,0.0,0.0,0.0,0.0,0.0,0.0,0.0,0.0,0.0,0.0,0.0,0.0,0.0,0.0,0.0,0.0,0.0,0.0,4.4963,4.4514,4.4514,4.436,4.4137,4.3983,4.3904,4.3904,4.3904,4.35,4.2879,4.3581,4.2295,3.9777,4.0855,3.9268,3.6166,3.6166,3.6484,3.6913,3.6913,3.719,3.7687,0.0,0.0,0.0,0.0,0.0,0.0,0.0,0.0,0.0,0.0,0.0,0.0,0.0,0.0,0.0,0.0,0.0,0.0,1.6313,1.7162,1.8244,1.9589,2.0832,2.2525,2.4721,2.7408,3.0129,3.2845,3.3953,3.3508,3.1538,2.9026,2.6977,2.5357,2.372,2.2953,2.2802,2.1783,2.1314,2.1108,1.9702,1.8632,0.0,0.0,0.0,0.0,0.0,0.0,0.0,0.0,1.5317,1.5896,1.601,1.6838,1.7776,1.7699,1.8135,1.8677,1.8811,1.9656,2.0565,2.0793,0.0,0.0,2.4119,2.4991,2.609,0.0,0.0,0.0,0.0,0.0,0.0,0.0,0.0,0.0,0.0,0.0,0.0,0.0,0.0,0.0,0.0,0.0,0.0,0.0,0.0,0.0,0.0,0.0,0.0,0.0,0.0,4.4661,4.4312,4.4312,4.4121,4.3745,4.3856,4.3904,4.3904,4.3904,4.3473,4.2771,4.3365,4.2078,3.9584,4.0418,3.8774,3.5735,3.5735,3.5985,3.6414,3.6761,3.6913,3.7066,0.0,0.0,0.0,0.0,0.0,0.0,0.0,0.0,0.0,0.0,0.0,0.0,0.0,0.0,0.0,0.0,0.0,0.0,1.5741,1.6697,1.7513,1.7984,1.9545,2.1862,2.4977,2.7487,2.9634,3.1395,3.346,3.3222,3.0829,2.9028,2.7819,2.7089,2.5039,2.3964,2.3626,2.2562,2.1388,2.0139,1.9191,1.8997,1.9063,0.0,0.0,0.0,0.0,0.0,0.0,0.0,1.5902,1.5747,1.7673,1.8064,1.7913,1.8517,1.894,1.9128,1.8794,1.8948,1.9359,0.0,0.0,0.0,2.6098,2.6972,2.7979,0.0,0.0,0.0,0.0,0.0,0.0,0.0,0.0,0.0,0.0,0.0,0.0,0.0,0.0,0.0,0.0,0.0,0.0,0.0,0.0,0.0,0.0,0.0,0.0,0.0,0.0,0.0,4.3893,4.3904,4.3729,4.3422,4.3745,4.3904,4.3904,4.3904,4.3904,4.3877,4.3327,4.2419,4.1221,4.0076,3.8541,3.6913,3.6913,3.6207,3.5344,3.6455,3.6885,3.7066,0.0,0.0,0.0,0.0,0.0,0.0,0.0,0.0,0.0,0.0,0.0,0.0,0.0,0.0,0.0,0.0,0.0,0.0,1.5984,1.6624,1.7268,1.7818,1.9487,2.0842,2.1767,2.469,2.8027,3.1741,3.1907,3.0842,2.8629,2.7614,2.6645,2.5723,2.5611,2.4982,2.3913,2.2943,2.2182,2.1487,2.0282,1.9249,1.8371,0.0,0.0,0.0,0.0,0.0,0.0,0.0,0.0,0.0,1.6557,1.7431,1.8149,1.842,1.8785,1.9079,1.8892,1.966,0.0,2.0997,0.0,0.0,0.0,2.8074,0.0,0.0,0.0,0.0,0.0,0.0,0.0,0.0,0.0,0.0,0.0,0.0,0.0,0.0,0.0,0.0,0.0,0.0,0.0,0.0,0.0,0.0,0.0,0.0,0.0,0.0,0.0,0.0,4.3904,4.3904,4.3856,4.3761,4.3856,4.3777,4.3554,4.3793,4.3904,4.3877,4.3327,4.2678,4.178,3.9804,3.8665,3.8073,3.7217,3.6207,3.5123,3.4569,3.4931,3.5624,0.0,0.0,0.0,0.0,0.0,0.0,0.0,0.0,0.0,0.0,1.437,1.4667,0.0,0.0,0.0,0.0,0.0,0.0,0.0,1.6466,1.7112,1.7848,1.9016,2.0269,2.161,2.4212,2.666,2.9012,2.93,2.8551,2.6881,2.7169,2.7042,2.6597,2.7287,2.6754,2.5292,2.4101,2.2902,2.1686,2.0799,1.9528,1.815,0.0,0.0,0.0,0.0,0.0,0.0,0.0,0.0,0.0,1.6412,1.7291,1.8118,1.831,1.8732,1.9125,1.901,2.0081,0.0,2.2278,2.4546,2.7131,2.9322,0.0,0.0,0.0,0.0,0.0,0.0,0.0,0.0,0.0,0.0,0.0,0.0,0.0,0.0,0.0,0.0,0.0,0.0,0.0,0.0,0.0,0.0,0.0,0.0,0.0,0.0,0.0,0.0,0.0,4.3904,4.3777,4.3634,4.3491,4.3634,4.3533,4.3216,4.3681,4.3904,4.3877,4.3327,4.2488,4.1442,4.0227,3.9735,3.9638,3.8692,3.777,3.6761,3.528,3.5528,3.6331,0.0,0.0,1.1263,1.1736,0.0,0.0,0.0,0.0,0.0,0.0,1.3896,1.4204,0.0,0.0,0.0,0.0,0.0,0.0,0.0,0.0,1.7005,1.7917,1.8454,2.0169,2.3297,2.4944,2.5277,2.4308,2.6088,2.6422,2.5453,2.7246,2.8311,2.8657,2.9341,2.8671,2.6951,2.5426,2.3338,2.0998,2.08,1.9733,1.8246,1.7875,0.0,0.0,0.0,0.0,0.0,0.0,0.0,0.0,1.6905,1.744,1.7904,1.8152,1.867,1.9179,1.9148,2.0274,2.1901,2.3704,2.5749,0.0,3.1166,3.2973,3.4088,3.4386,0.0,0.0,0.0,0.0,0.0,0.0,0.0,0.0,0.0,0.0,0.0,0.0,0.0,0.0,0.0,0.0,0.0,0.0,0.0,0.0,0.0,0.0,0.0,0.0,0.0,0.0,4.3856,4.3507,4.3216,0.0,4.3216,4.3232,4.2993,4.3618,4.3823,4.3715,4.3219,4.2054,4.0544,4.106,4.1305,4.1251,4.0763,4.02,3.946,3.7577,3.7701,3.8417,0.0,0.0,1.1335,1.1871,0.0,0.0,0.0,0.0,0.0,0.0,0.0,0.0,0.0,0.0,0.0,0.0,0.0,0.0,0.0,0.0,1.6929,1.7654,1.9478,2.1047,2.2302,2.2389,2.2327,2.2091,2.415,2.4739,2.3995,2.6326,2.7427,2.7514,2.8528,2.7564,2.5083,2.3764,2.2107,2.0369,2.0118,1.925,1.8086,1.7546,1.6404,0.0,0.0,0.0,0.0,0.0,0.0,0.0,1.6657,1.7248,1.7517,1.7576,1.8317,1.916,1.9362,2.0729,2.2642,2.4854,2.8299,3.1469,3.2794,3.4055,3.4873,3.474,3.5402,0.0,0.0,0.0,0.0,0.0,0.0,0.0,0.0,0.0,0.0,0.0,0.0,0.0,0.0,0.0,0.0,0.0,0.0,0.0,0.0,0.0,0.0,0.0,0.0,4.3518,4.3518,4.3168,4.3089,0.0,4.3089,4.3247,4.3697,4.384,4.3419,4.2554,4.2446,4.1659,4.0544,4.106,4.1305,4.1278,4.1169,4.0746,3.9954,3.7729,3.7949,3.8994,0.0,0.0,0.0,0.0,0.0,0.0,0.0,0.0,0.0,0.0,0.0,0.0,0.0,0.0,0.0,0.0,0.0,0.0,0.0,0.0,1.704,1.827,2.0355,2.1475,2.1465,2.1423,2.1317,2.1156,2.2116,2.2911,0.0,2.5502,2.6964,2.792,2.812,2.7095,2.508,2.3548,2.2009,2.063,2.0687,1.9889,1.8638,1.8254,1.699,1.543,1.5296,0.0,0.0,0.0,0.0,0.0,0.0,0.0,1.7467,1.7601,1.8237,1.904,1.9709,2.138,2.3789,2.7199,3.047,3.3011,3.3713,3.4568,3.5205,3.5205,3.5883,0.0,0.0,0.0,0.0,0.0,0.0,0.0,0.0,0.0,0.0,0.0,0.0,0.0,0.0,0.0,0.0,0.0,0.0,0.0,0.0,0.0,0.0,0.0,4.3475,4.3406,4.3406,4.2898,4.2845,4.3152,4.2829,4.2914,4.3438,4.3761,4.3446,4.2635,4.2635,4.2121,4.132,4.1305,4.1632,4.2109,4.1523,4.1469,4.1345,3.8403,3.865,3.9885,0.0,0.0,0.0,0.0,0.0,0.0,0.0,0.0,0.0,0.0,0.0,0.0,0.0,0.0,0.0,0.0,0.0,0.0,0.0,0.0,0.0,1.9097,2.0765,2.1423,2.0915,2.1058,2.1061,2.0899,2.0559,0.0,0.0,0.0,2.6663,2.8555,2.7666,2.6612,2.5383,2.3435,2.1898,2.0806,2.0988,2.0281,1.9096,1.871,0.0,0.0,1.5296,1.5391,1.5801,1.567,0.0,0.0,0.0,0.0,1.7453,1.7685,1.8197,1.8907,1.9902,2.2135,2.5202,2.9393,3.1901,3.3503,3.4101,3.4738,3.5284,3.5538,3.6032,0.0,0.0,0.0,0.0,0.0,0.0,0.0,0.0,0.0,0.0,0.0,0.0,0.0,0.0,0.0,0.0,0.0,0.0,0.0,4.3729,4.3793,4.365,4.3327,4.3263,4.3232,4.3232,4.2612,4.2469,4.2813,4.2606,4.2554,4.2671,4.3294,4.332,4.2844,4.2763,4.2454,4.1997,4.1632,4.2039,4.284,4.1849,4.2066,4.2554,3.9418,3.9542,4.0773,0.0,0.0,0.0,0.0,0.0,0.0,0.0,0.0,0.0,0.0,1.5285,1.529,0.0,1.5334,1.5348,1.5402,1.5392,1.5496,1.5699,0.0,0.0,1.939,1.9962,2.0461,2.0883,2.0369,2.0365,2.0899,0.0,0.0,0.0,0.0,0.0,2.771,0.0,2.5359,2.4161,2.1646,2.0177,1.9482,1.8781,1.8509,1.8371,0.0,0.0,0.0,0.0,0.0,1.5579,1.6283,1.644,0.0,0.0,0.0,1.7076,1.7112,1.787,1.8834,1.9443,2.2847,2.6853,2.9483,3.165,3.3274,3.3837,0.0,3.5284,0.0,0.0,0.0,0.0,0.0,0.0,0.0,0.0,0.0,0.0,0.0,0.0,0.0,0.0,0.0,0.0,0.0,0.0,0.0,0.0,0.0,4.3057,4.3311,4.3311,4.2988,4.2702,4.2532,4.2532,4.2094,4.2078,4.2479,4.2718,4.244,4.1708,4.214,4.2165,4.187,4.1399,4.1295,4.1442,4.1903,4.2175,4.231,4.2148,4.2175,4.2148,4.0666,4.0639,4.1142,0.0,0.0,0.0,0.0,0.0,0.0,0.0,0.0,0.0,0.0,0.0,1.5392,1.5392,1.5392,1.5392,1.5392,1.5392,1.5668,1.6279,1.7025,1.7961,1.9171,1.9545,1.9918,2.0321,1.9869,1.9853,2.0349,0.0,0.0,0.0,2.4857,2.603,0.0,0.0,0.0,0.0,2.1449,2.0227,1.976,1.9221,1.9394,0.0,0.0,0.0,0.0,0.0,0.0,0.0,0.0,0.0,1.6941,1.6985,0.0,0.0,0.0,1.7844,1.8967,2.1235,2.4072,2.7045,2.9857,3.1811,3.3234,3.3949,3.4554,3.5084,3.5511,0.0,0.0,0.0,0.0,0.0,0.0,0.0,0.0,0.0,0.0,0.0,0.0,0.0,0.0,0.0,0.0,0.0,0.0,0.0,4.3216,4.2924,4.3025,4.2961,4.2638,4.2495,4.2389,4.2389,4.1998,4.1903,4.2062,4.1904,4.1619,4.1204,4.0777,4.1,4.1698,4.1457,4.1425,4.1523,4.165,4.1987,4.2373,4.1882,4.2121,4.2554,4.1375,4.1088,4.1224,0.0,0.0,0.0,0.0,0.0,0.0,0.0,0.0,0.0,0.0,0.0,1.5392,1.5392,0.0,0.0,0.0,1.5392,1.5767,1.6589,1.7089,1.777,1.8676,1.9106,1.9414,1.9618,1.9391,1.9423,0.0,0.0,0.0,2.457,2.4906,2.6306,0.0,2.6055,0.0,0.0,0.0,0.0,0.0,0.0,0.0,0.0,0.0,0.0,0.0,0.0,0.0,0.0,0.0,0.0,0.0,0.0,0.0,0.0,0.0,0.0,1.8873,2.1999,2.3999,2.5982,2.9216,3.1151,3.2697,3.4241,0.0,3.4827,0.0,0.0,0.0,0.0,0.0,0.0,0.0,0.0,0.0,0.0,0.0,0.0,0.0,0.0,0.0,0.0,0.0,0.0,0.0,0.0,4.2829,4.2628,4.2733,4.2596,4.2262,4.2167,4.2119,4.2119,4.1824,4.1728,4.1782,4.1269,4.0935,4.0754,3.9825,3.9991,4.1012,4.1172,4.1378,4.1565,4.1457,4.1889,4.2494,4.1647,4.1849,4.2515,4.1484,4.1088,4.1048,0.0,0.0,0.0,0.0,0.0,0.0,0.0,0.0,0.0,0.0,0.0,1.5392,1.5392,1.5392,1.5392,1.5392,1.5392,1.5643,1.6191,1.7014,1.7632,1.7945,1.8528,0.0,1.8852,1.8836,0.0,0.0,0.0,0.0,2.4549,2.5928,2.7661,2.9533,2.7107,2.5642,2.4875,0.0,0.0,0.0,0.0,0.0,0.0,0.0,0.0,0.0,0.0,0.0,0.0,0.0,0.0,0.0,0.0,0.0,0.0,0.0,0.0,0.0,2.0016,2.1467,2.3306,2.6745,2.8988,3.1237,3.4651,0.0,3.4508,3.643,0.0,0.0,0.0,0.0,0.0,0.0,0.0,0.0,0.0,0.0,0.0,0.0,0.0,0.0,0.0,0.0,0.0,0.0,0.0,4.2596,4.1877,4.2231,4.2246,4.183,4.1522,4.1373,4.1373,4.1357,4.149,4.1782,4.1269,4.0729,4.0228,3.967,3.9308,3.9176,3.9755,4.0461,4.1244,4.1553,4.2023,4.2494,4.1647,4.1333,4.1305,4.0763,4.0544,4.0544,0.0,0.0,0.0,0.0,0.0,0.0,0.0,0.0,0.0,0.0,0.0,0.0,0.0,1.5392,1.5392,1.5392,1.5527,1.5786,1.623,1.6885,1.7464,1.7944,1.8378,1.867,1.8804,1.8804,0.0,0.0,0.0,2.1212,2.3882,2.4875,2.6437,2.83,2.7041,2.61,2.5284,2.2319,0.0,0.0,0.0,0.0,0.0,0.0,0.0,0.0,0.0,0.0,0.0,0.0,0.0,0.0,0.0,0.0,0.0,0.0,0.0,1.8498,2.0072,2.1084,2.2464,2.5531,2.7732,2.971,3.2088,3.31,3.3876,3.4999,0.0,0.0,0.0,0.0,0.0,0.0,0.0,0.0,0.0,0.0,0.0,0.0,0.0,0.0,0.0,0.0,0.0,0.0,0.0,0.0,4.1798,4.1935,4.1951,4.1798,4.1474,4.1198,4.0975,4.1198,4.1347,4.1474,4.1159,4.0729,4.0177,3.9644,3.9134,3.8704,3.9331,3.9655,3.9825,4.0524,4.0952,4.1184,4.1019,4.1126,4.1251,4.0693,4.0517,4.0517,0.0,0.0,0.0,0.0,0.0,0.0,0.0,0.0,0.0,0.0,0.0,0.0,0.0,0.0,1.5839,1.5809,1.5784,1.5929,1.6313,1.6809,1.7347,1.7906,1.8361,1.867,1.8804,1.8804,0.0,0.0,0.0,0.0,0.0,2.4098,2.5537,2.7219,2.6283,2.5952,0.0,0.0,0.0,2.1642,0.0,0.0,2.124,0.0,0.0,0.0,0.0,0.0,0.0,0.0,0.0,0.0,0.0,0.0,0.0,0.0,0.0,0.0,1.9657,2.0418,2.16,2.4586,2.6313,2.8126,3.1248,3.2206,3.2861,3.4535,3.6162,0.0,0.0,0.0,0.0,0.0,0.0,0.0,0.0,0.0,0.0,0.0,0.0,0.0,0.0,0.0,0.0,0.0,0.0,0.0,4.1798,4.1798,4.1713,4.1474,4.1125,4.0864,4.0626,4.096,4.1198,4.13,4.1097,4.0806,4.0445,3.9722,3.9178,3.8815,3.8996,3.9104,3.9195,3.9889,4.0347,4.0657,4.0586,4.0859,4.1251,4.0693,4.0517,4.0517,0.0,0.0,0.0,0.0,0.0,0.0,0.0,0.0,0.0,0.0,0.0,0.0,0.0,0.0,0.0,1.6635,1.6219,1.6102,1.6397,1.6874,1.7331,1.7795,1.8451,1.882,1.882,1.882,0.0,0.0,0.0,0.0,0.0,0.0,2.525,2.6434,2.4896,2.5202,2.6831,0.0,2.5035,2.4439,0.0,2.2797,2.328,0.0,0.0,0.0,2.3783,2.3084,0.0,0.0,0.0,0.0,0.0,0.0,0.0,0.0,0.0,0.0,0.0,0.0,0.0,2.3689,2.4635,2.6374,3.2282,3.1895,3.133,3.5049,3.6236,0.0,0.0,0.0,0.0,0.0,0.0,0.0,0.0,0.0,0.0,0.0,0.0,0.0,0.0,0.0,0.0,0.0,0.0,4.1782,4.1798,4.1782,4.1474,4.0801,4.0467,4.0292,4.0276,4.0635,4.0944,4.1284,4.1106,4.1022,4.0945,3.9929,3.9437,3.9385,3.8763,3.8841,3.9415,3.9729,4.039,4.1055,4.0317,4.0535,4.1197,4.0693,4.0517,4.0517,0.0,0.0,0.0,0.0,0.0,0.0,0.0,0.0,0.0,0.0,0.0,0.0,0.0,0.0,1.7701,1.7417,1.7629,1.7527,1.6943,1.7576,1.796,1.7953,1.8774,1.9236,1.9236,1.9236,0.0,0.0,0.0,0.0,0.0,0.0,0.0,0.0,2.4482,2.4377,2.4069,2.2389,0.0,0.0,2.2462,2.2881,0.0,0.0,0.0,0.0,0.0,2.5516,0.0,0.0,2.3736,2.2477,0.0,0.0,0.0,0.0,0.0,0.0,1.8432,0.0,0.0,0.0,0.0,0.0,2.6407,2.7239,2.8215,3.0999,3.3085,0.0,0.0,0.0,0.0,0.0,0.0,0.0,0.0,0.0,0.0,0.0,0.0,0.0,0.0,0.0,0.0,0.0,4.1443,4.1554,4.1782,4.157,4.1246,4.0801,4.0467,4.0165,3.9935,4.0285,4.0594,4.0928,4.1141,4.1146,4.0996,4.0688,4.0136,3.9385,3.923,3.8996,3.8803,3.9334,3.9707,4.0004,4.0158,4.0436,4.0693,4.0544,4.0517,4.0517,0.0,0.0,0.0,1.5764,0.0,0.0,0.0,0.0,0.0,0.0,0.0,0.0,0.0,0.0,0.0,1.8682,1.8724,1.845,1.765,1.7958,1.8157,1.8128,1.894,1.9391,1.9391,1.9546,1.9535,0.0,0.0,0.0,0.0,0.0,0.0,0.0,2.2819,2.2706,0.0,0.0,0.0,0.0,2.3752,0.0,0.0,2.6646,2.6988,0.0,0.0,0.0,2.7234,2.7137,2.5892,0.0,0.0,0.0,0.0,0.0,0.0,0.0,0.0,0.0,0.0,0.0,0.0,0.0,2.5125,2.5565,2.6327,0.0,3.1611,3.306,0.0,0.0,0.0,0.0,0.0,0.0,0.0,0.0,0.0,0.0,0.0,0.0,0.0,0.0,0.0,4.1087,4.1087,4.1182,4.1363,4.1046,4.0801,4.0594,4.0269,3.9999,3.9792,4.0142,4.0388,4.0603,4.0928,4.11,4.1126,4.0896,4.0384,3.9722,3.9489,3.9048,3.8543,3.8867,3.9281,3.9717,4.0127,4.0419,4.0611,4.0526,4.0517,4.0517,0.0,0.0,1.5676,1.6349,1.6823,1.7205,0.0,0.0,0.0,0.0,0.0,0.0,0.0,0.0,0.0,0.0,1.9728,1.9185,1.8566,1.8308,1.8243,1.8478,1.9105,1.9471,1.9503,1.9805,1.9817,0.0,0.0,0.0,0.0,0.0,0.0,0.0,2.0693,2.0735,0.0,0.0,0.0,2.3776,2.5739,2.6843,0.0,0.0,2.9851,0.0,3.0449,3.04,2.9794,2.9511,2.7881,0.0,0.0,0.0,0.0,0.0,2.0202,0.0,0.0,0.0,0.0,0.0,0.0,0.0,2.6023,2.5386,2.5127,0.0,3.0638,3.1468,3.2143,0.0,0.0,0.0,0.0,0.0,0.0,0.0,0.0,0.0,0.0,0.0,0.0,4.0737,4.0737,4.0737,4.0794,4.0769,4.0762,4.0451,4.0276,4.0245,3.9951,3.9792,3.9792,4.011,4.026,4.0292,4.0594,4.0928,4.1284,4.0818,4.047,4.0254,3.9722,3.9152,3.8595,3.8595,3.9059,3.9804,4.0061,4.0377,4.0681,4.0504,4.0473,4.0517,1.5246,1.5578,1.6012,1.6686,1.7704,0.0,0.0,0.0,0.0,0.0,0.0,0.0,0.0,0.0,0.0,0.0,2.1401,2.0686,2.0035,1.9455,1.9265,1.9566,1.9737,1.9932,2.0206,2.027,2.027,0.0,0.0,0.0,0.0,0.0,0.0,0.0,2.0312,2.0232,0.0,0.0,0.0,2.3717,2.5042,0.0,2.9141,3.0323,3.108,3.1648,3.2458,3.27,3.2505,0.0,2.9789,2.755,0.0,0.0,0.0,0.0,0.0,0.0,0.0,0.0,0.0,0.0,0.0,0.0,2.2364,2.2571,2.3329,0.0,2.6593,2.7925,2.9909,3.2098,0.0,0.0,0.0,0.0,0.0,0.0,0.0,0.0,0.0,0.0,0.0,4.0388,4.0388,4.0388,4.0667,4.0674,4.0403,4.0324,4.019,3.9904,3.9824,3.9792,3.9792,3.9856,4.0031,4.0292,4.0356,4.0721,4.1284,4.1183,4.1016,4.0806,4.0265,3.9722,3.923,3.923,3.9215,3.9184,3.9217,3.964,4.0142,4.0092,4.0255,4.0517,1.5776,1.5996,1.6459,1.7437,0.0,0.0,0.0,0.0,0.0,0.0,0.0,0.0,0.0,0.0,0.0,0.0,0.0,0.0,0.0,0.0,1.9722,1.9897,2.0059,2.0302,2.0642,2.0642,2.0642,2.0642,0.0,0.0,0.0,0.0,0.0,0.0,0.0,0.0,0.0,0.0,2.2419,2.3841,2.6474,0.0,3.0299,3.2022,3.3156,3.3812,3.4026,3.4117,3.3884,3.2138,3.0764,0.0,0.0,2.6364,2.5502,0.0,2.2686,2.265,0.0,0.0,0.0,2.1454,0.0,0.0,0.0,2.2161,2.2366,2.467,2.517,2.5884,2.8137,2.9901,3.1223,0.0,0.0,0.0,0.0,0.0,0.0,0.0,0.0,0.0,0.0,3.9752,3.9752,3.9752,3.9752,3.9697,3.9498,3.9498,3.9498,3.9498,3.9498,3.9602,3.9792,3.9792,3.9872,4.0047,4.0047,4.0388,4.1055,4.0778,4.0631,4.0574,4.0032,3.9644,3.9411,3.9411,3.9334,3.9211,3.9373,3.9743,4.0133,4.0041,4.0212,4.0517,1.6234,1.6362,1.6871,1.8072,0.0,0.0,0.0,0.0,0.0,0.0,0.0,0.0,0.0,0.0,0.0,0.0,0.0,0.0,0.0,0.0,0.0,2.0187,2.0317,2.0591,2.0994,2.0931,2.0899,2.0899,0.0,0.0,0.0,0.0,0.0,0.0,0.0,0.0,0.0,0.0,0.0,2.481,0.0,2.9962,3.0525,3.3326,3.4638,3.5021,3.5156,3.5263,3.4962,3.2613,0.0,3.1292,2.8905,2.8555,0.0,0.0,0.0,0.0,0.0,0.0,0.0,0.0,0.0,2.2623,0.0,0.0,0.0,2.4482,2.4379,0.0,0.0,0.0,0.0,0.0,0.0,0.0,0.0,0.0,0.0,0.0,0.0,0.0,0.0,3.8775,3.8807,3.9077,3.8608,3.8386,3.8592,3.8656,3.8799,3.8997,3.9124,3.9355,3.9681,3.9761,3.9792,3.9792,3.9792,4.0093,4.0635,4.02,4.012,4.0316,3.967,3.9515,3.9696,3.9489,3.9463,3.9571,3.9737,3.995,4.0137,3.9963,4.0153,4.0517,1.6352,1.6551,1.7071,1.8043,0.0,0.0,0.0,0.0,0.0,0.0,0.0,0.0,0.0,0.0,0.0,0.0,0.0,0.0,2.4069,0.0,0.0,2.1219,2.0702,2.0702,2.133,2.1058,2.0899,2.0899,2.0899,2.0867,0.0,0.0,0.0,0.0,2.1314,0.0,0.0,0.0,2.4735,0.0,2.9237,2.9245,0.0,3.2597,3.3851,3.379,3.5719,3.6596,3.656,0.0,3.3841,3.3155,0.0,3.0112,0.0,0.0,0.0,0.0,0.0,0.0,0.0,0.0,2.5335,0.0,0.0,0.0,2.3248,2.2502,0.0,0.0,0.0,0.0,0.0,0.0,0.0,0.0,0.0,0.0,0.0,0.0,0.0,0.0,0.0,0.0,3.7417,3.8656,3.756,3.7258,3.8211,3.8529,3.8576,3.8322,3.8886,3.922,3.9267,3.9633,3.9792,3.9792,3.9792,3.9912,4.01,4.0025,4.0323,4.0842,3.9851,3.9955,4.0739,3.98,3.967,4.0073,3.9638,3.9519,3.9589,3.958,3.9963,4.0517,1.6897,1.7107,1.7565,1.8544,0.0,0.0,0.0,0.0,0.0,0.0,0.0,0.0,0.0,0.0,0.0,0.0,0.0,0.0,0.0,0.0,0.0,0.0,0.0,0.0,0.0,2.1293,2.0994,2.1188,2.0994,2.0899,2.0899,2.1092,0.0,0.0,2.2326,0.0,2.4833,0.0,2.5628,0.0,0.0,0.0,0.0,3.3591,3.5348,3.5653,3.6809,3.7178,3.6863,0.0,3.4488,0.0,0.0,0.0,0.0,0.0,0.0,0.0,0.0,0.0,0.0,0.0,0.0,0.0,0.0,0.0,2.2358,0.0,0.0,0.0,0.0,0.0,0.0,0.0,2.7242,0.0,0.0,0.0,0.0,0.0,0.0,0.0,0.0,0.0,0.0,0.0,0.0,3.6139,3.721,3.7591,3.7886,3.8195,3.8656,3.8981,3.9204,3.9602,3.9792,3.9792,3.9792,3.9863,3.9999,3.9632,3.9699,4.0058,3.9593,3.9825,4.0497,4.0058,3.9996,4.0151,3.9618,3.9539,3.9722,3.9542,3.9802,4.0226,1.7517,0.0,0.0,0.0,0.0,0.0,0.0,0.0,0.0,0.0,0.0,0.0,2.9472,2.893,0.0,0.0,0.0,2.6438,0.0,0.0,2.307,0.0,0.0,0.0,0.0,0.0,2.1325,2.1565,2.1216,2.1185,2.1483,2.1547,2.2073,0.0,0.0,2.4738,2.6486,0.0,0.0,2.8805,3.0232,3.1058,3.176,3.47,3.6393,3.7282,3.7598,3.7496,3.706,3.5721,3.5071,0.0,3.3929,0.0,0.0,0.0,0.0,0.0,2.7019,0.0,0.0,0.0,0.0,0.0,0.0,0.0,0.0,0.0,0.0,0.0,0.0,0.0,0.0,0.0,0.0,2.7722,0.0,0.0,0.0,0.0,0.0,0.0,0.0,0.0,0.0,0.0,0.0,0.0,3.6241,3.6631,3.7155,3.7877,3.8322,3.8719,3.9069,3.9434,3.9697,3.9792,3.9792,3.9766,3.965,3.9436,3.9323,3.9266,3.9366,3.9696,4.0202,4.0047,4.0073,4.0177,3.9774,3.9769,3.992,3.9525,3.9641,4.0063,1.8133,1.7867,0.0,0.0,0.0,0.0,0.0,0.0,0.0,0.0,0.0,0.0,0.0,0.0,0.0,0.0,0.0,2.9045,2.8665,0.0,2.4564,0.0,0.0,0.0,0.0,0.0,0.0,2.1982,2.1579,2.193,2.2928,2.2287,2.235,2.3071,2.4755,2.612,2.728,2.8946,3.1249,3.3742,3.3497,3.4779,3.6727,0.0,3.6145,3.7678,3.7694,0.0,0.0,3.6361,3.5953,0.0,0.0,0.0,0.0,0.0,0.0,0.0,0.0,0.0,0.0,0.0,0.0,0.0,0.0,0.0,2.5176,0.0,0.0,0.0,0.0,0.0,0.0,0.0,0.0,0.0,0.0,0.0,0.0,0.0,0.0,0.0,0.0,0.0,0.0,0.0,0.0,0.0,3.55,3.5955,3.6425,3.7124,3.7845,3.837,3.8703,3.9045,3.9418,3.9792,3.9792,3.9419,3.8762,3.9609,3.9596,3.8926,3.9251,3.9696,4.0151,3.9644,3.9722,4.0202,4.0177,4.0177,4.0093,3.9318,3.9424,4.0088,1.8307,0.0,0.0,0.0,0.0,0.0,0.0,2.428,0.0,0.0,0.0,0.0,0.0,0.0,3.3079,0.0,0.0,3.1541,3.0272,2.8281,0.0,0.0,0.0,2.4373,0.0,0.0,0.0,0.0,0.0,2.2098,2.2656,2.2432,2.2941,2.4117,0.0,2.709,0.0,0.0,0.0,0.0,0.0,3.5637,3.7711,0.0,0.0,3.7694,3.7694,3.7694,0.0,3.7263,3.6784,3.6359,3.618,3.5696,3.4998,3.4005,3.3981,0.0,0.0,0.0,3.2998,2.8841,0.0,0.0,0.0,0.0,0.0,0.0,0.0,0.0,0.0,0.0,0.0,0.0,0.0,0.0,0.0,0.0,0.0,0.0,0.0,0.0,0.0,0.0,0.0,0.0,0.0,0.0,0.0,3.5059,3.579,3.6749,3.748,3.8155,3.8688,3.9013,3.9403,3.9792,3.9792,3.96,3.9228,3.9353,3.9186,3.8845,3.9251,3.9489,3.967,3.9463,3.9515,3.9618,3.923,3.9308,3.9715,3.9995,4.0029,4.0071,1.8812,0.0,0.0,0.0,0.0,0.0,0.0,0.0,0.0,0.0,3.0442,0.0,3.4334,0.0,3.5224,0.0,3.5113,3.3826,3.1573,3.0585,0.0,2.8471,2.7248,0.0,0.0,0.0,0.0,0.0,0.0,2.3225,2.3798,2.3305,2.3735,2.5008,2.62,2.7804,2.9756,3.1916,3.3154,0.0,0.0,3.6613,0.0,0.0,3.7544,0.0,0.0,3.7694,3.7694,3.7694,3.7392,3.7042,3.7242,3.6765,3.5943,3.4954,3.4864,3.4668,3.2858,3.3598,0.0,0.0,3.0006,0.0,2.6388,0.0,0.0,0.0,0.0,0.0,0.0,0.0,0.0,0.0,0.0,0.0,0.0,2.5564,0.0,0.0,0.0,0.0,0.0,0.0,0.0,0.0,0.0,0.0,0.0,0.0,3.5017,3.6193,3.7051,3.7861,3.8688,3.891,3.9275,3.9792,3.9792,3.9635,3.9339,3.9591,3.9428,3.8971,3.968,3.9851,3.967,3.9489,3.9411,3.9359,3.897,3.9048,3.9467,4.0015,4.044,4.0819,1.9641,0.0,0.0,0.0,2.1133,0.0,0.0,0.0,2.7725,0.0,3.1573,3.3772,3.5532,3.6018,3.6638,3.7662,3.7385,0.0,3.2873,3.327,0.0,0.0,2.9411,2.9186,2.8454,0.0,0.0,0.0,0.0,0.0,2.6136,2.4767,2.4627,2.5612,2.704,0.0,2.9534,3.2995,3.5145,3.6273,3.7296,3.771,3.7726,3.771,0.0,3.8147,3.7821,3.7694,3.7694,3.7694,3.7694,3.7694,3.7694,3.7432,3.706,3.6733,3.6638,3.6227,3.4292,3.402,3.3923,3.247,0.0,0.0,0.0,0.0,3.1819,0.0,0.0,0.0,0.0,0.0,0.0,0.0,0.0,0.0,0.0,0.0,0.0,0.0,0.0,0.0,0.0,0.0,0.0,0.0,0.0,0.0,0.0,0.0,3.4085,3.5532,3.6559,3.7584,3.8656,3.8688,3.9061,3.9761,3.9776,3.9533,3.9085,4.0219,4.0209,3.9301,4.0445,4.0677,4.0177,3.9644,3.9411,3.9411,3.9411,3.9411,3.9437,3.9437,4.0588,4.2166,2.0,2.0572,2.132,0.0,2.1476,2.1957,0.0,0.0,0.0,0.0,3.3301,3.525,3.7305,3.783,3.8131,3.8425,3.8116,0.0,0.0,0.0,0.0,3.4255,3.3317,3.2475,3.178,2.9949,0.0,2.7532,0.0,0.0,2.5739,2.488,2.4601,2.4922,2.6593,2.8062,2.9519,3.2752,3.5351,3.7312,3.7583,3.7853,0.0,0.0,3.7916,3.8147,3.7821,3.7694,3.7694,3.7694,3.7694,3.7694,3.7694,3.763,3.7464,3.7076,3.7178,3.7237,3.6415,3.6488,3.6268,3.4159,3.3566,3.2941,0.0,0.0,0.0,0.0,0.0,0.0,0.0,0.0,0.0,0.0,0.0,0.0,0.0,0.0,0.0,2.6534,0.0,0.0,0.0,0.0,0.0,0.0,0.0,0.0,0.0,0.0,0.0,3.5091,3.6193,3.7242,3.8322,3.8576,3.891,3.9371,3.9665,3.9744,3.9613,4.0011,4.0075,3.9804,4.023,4.0332,4.0202,4.0047,3.9748,3.9411,3.9411,3.9644,3.9981,3.9981,4.0981,4.2303,2.081,0.0,0.0,2.3105,0.0,0.0,2.5786,0.0,0.0,3.1773,3.4107,0.0,3.7146,3.8425,3.9188,3.9188,3.9013,0.0,0.0,0.0,0.0,3.6145,3.5494,3.4747,3.3889,3.1931,0.0,2.9121,0.0,0.0,2.6069,2.5359,2.4966,2.4906,2.6797,2.8272,2.9548,3.3156,3.5764,3.7448,3.763,0.0,0.0,3.7773,3.7821,3.7964,3.7773,3.7694,3.7694,3.7694,3.7694,3.7694,3.7694,3.7694,3.7662,3.7432,3.7512,3.7646,3.7417,3.7535,3.739,3.6047,3.5673,3.5182,3.3547,3.3746,3.4052,0.0,0.0,0.0,0.0,0.0,0.0,0.0,0.0,0.0,0.0,0.0,0.0,0.0,0.0,0.0,0.0,0.0,0.0,0.0,0.0,0.0,0.0,0.0,0.0,3.452,3.6028,3.7274,3.8195,3.8846,3.918,3.9204,3.9617,3.9792,3.9808,4.0027,4.0209,4.0357,4.0586,4.0759,4.0899,4.0651,4.0368,4.0084,3.9851,4.0084,4.0548,4.0548,4.1443,4.2602,0.0,0.0,0.0,0.0,0.0,0.0,0.0,2.8791,0.0,3.2249,0.0,3.6527,3.6574,3.852,3.9792,3.9792,0.0,3.914,3.7552,3.8584,3.8457,3.667,3.6765,3.6431,3.5441,3.3567,0.0,0.0,0.0,0.0,2.6548,2.5849,2.536,2.5108,2.7113,2.8646,2.9949,3.3831,3.6066,3.7076,3.7583,3.7773,3.7773,3.7773,3.7773,3.7757,3.771,3.7726,3.7773,3.7773,3.7773,3.7773,3.7773,3.7726,3.7694,3.7694,3.7694,3.7694,3.7694,3.7694,3.7694,3.7694,3.7694,3.7535,3.6876,3.6733,3.6638,3.6304,3.5494,0.0,0.0,0.0,0.0,0.0,0.0,0.0,0.0,0.0,0.0,0.0,0.0,0.0,0.0,0.0,0.0,0.0,0.0,0.0,0.0,0.0,0.0,3.3884,3.5853,0.0,3.8195,0.0,3.9538,3.9267,3.9633,3.9792,3.9808,4.0158,4.0467,4.0826,4.1166,4.149,4.1757,4.1295,4.1063,4.0945,4.0497,4.06,4.0996,4.1073,4.1864,4.2908,0.0,0.0,0.0,0.0,0.0,2.9188,3.1188,3.2412,3.3746,3.5542,3.7464,0.0,3.9109,3.9538,3.9792,3.9792,3.9792,0.0,0.0,0.0,0.0,3.9172,3.8632,3.8116,3.7655,3.5044,3.3027,0.0,0.0,0.0,2.5787,2.5374,2.5013,2.475,2.6276,2.8791,3.1983,3.3889,0.0,3.6781,3.7718,3.81,3.81,3.81,3.81,3.8068,3.7805,3.7885,3.81,3.81,3.81,3.81,3.81,3.7932,3.7694,3.7694,3.7694,3.7694,3.7694,3.7694,3.7694,3.7694,3.7694,3.7662,3.7535,3.7503,3.7408,3.6997,3.6774,3.6234,3.4938,0.0,0.0,0.0,0.0,0.0,0.0,0.0,0.0,0.0,0.0,0.0,0.0,0.0,0.0,0.0,0.0,0.0,0.0,0.0,0.0,0.0,0.0,0.0,0.0,0.0,0.0,3.9697,3.9761,3.9792,3.9808,4.0158,4.0467,4.0826,4.1166,4.149,4.1782,4.168,4.1397,4.0996,4.0909,4.0935,4.1048,4.15,4.2175,4.2908,0.0,0.0,0.0,0.0,0.0,0.0,0.0,3.5754,0.0,3.64,3.7226,3.8004,3.8354,3.9371,4.0142,4.0301,4.0317,4.0317,4.0317,4.0317,4.0237,4.0078,3.9554,0.0,3.8211,0.0,3.3953,3.2154,0.0,0.0,0.0,0.0,2.5092,2.4688,2.683,2.9411,0.0,0.0,0.0,3.6686,3.7766,3.8306,3.8449,3.8449,3.8354,3.8179,3.8028,3.8163,3.8402,3.8075,3.7948,3.7948,3.7948,3.7837,3.7694,3.7694,3.7694,3.7694,3.7694,3.7694,3.7694,3.7694,3.7694,3.7694,3.7694,3.7694,3.7598,3.7187,3.7108,3.6568,3.4827,3.2686,0.0,0.0,0.0,0.0,0.0,0.0,0.0,0.0,0.0,0.0,0.0,0.0,0.0,0.0,0.0,0.0,0.0,0.0,0.0,0.0,0.0,0.0,0.0,0.0,0.0,3.9236,3.9617,3.9792,3.9817,3.9967,4.0333,4.0826,4.096,4.1316,4.1798,4.1798,4.1654,4.1372,4.0806,4.06,4.059,4.0723,4.1118,4.1644,0.0,2.7582,0.0,0.0,3.1955,0.0,0.0,3.8187,3.9204,3.7242,3.7289,3.7591,3.7854,3.9403,4.0499,4.0794,4.081,4.081,4.081,4.081,4.0674,4.0403,4.0015,3.9363,3.8433,3.6686,3.4684,0.0,0.0,0.0,0.0,0.0,0.0,0.0,0.0,0.0,0.0,0.0,3.543,3.6813,3.7957,3.8576,3.8799,3.8799,3.864,3.8402,3.8338,3.8481,3.8632,3.8091,3.7964,3.8028,3.8028,3.7932,3.7805,3.7805,3.7757,3.771,3.7789,3.7805,3.7821,3.79,3.7853,3.7805,3.7805,3.7741,3.7614,3.7282,3.7155,3.6584,3.4901,3.327,0.0,0.0,0.0,0.0,0.0,0.0,0.0,0.0,0.0,0.0,0.0,0.0,0.0,0.0,0.0,0.0,0.0,0.0,0.0,0.0,0.0,0.0,3.6885,0.0,3.9347,0.0,3.9522,3.9792,3.9792,3.9792,4.0158,4.081,4.081,4.1056,4.1439,4.1192,4.1089,4.1012,4.0161,3.9825,3.9845,3.9797,4.0062,4.0441,0.0,0.0,0.0,0.0,0.0,0.0,0.0,3.8846,4.0165,3.9927,4.0181,4.0428,4.0435,4.0626,4.0778,4.081,4.081,4.081,4.081,4.081,4.0794,4.0737,4.0142,3.9586,3.9108,3.7401,3.516,0.0,0.0,0.0,0.0,0.0,0.0,0.0,0.0,0.0,0.0,3.4218,3.5774,3.7171,3.8553,3.9124,3.914,3.914,3.9124,3.9061,3.8767,3.8672,3.8688,3.8648,3.8815,3.9045,3.9045,3.8656,3.8147,3.8147,3.7948,3.7773,3.8068,3.8147,3.8227,3.8529,3.837,3.8147,3.8147,3.7932,3.7678,3.7646,3.7353,3.6663,3.5218,3.4784,3.3964,0.0,0.0,0.0,0.0,0.0,0.0,0.0,0.0,0.0,0.0,0.0,0.0,0.0,0.0,0.0,0.0,0.0,0.0,3.1083,0.0,3.4843,3.6193,3.7925,0.0,3.9697,3.9761,3.9792,3.9792,3.9792,4.0158,4.081,4.081,4.0626,4.0265,3.9241,3.8811,3.8785,3.8696,3.8655,3.8751,3.9535,4.0062,4.0364,0.0,0.0,0.0,0.0,0.0,0.0,0.0,3.9959,4.0912,4.0912,4.0832,4.0889,4.1087,4.1103,4.1182,4.1379,4.1395,4.1395,4.1395,4.1395,4.123,4.0826,4.0555,4.0006,3.922,3.7925,3.6177,0.0,0.0,0.0,0.0,0.0,0.0,0.0,0.0,3.149,3.3158,3.47,3.6288,3.7845,3.8592,3.9164,3.957,3.957,3.9418,3.9172,3.9045,3.9005,3.9005,3.9005,3.8958,3.891,3.891,3.8719,3.8497,3.8497,3.8425,3.8346,3.8449,3.8497,3.8529,3.8656,3.8592,3.8497,3.8497,3.8409,3.825,3.8036,3.7528,3.6933,3.6361,3.5409,3.4583,0.0,0.0,0.0,0.0,0.0,0.0,0.0,0.0,0.0,0.0,0.0,0.0,0.0,0.0,0.0,0.0,0.0,0.0,3.0829,0.0,3.3848,3.5425,3.7007,3.8259,3.9156,3.9586,3.9792,3.9792,4.0015,4.0476,4.1093,4.0615,4.0353,4.0125,3.8982,3.85,3.8422,3.7785,3.755,3.7596,3.7976,3.8419,3.8951,3.4117,0.0,3.4594,0.0,3.7369,3.8155,3.9967,4.0848,4.1357,4.1427,4.1246,4.1198,4.1411,4.1443,4.1538,4.1766,4.1798,4.1798,4.1798,4.1798,4.1585,4.1118,4.0991,0.0,3.9537,3.8743,3.7321,3.5329,3.3413,0.0,0.0,0.0,0.0,0.0,3.1335,3.2797,3.4212,3.5611,3.7106,3.8529,3.8878,3.9331,3.9792,3.9792,3.9633,3.9387,3.9387,3.9387,3.9387,3.9387,3.9275,3.9148,3.9037,3.8926,3.8862,3.8997,3.8886,3.8767,3.9085,3.9005,3.8894,3.9117,3.9005,3.8846,3.8846,3.8767,3.8592,3.8274,3.7798,3.7362,3.714,3.5996,3.524,0.0,0.0,0.0,0.0,0.0,0.0,0.0,2.9549,2.8668,2.7395,0.0,0.0,0.0,0.0,0.0,0.0,0.0,0.0,0.0,0.0,0.0,0.0,0.0,3.7999,3.8703,3.9443,3.9792,3.9808,4.0253,4.0753,4.1265,4.0513,4.0006,3.9618,3.8488,3.7837,3.7446,3.6701,3.6387,3.643,3.6755,3.7201,3.7845,3.5732,3.6066,3.6845,3.9315,3.9745,4.011,4.1134,4.1284,4.1411,4.1735,4.1782,4.1782,4.1782,4.1782,4.1782,4.1798,4.1798,4.1798,4.1798,4.1798,4.1782,0.0,0.0,4.0991,4.0292,3.9951,3.8568,3.6098,0.0,0.0,3.1347,0.0,0.0,3.1916,3.2984,3.426,3.5675,3.7074,3.8259,3.922,3.9633,3.9776,3.9792,3.9792,3.9817,3.9792,3.9792,3.9792,3.9792,3.9792,4.0015,4.0213,3.9888,3.9514,3.9267,3.9665,3.9268,3.8926,3.999,3.9752,3.9363,4.0102,3.9736,3.9188,3.9188,3.8942,3.8592,3.8274,3.8195,3.7973,3.7235,3.6806,3.6114,3.4747,0.0,0.0,0.0,0.0,0.0,0.0,2.9668,2.8521,2.777,0.0,0.0,0.0,0.0,0.0,0.0,0.0,0.0,3.0845,3.2904,0.0,3.4974,3.7441,3.8688,3.8703,3.9443,3.9792,3.9808,4.0492,4.0975,4.1265,4.0513,3.9567,3.8422,3.7368,3.6256,3.5243,3.5217,3.5217,3.5336,3.6203,3.6857,3.7442,3.7671,3.8282,3.887,3.9649,4.0381,4.0928,4.1236,4.149,4.1697,4.1782,4.1798,4.1798,4.1798,4.1798,4.1798,0.0,4.1798,4.1798,0.0,4.1798,4.1713,4.1474,4.1347,4.0991,4.0308,3.9967,3.9172,3.7861,0.0,0.0,0.0,3.2527,3.2863,3.373,3.5033,3.6257,3.7432,3.8338,3.9339,4.026,3.9935,4.0063,4.046,4.0237,4.0158,4.0158,4.0158,4.0158,4.0158,4.0158,4.0356,4.061,4.0524,4.0229,3.9974,4.0086,3.9959,3.9911,4.0492,4.0292,4.0006,4.0229,3.9943,3.9617,3.9617,3.9156,3.8656,3.856,3.8187,3.7869,3.7861,3.7162,3.6447,3.6002,0.0,0.0,0.0,0.0,0.0,0.0,0.0,2.8495,0.0,2.7619,0.0,0.0,0.0,0.0,0.0,0.0,0.0,0.0,3.2549,0.0,3.499,3.7008,3.8257,3.8703,3.9697,4.0372,4.0817,4.0801,4.0699,4.0497,3.9481,3.841,3.7315,3.6203,3.5533,3.5191,3.5191,3.5191,3.5257,3.5711,3.6497,3.7481,3.9537,3.974,3.9919,4.0301,4.088,4.1331,4.1458,4.1681,4.1798,4.1798,4.1935,4.203,4.203,4.2141,0.0,4.1814,4.1798,4.1846,4.2014,4.1861,4.1776,4.1722,4.1554,4.122,4.0689,0.0,0.0,3.9291,3.7687,3.6336,3.5256,3.4933,3.5113,3.5748,3.6876,3.783,3.8624,3.9323,4.007,4.0753,4.0349,4.0428,4.0794,4.0562,4.0483,4.0483,4.0483,4.0483,4.0483,4.0483,4.0705,4.096,4.0832,4.0737,4.0674,4.0674,4.0578,4.0578,4.1055,4.0832,4.0515,4.0642,4.0403,4.0142,4.0015,3.9403,3.8846,3.8719,3.8282,3.7916,3.8012,3.7226,3.659,3.659,0.0,0.0,0.0,0.0,0.0,0.0,0.0,0.0,0.0,2.8727,0.0,0.0,0.0,0.0,0.0,0.0,0.0,3.1474,3.3442,0.0,3.5768,3.7437,3.8414,3.8703,3.9784,4.0658,4.1284,4.1087,4.0913,4.0729,3.9603,3.8514,3.742,3.6308,3.5586,3.5191,3.5191,3.5191,3.5217,3.5404,3.6174,3.7272,4.1293,4.0667,0.0,0.0,4.1366,0.0,4.1863,4.1942,4.1984,4.2061,4.2431,4.2629,4.2551,4.2822,4.2716,4.1951,0.0,0.0,0.0,4.2078,4.203,4.2374,4.203,0.0,4.13,4.1284,4.0975,4.026,3.8942,3.829,3.8259,3.7607,3.748,3.7837,3.852,3.8989,3.9315,4.0054,4.0562,4.0889,4.0832,4.0832,4.0889,4.0832,4.0817,4.0817,4.0817,4.0817,4.0817,4.0817,4.1055,4.1293,4.096,4.1087,4.1316,4.13,4.1087,4.0975,4.1633,4.1316,4.0896,4.123,4.1055,4.0714,4.034,3.9736,3.9164,3.8799,3.8449,3.81,3.7821,3.7137,3.659,3.659,3.5663,3.4583,3.3587,0.0,0.0,0.0,0.0,0.0,0.0,3.0044,3.0407,0.0,0.0,0.0,0.0,0.0,3.1506,3.346,3.5256,3.6473,3.714,3.8505,3.9077,3.8846,3.9847,4.0689,4.1331,4.13,4.1439,4.1628,4.0641,3.9567,3.8422,3.7341,3.6256,3.5296,3.5217,3.5191,3.5191,3.5191,3.5928,3.6911,0.0,0.0,4.2234,4.248,4.2065,4.1994,4.2941,4.3365,4.3854,4.4673,4.5122,4.5047,4.4164,4.4152,4.377,4.2722,4.2644,4.2675,4.2781,4.2675,4.2564,4.2389,4.231,4.1961,4.13,4.1284,4.0848,3.9919,3.9586,3.926,3.8989,3.9085,3.9037,3.8878,3.9593,3.9959,4.0086,4.0785,4.1252,4.1538,4.1268,4.1331,4.1538,4.1293,4.1198,4.1198,4.1198,4.1198,4.1198,4.1198,4.1395,4.1681,4.1585,4.1617,4.1633,4.1363,4.1236,4.1252,4.1697,4.149,4.1214,4.1293,4.1055,4.0651,4.0047,3.9776,3.9554,3.9164,3.8624,3.8243,3.8417,3.7432,3.659,3.659,3.5272,3.3985,3.3231,0.0,0.0,0.0,3.0664,3.0902,3.0902,3.1284,3.1519,0.0,0.0,0.0,0.0,0.0,3.3619,3.3873,3.5822,3.7099,3.7544,3.8656,3.9577,4.0317,4.0546,4.1039,4.1655,4.1411,4.1042,4.0564,4.0306,3.9567,3.8422,3.7341,3.6728,3.6413,3.5533,3.5191,3.5191,3.5191,3.5928,3.6911,4.382,4.3346,4.303,4.336,4.3107,4.3277,4.457,4.4977,4.5301,4.5909,4.5846,4.5536,4.4909,4.4505,4.4022,4.3412,4.3099,4.2972,4.3104,4.2988,4.2829,4.2654,4.2469,4.2135,4.1538,4.1538,4.1252,4.0721,4.0546,4.0372,4.0156,4.0237,4.0158,3.9959,4.0515,4.0848,4.0998,4.1363,4.1744,4.203,4.1681,4.1649,4.1766,4.1601,4.1538,4.1538,4.1538,4.1538,4.1538,4.1538,4.1665,4.1798,4.1798,4.1798,4.175,4.1585,4.1538,4.157,4.1735,4.1681,4.1538,4.1538,4.1166,4.0714,4.0333,3.9888,3.9466,3.9235,3.8672,3.8259,3.8433,3.7448,3.6495,3.6177,3.4938,3.3651,3.2638,3.1856,0.0,3.1058,3.1376,3.1824,3.232,3.2809,3.2904,3.2448,0.0,0.0,3.3143,3.462,3.5303,3.4986,3.6845,3.802,3.837,3.926,4.007,4.081,4.0944,4.1284,4.1782,4.1617,4.1301,4.0883,4.0409,3.9567,3.8422,3.7341,3.6597,3.6059,3.5428,3.5271,3.5378,3.5244,3.592,3.6906,4.5074,4.4233,4.3757,4.4376,4.4458,4.4882,4.6235,4.6553,4.6674,4.6846,4.6341,4.5879,4.5695,4.4916,4.4334,4.4173,4.3497,4.3168,4.347,4.32,4.302,4.2908,4.2638,4.2262,4.1798,4.1798,4.1798,4.1798,4.157,4.1427,4.1363,4.115,4.0975,4.088,4.123,4.1506,4.1744,4.1766,4.1998,4.2278,4.1951,4.1798,4.1798,4.1798,4.1798,4.1798,4.1798,4.1798,4.1798,4.1798,4.1798,4.1798,4.1798,4.1798,4.1798,4.1861,4.1855,4.1798,4.1798,4.1798,4.1798,4.1798,4.1363,4.0928,4.088,4.0133,3.9426,3.9378,3.8807,3.8338,3.829,3.7401,3.6431,3.5722,3.4652,3.344,3.209,0.0,3.1649,3.1931,3.2201,3.2741,3.3719,3.4318,3.4334,3.3613,3.4769,0.0,0.0,3.5907,3.6654,3.6431,3.7845,3.8831,3.9291,4.007,4.0594,4.0864,4.123,4.1522,4.1798,4.1798,4.183,4.1852,4.0863,3.983,3.8729,3.7605,3.6466,3.5428,3.527,3.5351,3.5511,3.5284,3.591,3.6853,4.7068,4.689,4.6552,4.6323,4.6095,4.6235,4.704,4.7712,4.8472,4.9385,4.9703,4.9451,4.8509,4.7411,4.6385,4.5432,4.4372,4.3777,4.3824,4.3777,4.3475,4.2924,4.2861,4.2501,4.1798,4.1798,4.1798,4.1798,4.2103,4.2072,4.1744,4.2024,4.1818,4.1246,4.157,4.1601,4.1395,4.1697,4.1855,4.1903,4.184,4.1798,4.1798,4.1798,4.1798,4.1798,4.1798,4.1798,4.1798,4.1798,4.1798,4.1798,4.1798,4.1798,4.1871,4.2215,4.2062,4.1798,4.1798,4.1798,4.1798,4.1798,4.1703,4.157,4.1309,4.088,4.0467,4.0181,3.9561,3.895,3.8672,3.775,3.6695,3.5754,3.4467,3.3174,3.2058,0.0,3.2249,3.2332,3.363,3.471,3.523,3.5373,3.5611,3.6002,3.5441,3.5409,3.6161,3.7058,3.7646,3.7861,3.8131,3.8735,3.9697,4.0658,4.1182,4.123,4.157,4.1735,4.1798,4.1798,4.1982,4.2294,4.1771,4.109,4.0256,3.8825,3.7603,3.6544,3.5586,3.5231,3.5257,3.5217,3.5789,3.6566,4.7827,4.7453,4.7261,4.7623,4.7123,4.7238,4.886,4.9445,4.9861,5.0372,5.0051,4.9567,4.9069,4.7973,4.7101,4.6545,4.5469,4.4817,4.4817,4.4226,4.3681,4.3184,4.3168,4.293,4.2405,4.2405,4.2405,4.2405,4.2564,4.2564,4.2405,4.258,4.2374,4.1897,4.2056,4.204,4.1897,4.2072,4.2109,4.2109,4.2109,4.2109,4.2109,4.2109,4.2246,4.2405,4.2405,4.2405,4.2405,4.2405,4.2405,4.2405,4.2405,4.2405,4.2437,4.2596,4.2405,4.2062,4.1871,4.1798,4.1798,4.1798,4.1665,4.149,4.1357,4.1039,4.0762,4.0594,4.0006,3.9403,3.9037,3.7933,3.6822,3.6002,3.4546,0.0,0.0,3.2555,3.2678,3.3444,3.4408,3.5298,3.605,3.6152,3.6177,3.632,3.6203,3.6346,3.6838,3.756,3.8314,3.9045,3.9403,3.9736,4.0078,4.1087,4.1474,4.13,4.1649,4.1798,4.1824,4.2014,4.2119,4.2036,4.1458,4.0561,3.9424,3.8156,3.6975,3.5928,3.5401,3.5284,3.5404,3.5257,3.5738,3.6491,4.8434,4.798,4.7931,4.8605,4.8247,4.8462,5.0287,5.0625,5.0699,5.0699,4.9951,4.941,4.941,4.8368,4.771,4.771,4.6668,4.5869,4.5619,4.479,4.4013,4.3422,4.3327,4.3152,4.2908,4.2988,4.3035,4.3035,4.3089,4.3089,4.3035,4.3035,4.2845,4.2527,4.2527,4.2527,4.2527,4.2527,4.2527,4.2527,4.2527,4.2527,4.2527,4.2527,4.2686,4.2908,4.2908,4.2908,4.2908,4.2908,4.2908,4.2908,4.2908,4.2908,4.2924,4.3004,4.2818,4.2548,4.2157,4.1998,4.1951,4.1951,4.1681,4.1411,4.1411,4.1166,4.0912,4.0912,4.0444,3.9888,3.9434,3.8315,3.7171,3.6257,0.0,0.0,0.0,3.327,3.3456,3.4731,3.5314,3.5965,3.6876,3.7035,3.6988,3.6733,3.7171,3.7473,3.7473,3.8179,3.9029,3.9999,4.0619,4.0785,4.0531,4.1379,4.1681,4.1411,4.1681,4.1855,4.1951,4.2167,4.2199,4.201,4.1277,4.0057,3.8564,3.7631,3.6439,3.5191,3.5191,3.5378,3.5578,3.5378,3.5805,3.6501,4.9321,4.9655,4.9783,4.9479,4.9984,5.0349,5.016,5.0461,5.0699,5.0699,5.0647,5.0569,5.0569,4.9541,4.8885,4.8885,4.7842,4.673,4.5673,4.5512,4.4842,4.3449,4.3089,4.294,4.2908,4.32,4.3375,4.3375,4.3666,4.3666,4.3375,4.3375,4.3184,4.2876,4.2876,4.2876,4.2876,4.2876,4.2876,4.2876,4.2876,4.2876,4.2876,4.2876,4.2876,4.2908,4.2908,4.2908,4.2908,4.2908,4.2908,4.2908,4.2908,4.2908,4.2972,4.3279,4.3359,4.3247,4.2898,4.258,4.2342,4.2342,4.2046,4.175,4.175,4.1506,4.1252,4.1252,4.0975,4.054,3.9872,3.9125,3.8036,3.6368,0.0,0.0,3.4043,3.4456,3.5107,3.5891,3.6876,3.7662,3.8036,3.8354,3.8552,3.8497,3.8545,3.8576,3.8576,3.9284,3.9999,4.0714,4.1071,4.1236,4.1246,4.1617,4.1782,4.175,4.1782,4.1998,4.2342,4.1998,4.2189,4.2771,4.2048,4.0655,3.8939,3.8553,3.7106,3.5191,3.5191,3.5378,3.5605,3.5578,3.5952,3.65,4.9514,5.0021,5.0351,4.9929,5.0332,5.0644,5.0497,5.0589,5.0699,5.0699,5.0699,5.0699,5.0699,5.0316,5.0055,5.0055,4.9017,4.7868,4.673,4.5976,4.5019,4.3767,4.3586,4.3507,4.3507,4.3634,4.3713,4.3713,4.384,4.384,4.3713,4.3713,4.3523,4.32,4.32,4.3089,4.2924,4.312,4.3089,4.2924,4.312,4.3073,4.2924,4.312,4.32,4.3232,4.3454,4.3507,4.3507,4.3507,4.339,4.3247,4.3443,4.3232,4.2972,4.3295,4.3406,4.3422,4.3491,4.312,4.2718,4.2718,4.2596,4.2437,4.2231,4.2072,4.1976,4.1976,4.1516,4.1039,4.0769,3.9784,3.8735,3.7845,0.0,3.5987,3.5933,3.5965,3.6273,3.6988,3.7646,3.8131,3.8481,3.8624,3.8688,3.8688,3.9125,3.9379,3.9379,4.0229,4.0848,4.1103,4.1427,4.1506,4.1284,4.1633,4.1798,4.1798,4.1798,4.1887,4.203,4.2135,4.2199,4.2195,4.1651,4.0395,3.869,3.8778,3.738,3.527,3.598,3.5891,3.5351,3.5538,3.5885,3.6233,4.9533,5.0065,5.0424,5.0149,5.0424,5.0699,5.0699,5.0699,5.0699,5.0699,5.0699,5.0699,5.0699,5.0699,5.0699,5.0699,5.0003,4.8912,4.7393,4.5896,4.471,4.3931,4.3904,4.3904,4.3904,4.3904,4.3904,4.3904,4.3904,4.3904,4.3904,4.3904,4.3777,4.3539,4.3454,4.3279,4.3083,4.3184,4.3104,4.294,4.3263,4.3263,4.3089,4.3438,4.3554,4.3586,4.3824,4.3904,4.3904,4.3904,4.3745,4.3586,4.384,4.357,4.3263,4.3502,4.3554,4.3602,4.384,4.3554,4.3184,4.3073,4.2988,4.2845,4.2622,4.2574,4.2543,4.2405,4.1992,4.1579,4.1331,4.041,3.953,3.8958,3.8052,3.7409,3.7441,3.7448,3.7607,3.81,3.8505,3.8831,3.9164,3.9196,3.9244,3.9339,3.984,4.0158,4.0269,4.0817,4.1246,4.1443,4.1585,4.1585,4.1458,4.1697,4.1798,4.1798,4.1798,4.1871,4.1998,4.2125,4.2135,4.1963,4.1708,4.0403,3.8555,3.9244,3.7809,3.5296,3.6439,3.6327,3.5498,3.5698,3.5952,3.6233,4.9423,4.9819,5.0112,5.0112,5.0424,5.0699,5.0699,5.0699,5.0699,5.0699,5.0699,5.0699,5.0699,5.0699,5.0699,5.0699,5.0699,4.9742,4.7445,4.5175,4.3904,4.3904,4.3904,4.3904,4.3904,4.3904,4.3904,4.3904,4.3904,4.3904,4.3904,4.3904,4.3904,4.3904,4.3539,4.3406,4.339,4.3041,4.2908,4.294,4.3279,4.3406,4.3454,4.3777,4.3904,4.3904,4.3904,4.3904,4.3904,4.3904,4.3904,4.3904,4.3904,4.3877,4.3904,4.3904,4.3904,4.3904,4.3904,4.3904,4.3824,4.3502,4.3152,4.2908,4.2908,4.2908,4.2813,4.2495,4.2415,4.2167,4.1468,4.1039,4.0451,3.9378,3.9204,3.8966,3.8306,3.8775,3.9204,3.9204,3.9561,3.9935,4.026,4.0292,4.0435,4.0753,4.0785,4.0944,4.1309,4.0991,4.1118,4.1766,4.1474,4.1458,4.1782,4.1798,4.1798,4.1798,4.1824,4.2014,4.24,4.1982,4.203,4.2389,4.2389,4.0924,3.8633,4.0095,3.8519,3.5322,3.6466,3.6574,3.6099,3.6099,3.6259,3.65,4.9056,4.9617,5.0112,5.0112,5.0424,5.0699,5.0699,5.0699,5.0699,5.0699,5.0699,5.0699,5.0699,5.0699,5.0543,5.016,5.0491,4.9742,4.7445,4.5175,4.3904,4.3904,4.3904,4.3904,4.3904,4.3904,4.3904,4.3904,4.3904,4.3904,4.3904,4.3904,4.3904,4.3904,4.3793,4.3745,4.3745,4.3634,4.3586,4.3602,4.3713,4.3602,4.3454,4.3777,4.3761,4.357,4.3824,4.3904,4.3904,4.3904,4.3745,4.3518,4.3279,4.3359,4.3539,4.3539,4.3539,4.3586,4.384,4.3904,4.3888,4.3777,4.3666,4.3539,4.3311,4.3247,4.3216,4.312,4.2898,4.2765,4.2771,4.2078,4.1316,4.076,4.0483,4.0165,3.9736,3.9735,3.9771,3.9771,3.9865,3.9809,3.9503,3.9844,3.9965,3.9642,4.0217,4.0894,4.1608,4.1554,4.1601,4.1782,4.1687,4.1713,4.1798,4.2078,4.2078,4.1824,4.2316,4.2501,4.2389,4.2517,4.2628,4.2765,4.2993,4.1942,4.0095,4.0784,3.9222,3.6441,3.6965,3.6576,3.5805,3.6219,3.6433,3.6473,4.8891,4.9416,4.9911,5.0076,5.0424,5.0699,5.0699,5.0699,5.0699,5.0699,5.0699,5.0699,5.0699,5.0699,5.0569,5.0238,5.0107,4.9253,4.7419,4.5603,4.4361,4.3904,4.3904,4.3904,4.3904,4.3904,4.3904,4.3904,4.3904,4.3904,4.3904,4.3904,4.3904,4.3877,4.3761,4.3697,4.3697,4.3554,4.3491,4.3533,4.365,4.357,4.3454,4.3777,4.3777,4.3634,4.3999,4.4153,4.4169,4.4296,4.4201,4.3962,4.3655,4.3661,4.3804,4.3634,4.3586,4.3634,4.3856,4.3904,4.3904,4.3904,4.3904,4.3856,4.3634,4.3586,4.3554,4.3438,4.3232,4.312,4.3184,4.2675,4.2135,4.1802,4.1675,4.1404,4.0785,4.0841,4.0796,4.0372,4.0435,4.0363,4.001,4.0287,4.0425,4.0196,4.0693,4.1244,4.1782,4.1798,4.1861,4.203,4.1861,4.1887,4.203,4.2278,4.2199,4.1798,4.2421,4.2606,4.2405,4.2749,4.2908,4.2924,4.3247,4.2439,4.0942,4.1604,4.0329,3.8015,3.8468,3.8125,3.731,3.71,3.7006,3.6924,4.8891,4.9294,4.9698,5.0076,5.0461,5.0699,5.0699,5.0699,5.0699,5.0699,5.0699,5.0699,5.0699,5.0673,5.0647,5.0647,4.9611,4.85,4.7525,4.6375,4.5245,4.4092,4.4038,4.3984,4.3904,4.3904,4.3904,4.3904,4.3904,4.3904,4.3904,4.3904,4.3904,4.3904,4.357,4.3427,4.3411,4.312,4.3004,4.3035,4.3327,4.3427,4.3475,4.3824,4.3935,4.3951,4.4344,4.4482,4.4487,4.4789,4.4939,4.4911,4.4593,4.4514,4.4423,4.4094,4.3983,4.3951,4.3951,4.3935,4.3904,4.3904,4.3904,4.3904,4.3904,4.3904,4.3824,4.3518,4.3427,4.3359,4.3067,4.2946,4.2834,4.2559,4.2733,4.2574,4.1595,4.1941,4.1973,4.0989,4.1106,4.1271,4.1252,4.1252,4.1379,4.1689,4.1747,4.1772,4.1855,4.1846,4.203,4.2421,4.2046,4.2046,4.2421,4.2374,4.2167,4.1824,4.2246,4.2437,4.2463,4.2765,4.2924,4.2972,4.3263,4.2617,4.1417,4.2414,4.1565,3.9767,4.0356,4.0306,3.9738,3.8323,3.7795,3.7648,4.9294,4.9691,5.0094,5.0497,5.0625,5.0699,5.0699,5.0699,5.0699,5.0699,5.0699,5.0699,5.0699,5.0334,5.0055,5.0055,4.9017,4.8465,4.8605,4.7551,4.6428,4.5272,4.5245,4.4817,4.3904,4.3904,4.3904,4.3904,4.3904,4.3904,4.3904,4.3904,4.3904,4.3904,4.3824,4.3793,4.3793,4.3713,4.3681,4.3681,4.3761,4.3793,4.384,4.4217,4.4158,4.3951,4.4344,4.4296,4.4031,4.411,4.436,4.4593,4.453,4.4514,4.4518,4.4709,4.4566,4.436,4.436,4.4126,4.3904,4.3904,4.3904,4.3904,4.3904,4.3904,4.3888,4.3808,4.3793,4.3777,4.3697,4.3486,4.3279,4.32,4.3009,4.2829,4.259,4.2073,4.1604,4.1369,4.1192,4.0996,4.0852,4.083,4.0919,4.1156,4.1151,4.1497,4.2221,4.2262,4.2421,4.2797,4.2437,4.2437,4.2797,4.2231,4.1903,4.1798,4.2469,4.2797,4.2797,4.2876,4.3025,4.3295,4.3375,4.3067,4.2503,4.2176,4.143,4.0404,3.994,3.9543,3.9084,3.81,3.7715,3.7581,4.9654,4.9782,4.9984,5.0589,5.0699,5.0699,5.0699,5.0699,5.0699,5.0699,5.0699,5.0699,5.0699,5.0464,5.0264,5.0264,4.9742,4.9174,4.8649,4.8052,4.6836,4.487,4.5058,4.4683,4.3542,4.3785,4.3904,4.3904,4.3904,4.3904,4.3904,4.3904,4.3904,4.3904,4.3904,4.3904,4.3904,4.3904,4.3904,4.392,4.4094,4.4201,4.4217,4.4407,4.436,4.4217,4.4407,4.4455,4.4439,4.4439,4.4566,4.4709,4.4562,4.4514,4.4514,4.4471,4.436,4.4217,4.4217,4.4063,4.3904,4.3904,4.3904,4.3904,4.3904,4.3904,4.3904,4.3904,4.3904,4.3904,4.3904,4.3761,4.3634,4.3634,4.3475,4.3327,4.3152,4.2714,4.2341,4.2183,4.2021,4.1885,4.176,4.1609,4.1604,4.1885,4.1911,4.2119,4.2612,4.2654,4.2787,4.312,4.2803,4.2733,4.2908,4.2517,4.2141,4.1798,4.2548,4.2908,4.2924,4.3232,4.339,4.3422,4.3554,4.3359,4.2888,4.2653,4.2242,4.1644,4.068,4.02,3.9866,3.8184,3.7295,3.6841,4.994,4.99,4.9918,5.057,5.0699,5.0699,5.0699,5.0699,5.0699,5.0699,5.0699,5.0699,5.0699,5.0699,5.0621,5.042,5.0498,4.9925,4.8439,4.8333,4.7215,4.4683,4.4887,4.4516,4.3445,4.377,4.3923,4.3904,4.3904,4.3904,4.3904,4.3904,4.3904,4.3904,4.3904,4.3904,4.3904,4.3904,4.3904,4.3935,4.4264,4.4391,4.4391,4.4455,4.4514,4.4514,4.4514,4.4689,4.4911,4.4836,4.4911,4.4932,4.4609,4.4546,4.4503,4.4174,4.4047,4.3999,4.3999,4.3951,4.3904,4.3904,4.3904,4.3904,4.3904,4.3904,4.3904,4.3904,4.3904,4.3904,4.3904,4.3904,4.3904,4.3904,4.3904,4.3808,4.3507,4.3454,4.3295,4.3035,4.3004,4.2972,4.2908,4.2718,4.2628,4.2813,4.2876,4.2908,4.2908,4.2956,4.3136,4.3459,4.3152,4.2993,4.3057,4.2908,4.2564,4.2094,4.2628,4.2908,4.2924,4.3422,4.3554,4.3422,4.3634,4.3422,4.2924,4.32,4.312,4.2682,4.1578,4.1084,4.0744,3.8235,3.6739,3.5926,4.9973,5.0332,5.0552,5.068,5.0699,5.0699,5.0699,5.0699,5.0699,5.0699,5.0699,5.0699,5.0699,5.0699,5.029,4.9331,4.9716,4.9689,4.8938,4.8885,4.842,4.7408,4.6442,4.5563,4.4765,4.4298,4.4031,4.3904,4.3904,4.3904,4.3904,4.3904,4.3904,4.3904,4.3904,4.3904,4.3904,4.3904,4.3904,4.3893,4.3967,4.3983,4.4015,4.436,4.4514,4.4514,4.4514,4.453,4.4503,4.4158,4.4471,4.4932,4.4609,4.4689,4.4911,4.4864,4.4641,4.4407,4.4407,4.4142,4.3904,4.3904,4.3904,4.3904,4.3904,4.3904,4.3904,4.3904,4.3904,4.3904,4.3904,4.3904,4.3904,4.3904,4.3904,4.3888,4.384,4.357,4.339,4.3343,4.3343,4.3216,4.294,4.312,4.3041,4.2527,4.2749,4.2908,4.2908,4.3168,4.3502,4.3824,4.3518,4.3486,4.3761,4.2898,4.2707,4.3173,4.2977,4.2908,4.2908,4.2675,4.2898,4.339,4.3136,4.2961,4.2908,4.2956,4.2781,4.2349,4.1223,4.0595,4.0065,3.7793,3.6273,3.5351,5.0335,5.0387,5.0442,5.0662,5.0699,5.0699,5.0699,5.0699,5.0699,5.0699,5.0699,5.0699,5.0699,5.0699,5.0368,4.9585,4.9742,4.9637,4.9043,4.8939,4.8603,4.7915,4.6654,4.5637,4.5014,4.4096,4.3582,4.3519,4.4002,4.4328,4.4503,4.4094,4.411,4.4503,4.4078,4.4015,4.4233,4.3999,4.3904,4.3935,4.4126,4.4248,4.4264,4.4423,4.4514,4.4514,4.4514,4.4514,4.4455,4.4296,4.4566,4.4932,4.4609,4.4737,4.4959,4.4784,4.4737,4.4737,4.4562,4.436,4.4248,4.4248,4.4063,4.3904,4.3904,4.3904,4.3904,4.3904,4.3904,4.3904,4.3904,4.3904,4.3904,4.3904,4.3904,4.3904,4.3904,4.3777,4.3681,4.3681,4.3507,4.3422,4.3443,4.3411,4.3359,4.3263,4.3364,4.347,4.347,4.3586,4.3745,4.3904,4.3761,4.3666,4.3618,4.3184,4.2914,4.2834,4.2892,4.3004,4.3168,4.3232,4.3311,4.3406,4.3454,4.3136,4.2654,4.3025,4.2739,4.1923,4.0364,3.8807,3.7277,3.6322,3.5855,3.5725]}]]